GFSGL_prec_radar_000.txt.gz
Reflectivity
-20 -20 -20 -20 -20 -20 -20 -9 -12 -20 -8 -20 -5 -20 -9 -20 -20 -20 -20 -20 -20 -20 -20 -20 -20 -20 -20 -20 -20 -20 -20 -20 -20 -20 -20 -20 -20 -20 -20 -20 -20 -20 -20
-20 -20 -20 -20 -20 -20 -20 -4 19 -20 -20 -7 22 19 -9 -19 -20 -20 -20 -20 -20 -20 -20 -20 -20 -20 -20 -20 -20 -20 -20 -20 -20 16 -20 -20 -20 -20 -20 -20 -20 -20 -20
-20 -20 -20 -20 -20 -20 -20 -20 -20 -20 -20 -20 20 10 13 11 -20 -20 -20 -20 -20 -20 -20 -20 -20 -20 -20 -20 -20 -20 -20 -20 -20 -20 -20 -20 -20 -20 -20 -20 -20 -20 -20
-20 -20 -20 -20 -20 -15 -20 -20 -20 -20 -20 -14 4 -20 1 2 -20 -20 -20 -20 -20 -20 -20 -20 -20 -20 -20 -20 -20 -15 -20 -20 -20 -20 -14 1 -20 -20 -19 -16 -3 -20 -20
-20 -20 -20 -20 0 -6 -20 -20 8 3 -20 -20 -16 -12 -10 -20 -20 -9 -20 -20 -20 -20 -20 -20 -20 -20 -20 -20 -20 -20 -20 -20 -20 -20 -20 -20 -20 -20 -10 -20 -20 -20 -20
-20 -20 -20 0 -4 -20 -20 -20 -20 -20 -20 18 -20 -20 -20 -20 -20 -20 -20 -20 -20 -20 -20 22 27 16 7 -19 -20 -20 -20 -20 -20 -20 -20 -8 -20 20 -19 -20 -20 -20 4
-20 -20 -20 -20 -3 1 -20 -20 -17 -20 34 -20 -20 -20 -20 -20 -20 -20 -20 -20 -15 -20 -20 -6 4 -14 24 25 24 -20 -2 -16 -20 -20 -0 13 -16 18 4 14 9 9 -20
-20 -20 -20 1 -3 3 -4 -19 -18 -16 -20 -20 -20 -20 -20 -20 -20 -20 -20 -20 12 -20 -20 -20 -20 -1 12 25 14 -1 -20 -20 -20 20 -2 -15 -20 -20 -20 -20 -20 -14 -13
-20 -20 -15 -3 1 -9 1 -19 -20 -2 6 -20 -20 -20 2 -13 -20 -20 -6 -20 -20 -15 -12 9 1 16 24 24 -14 -20 -20 -20 -20 -20 -20 -20 -20 -20 -20 -20 -20 -3 4
-20 -20 -20 -20 -2 -4 -5 -0 -8 6 -20 -20 -20 -17 -6 -20 -20 -20 -20 -20 -20 -20 -20 1 26 12 2 6 -20 -20 -20 -20 -20 -20 -20 -20 -20 -20 -20 -19 -20 3 9
-20 -20 -20 -20 2 3 7 -2 -4 11 8 9 -5 9 3 -12 6 -11 -20 -20 -20 -20 -20 3 -20 -20 -20 -20 -20 -20 -20 -14 -20 -20 -20 -20 -20 -20 -20 -20 -20 -20 -20
-20 -18 -20 2 -2 7 5 -10 -5 6 13 6 21 23 19 -20 30 23 -10 -3 -16 -20 25 -20 -11 -20 -20 -20 -20 -20 -20 -20 -20 -20 -20 -20 -20 -20 -20 -20 -20 -20 -20
-20 -6 -2 -3 -18 4 6 -20 -18 -11 5 -20 19 23 14 23 -18 -5 -18 -2 -5 9 -20 14 -20 -20 -20 -20 -20 -20 -20 -20 -20 -20 -20 -20 -20 -20 -20 -20 -20 -20 -20
-1 1 -3 12 10 2 -2 -6 9 14 8 22 24 20 -20 15 1 -19 -20 -20 -20 -20 -19 -20 -20 -18 -20 -20 -20 -20 -20 -20 -20 -20 -20 -20 -20 -20 -20 -20 -20 -20 -20
-2 -7 13 6 -0 10 2 -11 5 -7 -9 -20 -15 -20 -6 11 -20 -8 -20 -20 -20 1 -20 -20 -20 -20 -20 -20 -20 -20 -20 -20 -20 -20 -20 -20 -20 -20 -20 -20 -20 -20 -20
14 -10 -12 -10 -0 -7 -16 -20 7 4 -5 6 2 -11 -14 -3 -20 -20 -20 -20 -20 -20 -20 -20 -20 -20 -20 -20 -20 -20 -20 -20 -20 -20 -20 -20 -20 -20 -20 -20 -20 -20 -20
-20 -20 -20 -20 -20 -20 -20 -20 -20 -4 -20 -20 -20 -20 -20 -20 -20 -20 -20 -20 -20 2 -20 -20 -20 -20 -20 -20 -20 -20 -20 -20 -20 -20 -20 -20 -20 -20 -20 -20 -20 -20 -20
-20 -14 -20 -20 -20 -20 -20 -20 -20 -20 -20 -20 -20 -18 -6 -20 -20 -20 -20 -20 -13 -5 -20 -20 -20 -20 -20 -20 -20 -20 -20 -20 -20 -20 -20 -20 -20 -20 -20 -20 -20 -20 -20
-20 -20 -20 -20 -20 -20 -20 -20 -20 -20 -20 -20 -20 -20 -17 -20 -20 -20 -14 -20 -20 -20 -20 -20 -20 -20 -20 -20 -20 -20 -20 -20 -20 -20 -20 -20 -20 -20 -20 -20 -20 -20 -20
-20 -8 -20 -20 -20 -20 -20 -20 -20 -20 -20 -20 -20 -20 -20 -20 -20 -20 -20 -20 -20 -20 -20 -20 -20 -20 -20 -20 -20 -20 -20 -20 -20 -20 -20 -20 -20 -20 -20 -20 -20 -20 -20
-20 -20 -20 -20 -20 -20 -20 -20 -20 -20 -20 -20 -20 -20 -20 -20 -20 -20 -20 -20 -20 -20 -20 -20 -20 -20 -20 -20 -20 -20 -20 -20 -20 -20 -20 -20 -20 -20 -20 -20 -20 -20 -20
-20 -20 -20 -20 -20 -20 -20 -20 -20 -20 -20 -20 -20 -13 -20 -20 -20 -20 -20 -20 -20 -20 -20 -20 -20 -20 -20 -20 -20 -20 -20 -20 -20 -20 -20 -20 -20 -20 -20 -20 -20 -20 -20
-20 -20 -20 19 1 1 -18 -20 -20 -20 -20 -20 -20 10 -20 -20 -20 -20 -20 -20 -20 -20 -20 -20 -20 -20 -20 -20 -20 -20 -20 -20 -20 -20 -20 -20 -20 -20 -20 -20 -20 -20 -20
-9 -20 -20 -20 -20 -20 -20 -20 -20 -20 -20 -20 -18 7 -16 -20 -12 -20 -20 -0 -20 -20 -20 -20 -20 -20 -20 -20 -20 -20 -20 -20 -20 -20 -20 -20 -20 -20 -20 -20 -20 -20 -20
-8 -20 -20 -20 -20 -20 -20 -20 -20 -20 -20 -20 -20 -20 -20 -20 4 -20 -20 -20 -20 -20 -20 -20 -20 -20 -20 -20 -20 -20 -20 -20 -20 -1 -20 -20 -20 -20 -20 -20 -20 -20 -20
-20 -20 -20 -20 -20 -20 -20 -20 -20 -20 -20 -20 -20 -20 -20 -20 -20 -6 -1 -20 -20 -20 -20 -20 -20 -20 -20 -20 -20 -20 -20 -20 -20 -20 -20 -20 -20 -20 -20 -20 -20 -20 -20

GFSGL_prec_radar_003.txt.gz
Reflectivity
-20 -20 -20 -20 -20 -20 -20 -20 -20 -20 -20 -20 -20 -19 -20 -20 -12 -20 -20 -20 -17 -20 -20 -20 -20 -20 -20 -20 -20 -20 -20 -20 -20 -20 -20 -20 -20 -20 -20 -20 -14 -20 -20
-20 -20 -20 -20 -20 -20 -20 -20 -20 -20 -20 -20 -20 -20 -20 -20 -20 -20 -20 -20 -20 -20 -20 -20 -20 -20 17 -10 -20 -20 -20 -20 -20 -20 -20 -20 -20 -20 -20 -20 -20 -20 -20
-20 -20 -20 -20 -20 -20 -20 -20 -20 -20 -20 -20 -20 -20 -20 -20 -20 -20 -20 -20 -20 -20 -20 -20 -20 -20 -20 -18 -18 -20 -20 -20 -12 -20 -20 -20 -5 -20 -20 -20 -20 -20 -20
-20 -20 -20 -20 -20 -20 -20 -20 -20 -20 -20 -20 -20 -20 -20 -20 -20 -20 -20 -20 -20 -20 -5 -20 -20 3 18 23 1 21 2 -0 -20 -20 -20 -20 -20 -20 -20 -9 -20 -20 -20
-20 -20 -20 -20 -20 -20 -20 -20 -20 -20 -20 -20 -20 -20 -20 -20 -20 -20 -20 -20 -20 -20 -20 -20 -20 9 -4 32 -10 -10 24 22 -17 -20 -20 -20 -20 -20 -20 -20 -20 -20 -20
-20 -20 -20 -20 -20 -20 -20 -3 -20 -20 -20 -20 19 -20 7 -20 -20 -20 8 -17 -20 -20 24 17 -20 -19 -3 -20 -15 3 21 27 21 27 -20 -20 -20 -20 22 0 20 -20 -20
-20 -20 -20 -20 -20 -19 -6 2 -20 -20 -20 -20 -20 -20 -20 -20 -20 -20 12 2 -20 -12 -17 -20 -20 -20 -19 -20 -20 -18 27 22 27 -20 -9 -20 -0 -20 -20 -14 -20 -20 -20
-20 -20 -20 -20 -0 -7 -15 -6 2 -20 -20 -19 -20 -20 -20 -20 -20 -20 -10 2 -20 -20 -20 -20 11 -2 -20 -20 9 -11 8 -3 8 -20 -20 8 -12 -20 -20 -20 -20 -20 -20
-20 -20 -20 -5 -7 -19 -0 -0 -0 -13 2 6 -20 -20 -20 -20 -20 -17 -14 -19 -20 -2 -20 -20 -20 -20 -20 -7 7 -20 -13 -11 5 -20 -20 -20 -20 -20 -20 -20 -20 -20 -20
-20 -20 -20 -5 -20 3 -1 2 3 9 8 -20 -20 -20 13 23 -17 -20 -20 -20 -18 -20 19 -16 5 -20 -20 -20 -20 -20 12 15 -16 -20 -20 -20 -20 -20 -20 -20 -20 11 -18
-20 -20 -20 -2 -20 -18 -9 8 6 12 9 -15 -20 -11 11 9 -10 -20 -20 -20 -20 -20 -20 -16 -20 -20 -20 -20 -16 -20 -20 -14 -20 -20 -20 -20 -20 -20 -20 -20 -20 -20 -20
-20 -20 -20 -20 3 5 8 -2 -20 -16 -1 10 -11 16 12 5 -20 -11 -20 -3 -11 -20 -20 -17 25 26 -20 -20 -7 -20 -20 -20 -20 -20 -20 -20 -20 -20 -20 -20 -20 -20 -20
-20 -16 -3 -3 -1 11 10 10 12 14 6 10 14 5 4 -4 24 -3 21 3 8 -10 -20 -20 27 -7 -20 -20 -20 -20 -20 -20 -20 -20 -20 -20 -20 -20 -20 -20 -20 -20 -20
-18 7 -4 1 5 3 11 -11 -20 -18 -1 9 15 -11 -19 -17 -6 21 17 16 3 -13 -20 15 -20 -20 -20 -20 -20 -20 -20 -20 -20 -20 -20 -20 -20 -20 -20 -20 -20 -20 -20
7 2 16 8 9 7 -7 -4 -2 1 26 -1 -20 -8 -20 -20 -12 -20 -20 -20 -20 -8 -20 -20 -20 -20 -20 -20 -20 -20 -20 -20 -20 -20 -20 -20 -20 -20 -20 -20 -20 -20 -20
-3 5 5 4 12 -17 -20 -20 4 8 7 17 20 -20 -15 -0 -20 -20 -20 -20 -20 -20 -20 -20 -20 -20 -20 -20 -20 -20 -20 -20 -20 -20 -20 -20 -20 -20 -20 -20 -20 -20 -20
5 6 -11 -20 -19 -1 21 -19 -20 -7 -20 -20 -20 -20 -20 -20 -20 -20 -20 -20 -20 -20 -20 -20 -20 -20 -20 -20 -20 -20 -20 -20 -20 -20 -20 -20 -20 -20 -20 -20 -20 -20 -20
-20 -15 -20 -20 -20 4 -13 -20 -20 -20 -20 -20 -20 -17 -18 -20 -20 -20 -20 -20 -15 -6 -20 -20 -20 -20 -20 -20 -20 -20 -20 -20 -20 -20 -20 -20 -20 -20 -20 -20 -20 -20 -20
-20 -20 -20 -20 -20 -20 -20 -20 -20 -20 -20 -20 -20 -20 -19 -20 -20 -20 -15 -20 -20 -20 -20 -20 -20 -20 -20 -20 -20 -20 -20 -20 -20 -20 -20 -20 -20 -20 -20 -20 -20 -20 -20
-20 -20 -20 -20 -20 -20 -20 -20 -20 -20 -20 -20 -20 -20 -20 -20 -20 -20 -20 -20 -20 -20 -20 -20 -20 -20 -20 -20 -20 -20 -20 -20 -20 -20 -20 -20 -20 -20 -20 -20 -20 -20 -20
-20 -20 -20 -20 -20 -20 -20 -20 -20 -20 -20 -20 -20 -20 -20 -20 -20 -17 -20 -20 -20 -20 -20 -20 -20 -20 -20 -20 -20 -20 -20 -20 -20 -20 -20 -20 -20 -20 -20 -20 -20 -20 -20
-20 -20 -20 -20 -20 -20 -20 -20 -20 -20 -20 -20 -20 -20 -20 -20 -20 -20 -20 -20 -20 -20 -20 -20 -20 -20 -20 -20 -20 -20 -20 -20 -20 -20 -20 -20 -20 -20 -20 -20 -20 -20 -20
-20 -20 -20 -20 -20 -20 -19 -20 -20 -20 -20 -20 -20 -20 -20 -20 -20 -11 -20 -1 -9 -20 -20 -20 -20 -20 -20 -20 -20 -20 -20 -20 -20 -20 -20 -20 -20 -20 -20 -20 -20 -20 -20
-20 -20 -20 -20 -20 -20 -20 -20 -20 -20 -20 -20 -20 -20 -20 11 -20 8 3 16 -15 -20 -20 -20 -20 -20 -20 -20 -20 -20 -20 -20 -20 -20 -20 -20 -20 -20 -20 -20 -20 -20 -20
20 -20 -20 -17 20 -20 -20 -20 -20 -20 -20 -20 -20 -20 -20 -20 -20 -15 -19 -20 -20 -20 -20 -20 -20 -20 -20 -20 -20 -20 -20 -20 -20 -20 -20 -20 -20 -20 -20 -20 -20 -20 -20
34 11 -5 -14 -20 -20 -20 -20 -20 -20 -20 -20 -20 -20 -20 -20 -20 -20 -20 -20 -20 -20 -20 -20 -20 -20 -20 -20 -20 -20 -20 -20 -20 -20 -20 -20 -20 -20 -20 -20 -20 -20 -20

GFSGL_prec_radar_006.txt.gz
Reflectivity
-20 -20 -20 -20 -20 -20 -20 -20 -20 -20 -20 -20 -20 -20 -20 -20 -20 -20 -20 -20 -20 -20 -20 -20 -20 -20 -20 -20 -20 -20 -20 -20 -20 -20 -20 -20 -20 -20 -20 -19 -20 -20 -20
-20 -20 -20 -20 -20 -20 -20 -20 -20 -20 -20 -20 -20 -20 -20 -20 -20 -20 -20 -20 -20 -20 -20 -20 -20 -20 -20 -20 -20 -20 -20 -11 -14 -12 -20 -20 -20 -20 -20 -20 -20 -20 -20
-20 -20 -20 -20 -20 -20 -20 -20 -20 -20 -20 -20 -20 -20 -20 -20 -20 -20 -20 -20 -20 -20 -20 -20 -20 -20 -20 -20 1 -20 -20 -8 -11 16 -3 2 5 -1 -14 -20 -20 -20 -20
-20 -20 -20 -20 -20 -20 -20 -20 -20 -20 -20 -20 -20 -20 -20 -20 -20 -20 -20 -20 -20 -20 -20 -20 -20 -20 -20 -20 -20 -20 -19 -5 -20 -0 38 7 7 14 -12 -20 -17 -17 -20
-20 -20 -20 -20 -20 -20 -20 -20 -20 -20 -20 -20 -20 -20 -20 -20 -20 -20 -20 -20 -20 -20 -20 -19 -20 -20 -20 -13 24 16 11 -11 -20 -20 -20 22 8 15 -20 -20 -11 -20 -20
-20 -20 -20 -20 -20 -20 -20 -20 -20 3 9 6 -20 -20 16 20 -14 -20 -20 -20 -20 -20 -20 18 -20 -20 2 -16 -3 -20 -20 -20 -20 -20 -20 12 -1 -19 -20 -20 -20 -20 -20
-20 -20 -20 -20 -20 -20 -20 -20 -20 1 -15 -20 -20 -20 -20 -20 -6 -20 -20 -20 -20 -20 -13 -4 -20 -20 11 -20 -20 -9 -20 -19 -15 -20 -20 -3 -20 -20 -20 -20 4 -20 -20
-20 -20 -20 -20 -20 -20 -20 -20 -8 -20 -20 -20 -20 -8 -20 -19 9 -20 -20 -20 -15 -4 -20 -16 -20 -3 -20 -20 11 -15 -20 -20 -19 -20 6 -20 -20 -20 -20 -20 -20 -20 -20
-20 -20 -20 -20 -20 -20 -20 -20 -20 -20 -7 -2 -6 -20 -20 -20 -8 -4 -20 -20 8 -20 -20 11 -20 -20 -20 35 -20 -20 -20 -20 -20 -20 4 -20 -20 -20 -20 -20 -20 -20 -20
-20 -20 -20 -20 -20 -20 -20 -20 -20 -20 -8 -17 -20 -20 13 -20 -16 -19 -20 -20 -20 -14 17 -20 -20 -20 22 -20 -20 -19 -20 4 -20 -20 -20 -20 -20 -20 -20 -20 -20 -20 -15
-20 -20 -20 -20 -20 4 -20 -20 -20 5 13 1 -20 -5 -6 -20 -1 -20 -20 -20 -20 -20 -20 17 -20 -8 -20 -20 2 -20 -20 -20 -20 -20 -20 -20 -20 -20 -15 13 -20 -20 -20
-20 -20 -20 -20 -20 -20 3 11 9 -20 -20 -3 -19 -20 -15 4 -20 -13 -20 -20 -20 -20 -20 21 13 -3 -20 -4 -20 -20 -20 -20 -20 -20 -20 -20 -20 -17 -19 -20 -20 -20 -20
-20 -20 -20 -20 -19 14 9 -18 -17 5 -20 -20 -20 -20 10 6 -19 -19 -20 -20 -2 -16 -20 -2 26 -19 -20 -20 -20 -20 -20 -20 -20 -20 -20 -11 -20 -20 -20 -20 -20 -20 -20
-20 -20 -20 -16 -1 -20 -20 3 5 -2 -15 0 14 -7 10 10 -20 -20 -20 -15 6 12 -20 -20 -20 -20 -20 -20 -20 -20 -20 -20 -20 -20 -20 -20 -20 -20 -20 -20 -20 -20 -20
-20 -20 -20 -19 6 6 -20 -4 -20 -20 -10 -7 20 10 -20 4 -20 -20 -20 -20 -20 -20 -20 -20 -20 -20 -20 -20 -20 -20 -20 -20 -20 5 -20 -20 -20 -20 -20 -20 -20 -20 -20
-20 -11 -2 -2 -3 -4 -20 -20 -20 -20 -20 -20 -20 -20 -17 14 -20 -20 -20 -20 -20 -20 -20 -20 -20 -10 -20 -9 -20 -20 -20 -20 -11 -20 -20 -20 -20 -20 -20 -20 -20 -20 -20
-20 7 -20 -3 12 -20 -20 -20 -20 -20 -20 -20 -20 -20 -20 -20 -20 -20 -20 -20 -20 -20 -20 -20 -20 -20 -20 -20 -20 -20 -20 -20 -20 -20 -20 -20 -20 -20 -20 -20 -20 -20 -20
5 -12 -20 -20 0 5 -16 -20 -20 -20 -20 -20 -20 -20 -20 -20 -20 -20 -20 -20 -20 -20 -20 -20 -20 -20 -20 -20 -20 -20 -20 -20 -20 -20 -20 -20 -20 -20 -20 -20 -20 -20 -20
-13 -11 1 18 -13 6 -14 -18 -17 -20 -20 -20 -20 -20 -20 -20 -20 -20 -20 -20 -20 -20 -20 -20 -20 -20 -20 -20 -20 -20 -20 -20 -20 -20 -20 -20 -20 -20 -20 -20 -20 -20 -20
11 2 -18 -15 -20 -20 -16 -20 -20 -20 -20 -20 -20 -20 -20 -20 -20 -20 -20 -20 -20 -20 -20 -20 -20 -20 -20 -20 -20 -20 -20 -20 -20 -20 -20 -20 -20 -20 -20 -20 -20 -20 -20
-5 -18 -19 -20 -20 -20 -20 -20 -20 -20 -20 -20 -20 -20 -20 -20 -20 -20 -20 -20 -20 -20 -20 -20 -20 -20 -20 -20 -20 -20 -20 -20 -20 -20 -20 -20 -20 -20 -20 -20 -20 -20 -20
-18 -0 7 -18 -20 -20 -20 -20 -20 -20 -20 -17 -20 -20 -20 -20 -20 -20 -20 -20 -10 -20 -20 -14 -20 -20 -20 -20 -20 -20 -20 -20 -20 -20 -20 -20 -20 -20 -20 -20 -20 -20 -20
24 -5 -19 -20 -15 -4 -20 -20 -20 -20 -20 -20 -20 -20 -20 -20 -20 -20 -20 -20 -20 -20 -20 -16 -20 -20 -20 -20 -20 -20 -20 -20 -20 -20 -20 -20 -20 -20 -20 -20 -20 -20 -20
-3 -20 -9 24 -12 -20 -5 -2 -20 -20 -20 -20 -20 -20 -20 5 -13 -20 -20 -20 -20 -20 -20 -20 -19 -20 -20 -20 -20 -20 -20 -20 -20 -20 -20 -20 -20 -20 -20 -20 -20 -20 -20
24 -15 1 6 3 -18 1 19 10 -19 -14 -20 -20 -20 -20 -20 -20 -20 -20 -20 -20 -20 -20 -20 -20 -20 -20 -20 -20 -20 -20 -20 -20 -20 -20 -20 -20 -20 -20 -20 -20 -20 -20
32 -9 -6 24 -2 -0 2 27 10 -11 0 20 -16 -20 -20 -20 -20 -20 -20 -20 -20 -20 -20 -20 -20 -20 -20 -20 -20 -20 -20 -20 -20 -20 -20 -20 -20 -20 -20 -20 -20 -20 -20

GFSGL_prec_radar_009.txt.gz
Reflectivity
-20 -20 -20 -20 -20 -20 -20 -20 -20 -20 -20 -20 -20 -20 -20 -20 -20 -20 -20 -20 -20 -20 -20 -20 -20 -20 -20 -20 -20 -20 -20 -20 -20 -20 -20 -20 -20 -20 -20 -20 -17 -7 -7
-20 -20 -20 -20 -20 -20 -20 -20 -20 -20 -20 -20 -20 -20 -20 -20 -20 -20 -20 -20 -20 -20 -20 -20 -20 -20 -20 -20 -20 -20 -20 -20 6 -20 -20 -20 -20 -20 -20 -20 -20 -20 -20
-20 -20 -20 -20 -20 -20 -20 -20 -20 -20 -20 -20 -20 -20 -20 -20 -20 -20 -20 -20 -20 -20 -20 -20 -20 -20 -18 -20 -20 -18 -20 -20 -20 -20 -20 -20 -20 -20 -20 -20 -20 -20 -20
-20 -20 -20 -20 -20 -20 -20 -20 -20 -20 -20 -20 -20 -20 -20 -20 -20 -20 -20 -20 -20 -20 -20 -20 -20 -20 -12 -9 -20 -20 -17 -15 -9 8 -20 -20 -20 -20 -20 -20 -20 -20 -19
-20 -20 -20 -20 -20 -20 -20 -20 -20 -20 -20 -20 -20 -20 -20 -20 -20 -20 -20 -20 -20 -20 -20 -20 -20 2 -12 0 -20 -20 -3 -5 -6 -15 -20 -20 -20 -20 -20 -20 -20 -20 -20
-20 -20 -20 -20 -20 -20 -20 -20 -20 -20 -20 -20 -20 -20 -20 -16 -20 -20 -20 -20 -20 -20 -20 -20 -20 21 -20 -1 -20 12 -3 -7 -20 -14 -20 -20 -20 -20 -20 -20 -20 -20 -20
-20 -20 -20 -20 -20 -20 -20 -20 -20 -20 -20 -17 -16 -20 -20 -20 -20 -20 -20 -20 -20 -20 -20 -20 -20 20 -20 10 -5 -13 -5 -20 -20 -20 -20 -20 -20 -20 -20 -20 -20 -20 -20
-20 -20 -20 -20 -20 -20 -20 -20 -20 -20 -20 -14 -9 -20 -20 -19 -11 29 -20 -20 -20 -20 -20 -1 14 -19 1 11 -7 -20 1 -8 -20 -20 -20 -20 -20 -20 -20 -20 -20 -20 -20
-20 -20 -20 -20 -20 -20 -20 -20 -20 -20 -9 20 33 -14 7 3 22 2 -19 -20 -20 -18 8 5 -0 -20 18 29 -20 -20 -19 -20 -20 -20 20 11 -20 -20 -20 -20 -20 -20 -20
-20 -20 -20 -20 -20 -20 -20 -20 -20 16 32 22 1 21 18 -14 15 2 -20 -20 7 -11 -20 -20 -8 4 20 18 -1 11 -20 -16 -20 -20 -20 -20 -20 -20 -20 -20 -5 3 -20
-20 -20 -20 -20 -20 -20 -20 -20 9 -13 -20 -20 3 -7 -20 21 -10 -14 -19 -20 -20 -20 -20 -20 -20 -20 21 -0 23 4 -20 -20 -20 -20 -20 -20 -20 -20 -20 -20 -20 -20 -20
-20 -20 -20 -20 -20 -20 -20 -12 -7 -20 -20 -17 -13 -15 -20 -20 2 -20 -20 -20 -20 -20 -20 -20 -20 -20 7 27 7 -20 -20 -20 -20 -20 -20 -20 -20 -20 -20 -20 -20 -20 -20
-20 -20 -20 -20 -20 -20 16 -17 -20 -9 -19 -20 -20 -7 -20 -20 -20 -20 -20 -20 -4 -20 -20 -20 8 20 -20 -20 -20 -20 -20 -20 -20 -20 -20 -20 -20 -20 -20 -20 -20 -20 -20
-20 -20 -20 -7 -20 -19 -20 -20 -20 -20 -20 -20 -20 -20 -20 -20 -20 -20 -20 -19 1 -1 -20 -20 -20 9 -20 -20 -20 -20 -20 -20 -20 -20 -20 -20 -20 -20 -20 -20 -20 -20 -20
-19 15 21 21 -20 -20 -20 -20 -20 -20 -14 -20 -20 -20 -20 -20 -20 -20 -20 -20 -20 -20 -20 -20 -20 -20 -20 -20 -20 -20 -20 -20 -20 -20 -20 -20 -20 -20 -20 -20 -20 -20 -20
-20 -11 16 -9 -19 -20 -20 -9 -20 -20 -20 -14 -17 -20 -16 -19 -8 -20 -20 -20 -20 -20 -20 -20 -20 -20 -20 -20 -20 -20 -20 -20 -20 -20 -20 -20 -20 -20 -20 -20 -20 -20 -20
-16 -20 -12 -7 -20 -20 -4 -20 -20 -16 -20 -20 -20 -20 -20 -20 -20 -20 -20 -20 -20 -20 -20 -20 -20 -20 -20 -20 -20 -20 -20 -20 -20 -20 -20 -20 -20 -20 -20 -20 -20 -20 -20
-20 -20 -12 -19 -20 -20 -20 4 -11 -20 6 -17 -5 -20 -20 -20 -20 -20 -20 -20 -20 -20 -20 -20 -20 -20 -20 -20 -20 -20 -20 -20 -20 -20 -20 -20 -20 -20 -20 -20 -20 -20 -20
-20 -20 -20 -20 -19 17 -20 -11 9 31 27 -7 -20 -20 -20 -20 -20 -20 -20 -20 -20 -20 -20 -20 -20 -20 -20 -20 -20 -20 -20 -20 -20 -20 -20 -20 -20 -20 -20 -20 -20 -20 -20
-20 -15 -20 11 35 15 -1 12 14 21 -10 -19 -20 -20 -20 -20 -20 -20 -20 -20 -20 -20 -20 -20 -20 -20 -20 -20 -20 -20 -20 -20 -20 -20 -20 -20 -20 -20 -20 -20 -20 -20 -20
32 -4 24 33 32 29 -14 0 11 -19 -20 -20 -20 -20 -20 -20 -20 -20 -20 -20 -20 -20 -20 -20 -20 -20 -20 -20 -20 -20 -20 -20 -20 -20 -20 -20 -20 -20 -20 -20 -20 -20 -20
26 22 18 23 24 17 12 24 -17 -20 -20 -20 -20 -20 -20 -20 -20 -20 -20 -20 -20 -20 -20 -20 -20 -20 -20 -20 -20 -20 -20 -20 -20 -20 -20 -20 -20 -20 -20 -20 -20 -20 -20
23 -5 -0 -2 24 -11 -7 -16 -20 -20 -20 -20 -20 -20 -20 -20 -20 -20 -20 -20 -20 -20 -11 -9 -19 -20 -20 -20 -20 -20 -20 -20 -20 -20 -20 -20 -20 -20 -20 -20 -20 -20 -20
15 30 35 30 20 15 18 4 -19 -20 -20 -20 -20 -20 -19 -20 -20 -20 -20 -20 -20 -20 -20 -20 -19 -18 -20 -20 -20 -20 -20 -20 -20 -20 -20 -20 -20 -20 -20 -20 -20 -20 -20
9 24 40 34 23 -0 -12 -12 -20 -20 -17 -5 -20 -20 -20 -20 -20 -20 -20 -20 -20 -20 -20 -20 -20 -20 -20 -20 -20 -20 -20 -20 -20 -20 -20 -20 -20 -20 -20 -20 -20 -20 -20
13 1 14 5 -2 20 9 -20 -14 -20 -13 -14 -20 -20 -20 -6 -20 -20 -20 -20 -20 -20 -20 -20 -20 -20 -20 -20 -20 -20 -20 -20 -20 -20 -20 -20 -20 -20 -20 -20 -20 -20 -20

GFSGL_prec_radar_012.txt.gz
Reflectivity
-20 -20 -20 -20 -20 -20 -20 -20 -20 -20 -20 -20 -20 -20 -20 -20 -20 -20 -20 -20 -20 -20 -20 -20 -20 -20 -20 -20 -20 -20 -20 -20 -20 -20 -20 -20 -20 -20 -20 -20 -20 -20 -20
-20 -20 -20 -20 -20 -20 -20 -20 -20 -20 -20 -20 -20 -20 -20 -20 -20 -20 -20 -20 -20 -20 -20 -20 -20 -20 -20 -20 -20 -20 -20 -20 -20 -20 -20 -20 -20 -20 -20 -20 -20 -20 -20
-20 -20 -20 -20 -20 -20 -20 -20 -20 -20 -20 -20 -20 -20 -12 -20 -20 -20 -20 -20 -20 -20 -20 -20 -20 -20 -20 -20 -18 -20 -20 -20 -20 -8 -20 -20 -18 -20 -20 -20 -20 -20 -20
-20 -20 -20 -20 -20 -20 -20 -20 -20 -20 -20 -20 -20 -20 -20 -20 -11 -20 -20 -20 -20 -20 -20 -20 -20 -20 -20 -20 2 -20 -20 -20 -18 -5 -1 5 -7 -20 -20 -20 -20 -20 -20
-20 -20 -20 -20 -20 -20 -20 -20 -20 -20 -20 -20 -20 -20 -20 -20 -20 11 -20 25 3 -20 -20 -20 -20 -20 -20 -20 -10 -20 -20 -20 -14 -17 -19 -14 -20 -20 -20 -20 -20 -20 -20
-20 -20 -20 -20 -20 -20 -20 -20 -20 -20 -20 -20 -20 -20 -20 -20 -13 -11 -10 -17 33 -17 -20 -20 -20 -20 -20 -20 3 -20 -20 -20 -20 -19 -20 -20 -20 -20 -20 -20 -20 -20 -20
-20 -20 -20 -20 -20 -20 -20 -20 -20 -20 -20 -20 -20 -20 -20 8 -11 -1 19 -20 -20 -20 -20 -20 -20 -20 -20 -20 -20 6 -20 -19 -20 23 -20 -20 -20 -20 -20 -20 -20 -20 -20
-20 -20 -20 -20 -20 -20 -20 -20 -20 -20 -20 -20 -20 -20 -8 42 31 5 3 -12 18 -9 -19 -20 -20 -20 -20 -20 0 -20 3 10 -20 -10 -6 -17 -20 -20 -20 -20 -20 -20 -20
-20 -20 -20 -20 -20 -20 -20 -20 -20 -20 -20 -20 -20 -20 -1 39 37 23 16 4 -7 -20 -20 -20 -20 -1 23 22 24 13 -20 -7 1 -20 -20 -16 17 -12 -20 -20 -20 -20 -20
-20 -20 -20 -20 -20 -20 -20 -20 -20 -20 -20 -20 -20 -13 -19 -20 17 22 9 -20 -20 -20 -20 -20 15 -14 -20 -20 -19 -20 -20 -19 22 -14 13 -20 -20 -20 -20 -20 -20 -20 -20
-20 -20 -20 -20 -20 -20 -20 -20 -20 -20 -20 -20 -17 16 -3 -20 -10 10 -20 -20 -20 -20 -20 -16 -16 -3 -5 -20 3 25 24 10 -20 -20 -20 -20 -20 -20 -20 -20 -20 -20 -20
-20 -20 -20 -20 -20 -20 -20 -20 -20 -20 -20 -20 9 -8 -20 -15 -14 -20 -20 -20 -20 -20 -20 -20 -20 -18 10 -20 -20 -6 -20 -20 -20 -20 -20 -20 -20 -20 -20 -20 -20 -20 -20
-20 -20 -20 -20 -20 -20 -20 -20 -20 -20 -20 -4 -12 -19 -20 -20 -20 -20 -20 -20 3 -11 -20 -11 8 12 8 -20 -20 -20 -20 -20 -20 -20 -20 -20 -20 -20 -20 -20 -20 -20 -20
-20 -20 -20 -20 -20 -20 -20 -19 -20 -17 -7 40 -15 -19 -20 -20 -20 -20 -20 -20 -19 -6 -20 -13 -20 -20 -20 -20 -20 -20 -20 -20 -20 -20 -20 -20 -20 -20 -20 -20 -20 -20 -20
-6 -10 -20 -20 -15 -20 -20 30 12 37 30 22 -13 -20 -20 -20 -20 -20 -20 -20 -20 -20 -20 -20 -20 -20 -20 -20 -20 -20 -20 -20 -20 -20 -20 -20 -20 -20 -20 -20 -20 -20 -20
-0 5 8 -20 -2 31 20 36 38 37 11 13 10 -20 -16 1 13 11 12 15 14 -20 -20 -20 -20 -20 -20 -20 -20 -20 -20 -20 -20 -20 -20 -20 -20 -20 -20 -20 -20 -20 -20
-20 -14 -13 1 19 39 -0 42 41 21 1 -20 -19 14 -13 -18 12 12 12 12 -4 -20 -20 -20 -20 -20 -20 -20 -20 -20 -20 -20 -20 -20 -20 -20 -20 -20 -20 -20 -20 -20 -20
-4 24 40 3 -10 12 -13 -2 20 9 -8 -20 -20 -20 -20 -14 12 4 -11 -20 -20 -20 -20 -20 -20 -20 -20 -20 -20 -20 -20 -20 -20 -20 -20 -20 -20 -20 -20 -20 -20 -20 -20
-20 -10 15 7 -20 -20 -20 -20 -19 2 -19 -20 -19 -7 -16 27 15 -2 -20 -20 -20 -20 -20 -20 -20 -20 -20 -20 -20 -20 -20 -20 -20 -20 -20 -20 -20 -20 -20 -20 -20 -20 -20
17 40 -20 -20 -20 -20 -20 -20 -20 -20 -15 7 -8 -1 -15 -1 -20 -20 -20 -20 -20 -20 -20 -20 -20 -20 -20 -20 -20 -20 -20 -20 -20 -20 -20 -20 -20 -20 -20 -20 -20 -20 -20
-20 -20 -20 -20 -20 -20 -20 -20 -18 19 30 34 33 18 -19 -20 -20 -20 -20 -20 -20 -20 -20 -20 -20 -20 -20 -20 -20 -20 -20 -20 -20 -20 -20 -20 -20 -20 -20 -20 -20 -20 -20
-20 -5 -20 -17 35 -5 -2 -10 28 19 1 24 21 -10 -20 -20 -20 -20 -20 -20 -20 -20 -20 -20 -20 -20 -20 -20 -20 -20 -20 -20 -20 -20 -20 -20 -20 -20 -20 -20 -20 -20 -20
27 28 35 27 32 36 28 23 20 30 -9 -3 10 5 -5 -10 -20 -20 -20 -20 -20 -20 -20 -20 -20 -14 5 -20 -20 -20 -20 -20 -20 -20 -20 -20 -20 -20 -20 -20 -20 -20 -20
28 28 22 33 -4 10 15 10 28 20 -11 -20 -20 -20 -20 -20 -20 -20 -20 -20 -20 -20 -20 -20 -20 -20 -20 -20 -20 -20 -20 -20 -20 -20 -20 -20 -20 -20 -20 -20 -20 -20 -20
-15 -18 -20 24 -19 -4 15 21 24 7 -14 -18 -20 -20 -20 -20 -20 -20 -20 -20 -20 -20 -20 -20 -20 -20 -20 -20 -20 -20 -20 -20 -20 -20 -20 -20 -20 -20 -20 -20 -20 -20 -20
-20 -10 0 -1 4 14 11 10 -17 -20 -20 -20 -20 -16 -6 -20 -20 -20 -20 -20 -20 -20 -20 -20 -20 -20 -20 -20 -20 -20 -20 -20 -20 -20 -20 -20 -20 -20 -20 -20 -20 -20 -20

GFSGL_prec_radar_015.txt.gz
Reflectivity
-20 -20 -20 -20 -20 -20 -20 -20 -20 -20 -20 -20 -20 -20 -20 -20 -20 -20 -20 -20 -20 -20 -20 -20 -20 -20 -20 -20 -20 -20 -20 -20 -20 -20 -20 -20 -20 -20 -20 -20 -20 -20 -20
-20 -20 -20 -20 -20 -20 -20 -20 -20 -20 -20 -20 -20 -20 -20 -20 -20 -20 -20 -20 -20 -20 -20 -20 -20 -20 -20 -20 -20 -20 -20 -20 -20 -20 -20 -20 -20 -20 -20 -20 -20 -20 -20
-20 -20 -20 -20 -20 -20 -20 -20 -20 -20 -20 -20 -20 -20 -20 -20 -20 -20 -20 -20 -20 -20 -20 -20 -20 -20 -20 -20 -20 -20 -20 -20 -20 -20 -20 -20 -20 -20 -20 -19 -20 -20 -20
-20 -20 -20 -20 -20 -20 -20 -20 -20 -20 -20 -20 -20 -20 -20 -20 -20 -20 1 -15 -5 -13 28 -20 -20 -20 -20 -20 -20 -20 -20 -20 -20 -20 -20 14 -20 -20 11 -20 -20 -20 -20
-20 -20 -20 -20 -20 -20 -20 -20 -20 -20 -20 -20 -20 -20 -20 -20 -20 -20 -20 -6 11 14 5 -12 -20 -20 -20 -20 -20 -20 -20 -20 -20 -20 -20 -17 -20 -5 -20 -20 -20 -20 -20
-20 -20 -20 -20 -20 -20 -20 -20 -20 -20 -20 -20 -20 -20 -20 -20 -20 -20 -20 5 13 26 36 36 -20 -20 -20 -20 -20 -20 27 -20 15 -20 -20 -20 -20 -15 -20 -20 -20 -20 -20
-20 -20 -20 -20 -20 -20 -20 -20 -20 -20 -20 -20 -20 -20 -20 -20 -20 -20 -20 16 17 19 -2 3 19 -20 -20 -20 -20 22 -20 -9 -20 -20 -20 -20 -20 -19 -3 -20 -20 -20 -20
-20 -20 -20 -20 -20 -20 -20 -20 -20 -20 -20 -20 -20 -20 -20 -20 -20 -20 -20 -5 7 1 7 25 -20 -20 -20 -20 -20 -20 -20 -20 -20 -20 -20 -20 -18 -4 -20 -20 -20 -20 -20
-20 -20 -20 -20 -20 -20 -20 -20 -20 -20 -20 -20 -20 -20 -20 -20 -20 -20 -14 -20 1 8 29 -20 -20 -20 -20 -20 -20 -20 -20 -6 8 -13 -20 -20 -20 -20 -20 -20 -20 -20 -20
-20 -7 -20 -20 -20 -20 -20 -20 -20 -20 -20 -20 -20 -20 -20 -20 -12 -20 -7 -20 19 18 -17 -20 -20 -20 -18 5 -3 -20 -20 -20 -20 -20 -20 -20 -20 -20 -20 -20 -20 -20 -20
-20 14 -17 8 -20 -20 -20 -20 -20 -20 -20 -20 -20 -20 -20 -20 -20 -19 -20 -20 7 -16 -20 -20 -20 -11 5 -17 -20 -20 -20 -20 -20 -20 -20 -20 -20 -20 -20 -20 -20 -20 -20
-8 -16 12 -13 -20 6 -16 -20 -20 -20 -20 -20 -20 -20 -13 -12 -4 4 5 12 -16 -20 -20 -20 -20 -20 1 7 6 -9 -11 -20 -20 -20 -20 -20 -20 -20 -20 -20 -20 -20 -20
8 13 -9 16 -20 -15 2 0 -18 -20 10 19 1 -20 -16 -4 -4 4 -8 -9 -20 -20 -20 3 12 9 12 10 -9 -20 -20 -20 -20 -20 -20 -20 -20 -20 -20 -20 -20 -20 -20
-20 -20 -20 -20 -19 18 3 14 0 -18 -19 -4 -9 31 37 31 33 22 -3 -20 -20 -20 -4 -7 1 -6 -20 -20 -20 -20 -20 -20 -20 -20 -20 -20 -20 -20 -20 -20 -20 -20 -20
-20 -20 -20 -20 -15 -5 -9 -19 -17 -20 -9 35 4 24 34 24 27 24 -7 -20 -20 -20 -5 -20 -20 -20 -20 -20 -20 -20 -20 -20 -20 -20 -20 -20 -20 -20 -20 -20 -20 -20 -20
-20 -20 -20 -20 -20 -20 -20 6 24 31 37 37 33 40 33 38 24 10 9 8 3 -18 -15 -20 -16 -20 -20 -20 -20 -20 -20 -20 -20 -20 -20 -20 -20 -20 -20 -20 -20 -20 -20
-11 -6 -16 7 -16 -2 23 -16 18 1 14 34 37 22 31 25 12 9 10 10 -3 21 12 -16 -20 -20 -20 -20 -20 -20 -20 -20 -20 -20 -20 -20 -20 -20 -20 -20 -20 -20 -20
8 28 28 -5 12 18 17 36 33 34 28 39 41 20 14 10 10 6 7 10 14 -12 -20 -20 -20 -20 -20 -20 -20 -20 -20 -20 -20 -20 -20 -20 -20 -20 -20 -20 -20 -20 -20
34 24 30 41 47 33 29 49 42 21 0 19 19 8 8 7 8 9 -9 -20 -20 -20 -20 -20 -20 -20 -20 -20 -20 -20 -20 -20 -20 -20 -20 -20 -20 -20 -20 -20 -20 -20 -20
45 52 52 49 46 26 0 13 18 27 -9 -1 11 -6 -20 -3 -11 7 -15 -8 -11 -6 -20 -20 -20 -20 -20 -20 -20 -20 -20 -20 -20 -20 -20 -20 -20 -20 -20 -20 -20 -20 -20
36 35 34 34 17 5 -20 -20 -19 -20 -20 -20 -3 16 8 23 -20 -20 -19 7 11 -19 -20 -20 -20 -20 -20 -20 -20 -20 -20 -20 -20 -20 -20 -20 -20 -20 -20 -20 -20 -20 -20
28 7 15 34 2 -17 -20 -6 -6 11 24 -3 19 9 -6 24 16 16 -8 -20 -20 -20 -20 -20 -20 -20 -20 -20 -20 -20 -20 -20 -20 -20 -20 -20 -20 -20 -20 -20 -20 -20 -20
-16 -12 -19 -20 2 13 2 3 -13 10 29 23 23 2 -19 -20 -20 -20 -20 -20 -20 -20 -20 -20 -20 -20 -20 -20 -15 0 -20 -20 -20 -20 -20 -20 -20 -20 -20 -20 -20 -20 -20
7 -20 -20 -20 -20 -11 1 3 11 25 25 19 16 4 6 -18 -20 -20 -20 -20 -20 -20 -20 -20 -20 -20 -20 -20 -20 -20 -20 -20 -20 -20 -20 -20 -20 -20 -20 -20 -20 -20 -20
-9 -17 -19 -20 -20 -20 -20 -20 20 4 -4 26 26 15 -20 -20 -20 -20 -20 -20 -20 -20 -20 -20 -20 -20 -20 -20 -20 -20 -20 -20 -20 -20 -20 -20 -20 -20 -20 -20 -20 -20 -20
-12 -14 -15 -20 -20 -20 -20 5 11 25 30 27 20 23 -4 -7 -17 -20 -20 -20 -20 -20 -20 -20 -20 -20 -20 -20 -20 -20 -20 -20 -20 -20 -20 -20 -20 -20 -20 -20 -20 -20 -20

GFSGL_prec_radar_021.txt.gz
Reflectivity
-20 -20 -20 -20 -20 -20 -20 -20 -20 -20 -20 -20 -20 -20 -20 -20 -20 -20 -20 -20 -20 -20 -20 -20 -20 -20 -20 -20 -20 -20 -20 -20 -20 -20 -20 -20 -20 -20 -20 -20 -20 -20 -20
-20 -20 -20 -20 -20 -20 -20 -20 -20 -20 -20 -20 -20 -20 -20 -20 -20 -20 -20 -20 -20 -20 -20 -20 -20 -20 -20 -20 -20 -20 -20 -20 -20 -20 -20 -20 -20 -20 -20 -20 -20 -20 -20
-20 -20 -20 -20 -20 -20 -20 -20 -20 -20 -20 -20 -20 -20 -20 -20 -20 -20 -20 -20 -20 -20 -20 -20 10 -15 -20 -20 -20 -20 -20 -20 -20 -20 -20 -20 -20 -20 -20 -20 -20 -20 -20
-20 -20 -20 -20 -20 -20 -20 -20 -20 -20 -20 -20 -20 -20 -20 -20 -20 -20 -20 -20 -20 -20 -20 -20 -20 -20 -20 -20 -20 -20 -20 -20 -20 -20 -20 -20 -20 -20 -20 -20 -20 -20 -20
-20 -20 -20 -20 -20 -20 -20 -20 -20 -20 -20 -20 -20 -20 -20 -20 -20 -20 -20 -20 -20 -20 -20 -20 -20 -20 -20 -20 -20 -20 -20 -20 -20 -20 -20 -20 -20 -20 -20 -20 -20 -20 -20
-20 -20 -20 -20 -20 -20 -20 -20 -20 -20 -20 -20 -20 -20 -20 -20 -20 -20 -20 -20 -20 -20 -20 -20 -20 -20 -20 -20 -20 -20 -20 -20 -20 -20 -20 -20 -20 -20 -20 -20 -20 -20 -20
-20 8 -20 -20 -20 -20 -20 -20 -20 -20 -20 -20 -20 -20 -20 -20 -20 -20 -20 -20 -20 -20 -20 -20 -20 -20 -20 -20 -20 -20 -20 -20 -20 -20 -20 -20 -20 -20 -20 -20 -20 -20 -20
-20 -14 -20 -20 -20 -20 -20 -20 -20 -20 -20 -20 -20 -20 -20 -20 -20 -20 -20 -20 -20 -20 -20 -20 -20 -20 -20 -20 -20 -20 -20 -20 -20 -20 -20 -20 -20 -20 -20 -20 -14 -20 -20
-20 -20 -20 -20 -20 -20 -20 -20 -20 -20 -20 -20 -20 -20 -20 -20 -20 -20 -20 -20 -20 -20 -20 -20 -20 -20 -15 -20 -20 -20 -20 -20 -5 -20 -20 -20 -20 -20 -20 -20 -20 -20 -20
-20 -20 -20 -20 -20 -20 -20 -20 -20 -20 -20 -20 -20 -20 -20 -20 -20 -20 -20 -20 -20 -19 -4 -19 -20 -18 -8 -9 -20 -3 -20 -20 -20 -20 -20 -20 -13 3 -6 -20 -20 -20 -20
-20 -20 -20 -20 -20 -20 -20 -20 -14 -2 -18 -12 -20 -20 -20 -20 -19 -20 -20 -20 -20 -20 -20 -12 -5 -7 -17 4 -14 1 -20 -20 -20 -20 -20 -20 -20 -20 -20 -20 -20 -20 -20
-20 -20 -20 -20 -20 -20 -20 -20 -5 -0 -4 3 6 -1 -8 -1 -9 -9 -19 -20 -20 -20 -20 -15 3 -1 9 9 -13 -20 -20 -20 -20 -20 -20 -20 -20 -20 -20 -20 -20 -20 -20
-20 -20 -20 -20 -20 -20 -20 -9 6 8 -2 1 6 -20 -15 4 8 -2 16 15 -17 -19 -20 -2 12 26 30 12 15 -20 -20 -20 -20 -20 -20 -20 -20 -20 -20 -20 -20 -20 -20
-20 -20 -20 -20 -20 -20 -20 -20 4 1 3 2 -16 4 -20 -0 21 -9 7 -19 12 8 11 32 33 33 31 26 14 -14 -20 -20 -20 -20 -20 -20 -20 -20 -20 -20 -20 -20 -20
-20 -20 -20 -20 -20 -20 -20 -20 -20 -20 -20 -20 -3 3 3 -20 4 24 11 23 26 13 19 41 43 48 36 22 6 -10 -20 -20 -20 -20 -20 -20 -20 -20 -20 -20 -20 -20 -20
-20 -20 -20 -20 -20 -20 -20 -19 5 8 -1 -20 -0 -20 -17 3 15 12 19 35 26 17 23 29 35 36 34 20 5 -11 -20 -20 -20 -20 -20 -20 -20 -20 -20 -20 -20 -20 -20
-20 -20 -20 -3 -20 -20 -14 13 -20 -19 4 12 15 20 8 18 12 21 35 33 28 21 35 39 25 17 13 0 10 8 4 -20 -20 -20 -20 -20 -20 -20 -20 -20 -20 -20 -20
-20 9 1 -20 -20 -20 3 14 18 7 -12 15 25 10 12 14 31 24 35 31 24 27 33 32 25 24 5 -17 -19 -20 -20 -20 -20 -20 -20 -20 -20 -20 -20 -20 -20 -20 -20
-20 -8 -6 -20 -20 -20 -20 -20 -19 17 28 5 30 28 28 32 30 20 20 12 14 33 34 9 20 0 -5 -20 -20 -20 -20 -20 -20 -20 -20 -20 -20 -20 -20 -20 -20 -20 -20
-12 10 -15 -20 -20 -20 -20 -20 -20 -20 7 41 45 26 19 10 14 12 5 6 -1 30 27 28 1 -14 -20 -20 -20 -20 -20 -20 -20 -20 -20 -20 -20 -20 -20 -20 -20 -20 -20
-20 -15 -5 2 10 -4 -20 -20 -20 -20 23 42 52 50 44 39 25 5 -2 4 5 32 25 15 1 -11 -20 -20 -20 -20 -20 -20 -20 -20 -20 -20 -20 -20 -20 -20 -20 -20 -20
-2 -7 -15 -6 -0 -4 -6 -20 -20 -8 15 34 43 39 33 26 14 1 16 23 26 17 -4 -18 -10 -20 -20 -20 -20 -20 -20 -20 -20 -20 -20 -20 -20 -20 -20 -20 -20 -20 -20
-13 -15 -20 -7 15 13 5 3 3 1 6 8 15 19 30 -3 3 5 15 -2 19 19 18 16 -20 -20 -20 -20 -20 -20 -20 -20 -20 -20 -20 -20 -20 -20 -20 -20 -20 -20 -20
-20 -20 -18 -17 -16 -1 8 0 -13 10 7 17 21 23 27 27 10 -13 -1 -0 1 13 20 5 -19 -20 -20 -20 -20 -20 -20 -20 -20 -20 -20 -20 -20 -20 -20 -20 -20 -20 -20
-20 -20 -20 -20 -20 -20 -20 -20 -20 -18 -17 -10 -20 5 28 15 17 20 17 20 21 16 -18 -20 -20 -20 -20 -20 -20 -20 -20 -20 -20 -20 -20 -20 -20 -20 -20 -20 -20 -20 -20
-20 -11 -9 -14 -19 -20 -19 -20 -11 -6 8 18 -1 -18 -18 -20 -20 -20 -20 -20 23 -20 -20 -20 -20 -20 -20 -20 -20 -20 -20 -20 -20 -20 -20 -20 -20 -20 -20 -20 -20 -20 -20

GFSGL_prec_radar_024.txt.gz
Reflectivity
-20 -20 -20 -20 -20 -20 -20 -20 -20 -20 -20 -20 -20 -20 -20 -20 -20 -20 -20 -20 -20 -20 -20 -20 -20 -20 -20 -20 -20 -20 -20 -20 -20 -20 -20 -20 -20 -20 -20 -20 -20 -20 -20
-20 -20 -20 -20 -20 -20 -20 -20 -20 -20 -20 -20 -20 -20 -20 -20 -20 -20 -20 -20 -20 -20 -20 -20 -20 -20 -20 -20 -20 -20 -20 -20 -20 -20 -20 -20 -20 -20 -20 -20 -20 -20 -20
-20 -20 -20 -20 -20 -20 -20 -20 -20 -20 -20 -20 -20 -20 -20 -20 -20 -20 -20 -20 -20 -20 -20 -20 -20 -20 -20 -20 -20 -20 -20 -20 -20 -20 -20 -20 -20 -20 -20 -20 -20 -20 -20
-20 -20 -20 -20 -20 -20 -20 -20 -20 -20 -20 -20 -20 -20 -20 -20 -20 -20 -20 -20 -20 -20 -20 -20 -20 -20 -20 -20 -20 -20 -20 -20 -20 -20 -20 -20 -20 -20 -20 -20 -20 -20 -20
-20 -20 -20 -20 -20 -20 -20 -20 -20 -20 -20 -20 -20 -20 -20 -20 -20 -20 -20 -20 -20 -20 -20 -20 -20 -20 -20 -20 -20 -20 -20 -20 -20 -20 -20 -20 -20 -20 -20 -20 -20 -20 -20
-20 -20 -20 -20 -20 -20 -20 -20 -20 -20 -20 -20 -20 -20 -20 -20 -20 -20 -20 -20 -20 -20 -20 -20 -20 -20 -20 -20 -20 -20 -20 -20 -20 -20 -20 -20 -20 -20 -20 -20 -20 -20 -20
-20 -20 -20 -20 -20 -20 -20 -20 -20 -20 -20 -20 -20 -20 -20 -20 -20 -20 -20 -20 -20 -20 -20 -20 -20 -20 -20 -20 -20 -15 -20 -20 -20 -20 -17 -20 -20 5 -16 10 -20 -20 -20
-20 -20 -20 -20 -12 -20 -20 -20 -20 -20 -20 -20 -20 -20 -20 -20 -20 -20 -20 -20 -20 -20 -20 -20 -20 -20 -20 -20 -20 -17 14 -16 -20 -20 -20 -20 15 -20 19 -20 -20 -20 -20
-20 -20 -20 -20 -20 -20 -20 -20 -20 -20 -7 -20 -20 -20 -20 -20 -20 -20 -20 -20 -20 -20 -20 -20 -20 -20 -20 -20 -20 -20 27 -17 21 -20 -20 -20 -20 -20 -20 -20 -12 -20 -20
-20 -20 -20 -20 -20 -20 -20 -20 -20 -20 -20 -20 -20 -20 -20 -20 -20 -20 -20 -20 -20 -20 -20 -19 -20 -20 -20 -20 -20 -11 10 -17 -1 -12 -20 3 1 -13 -20 -20 -20 -20 -20
-20 -20 -20 -20 -20 -20 -20 -20 -20 -20 -20 -10 -20 -20 -20 -20 -20 -20 -20 -20 -20 -20 -20 -20 3 -20 -20 -20 -20 -10 12 6 13 16 -20 -20 -20 -20 -20 -20 -20 -20 -20
-20 -20 -20 -20 -20 -20 -20 -20 -20 -12 5 -3 4 -14 -20 -20 -20 -13 -20 -20 -20 -20 -20 -20 -20 -16 -20 -18 -18 -15 7 27 14 -7 -1 -20 -20 -20 -20 -20 -20 -20 -20
-20 -20 -20 -20 -20 -20 -20 -15 -2 8 -15 -3 -19 -20 -20 -20 -20 -20 -20 -20 -20 -20 -20 -20 -20 2 -11 -12 1 7 30 27 1 17 11 11 -20 -20 -20 -20 -20 -20 -20
-20 -20 -20 -20 -20 -20 -20 -20 -20 -20 -4 -20 -20 -20 -20 -20 -20 -20 -20 -20 -13 7 -19 -20 -3 -17 -20 -17 -9 -1 23 29 26 23 1 -10 -14 -20 -20 -20 -20 -20 -20
-20 -20 -20 -20 -20 -20 -20 -20 -20 -20 -20 -20 -20 -20 -18 -20 -20 -6 -7 29 -17 4 4 -19 0 -8 -10 -1 -6 13 15 27 33 17 15 -9 -10 -16 -20 -20 -20 -20 -20
-20 -20 -20 -20 -20 -20 -20 -20 -1 -7 -14 -1 -1 -20 -20 -20 3 12 12 11 7 19 17 38 37 7 20 19 25 26 34 21 23 6 -11 -12 -20 -20 -20 -20 -20 -20 -20
-20 -20 -20 -3 -20 -20 -20 -20 -20 7 1 5 -3 8 -13 -8 9 12 12 10 -16 -5 6 33 5 33 40 28 41 28 22 10 1 -20 -20 -20 -20 -20 -20 -20 -20 -20 -20
-20 1 -20 -20 -20 -20 -20 -20 -20 -20 -20 -17 -2 8 10 22 25 14 16 19 14 10 11 12 23 27 22 20 26 19 10 -3 -20 -20 -20 -20 -20 -20 -20 -20 -20 -20 -20
-20 -20 -20 -20 -19 -20 -20 -20 -20 -20 -20 -20 -20 4 -5 20 22 23 22 29 33 23 22 28 28 25 30 26 8 -4 11 3 -4 -5 -19 -20 -20 -20 -20 -20 -20 -20 -20
-19 -10 -14 -20 -20 -19 -20 -20 -20 -20 -8 5 -17 -8 -20 -20 2 26 38 30 37 31 29 28 -0 17 17 6 -17 -2 12 -10 -20 -20 -20 -20 -20 -20 -20 -20 -20 -20 -20
-20 -10 -20 -15 -1 6 1 -20 -19 -19 -20 2 5 -20 -9 -20 11 32 41 48 51 42 34 25 9 2 1 -20 -3 10 2 -15 -20 -20 -20 -20 -20 -20 -20 -20 -20 -20 -20
-13 -20 -15 4 -7 -6 3 4 4 4 10 -11 -13 -20 -5 2 -16 25 36 46 47 38 32 28 22 5 -4 18 3 20 -7 -4 -20 -20 -20 -20 -20 -20 -20 -20 -20 -20 -20
-20 -20 -18 6 3 -3 -4 -5 -2 -1 -8 -20 -17 -20 2 2 9 13 21 23 27 21 19 2 25 19 23 15 27 6 -9 -20 -20 -20 -20 -20 -20 -20 -20 -20 -20 -20 -20
-20 -20 -20 -18 -17 2 2 5 -7 -18 -18 -17 -19 2 -1 12 25 22 16 15 24 17 -17 -4 12 -8 -7 6 -1 -20 -20 -20 -20 -20 -20 -20 -20 -20 -20 -20 -20 -20 -20
-20 -20 -20 -19 -3 2 2 1 3 -1 -2 -8 -0 -8 -20 -14 12 22 22 21 16 1 13 16 13 11 19 9 -19 -20 -20 -20 -20 -20 -20 -20 -20 -20 -20 -20 -20 -20 -20
-20 -20 -20 -20 -20 -20 -20 -17 -15 -15 -20 -20 -18 -15 6 3 -4 7 -15 8 3 13 9 15 10 -18 -20 -20 -20 -20 -20 -20 -20 -20 -20 -20 -20 -20 -20 -20 -20 -20 -20

GFSGL_prec_radar_027.txt.gz
Reflectivity
-20 -20 -20 -20 -20 -20 -20 -20 -20 -20 -20 -20 -20 -20 -20 -20 -20 -20 -20 -20 -20 -20 -20 -20 -20 -20 -20 -20 -20 -20 -20 -20 -20 -20 -20 -20 -20 -20 -20 -20 -20 -20 -20
-20 -20 -20 -20 -20 -20 -20 -20 -20 -20 -20 -20 -20 -20 -20 -20 -20 -20 -20 -20 -20 -20 -20 -20 -20 -20 -20 -20 -20 -20 -20 -20 -20 -20 -20 -20 -20 -20 -20 -20 -20 -20 -20
-20 -20 -20 -20 -20 -20 -20 -20 -20 -20 -20 -20 -20 -20 -20 -20 -20 -20 -20 -20 -20 -20 -20 -20 -20 -20 -20 -20 -20 -20 -20 -20 -20 -20 -20 -20 -20 -20 -20 -20 -3 -20 -20
-20 -20 -20 -20 -20 -20 -20 -20 -20 -20 -20 -20 -20 -20 -20 -20 -20 -20 -20 -20 -20 -20 -20 -20 -20 -20 -20 -20 -20 -20 -20 -20 -20 -20 -20 -20 -20 -20 -20 -20 -20 -20 -20
-20 -20 -20 -20 -20 -20 -20 -20 -20 -20 -20 -20 -20 -20 -20 -20 -20 -20 -20 -20 -20 -20 -20 -20 -20 -20 -20 -20 -20 -20 -20 -20 -20 -20 -20 -20 -20 -20 -20 -20 -20 -20 -7
-20 -20 -20 -20 -20 -20 -20 -20 -20 -20 -20 -20 -20 -20 -20 -20 -20 -20 -20 -20 -20 -20 -20 -20 -20 -20 -20 -20 -20 -20 -20 -20 -20 -20 -20 -20 -20 -20 -20 -20 -20 -20 -20
-20 -20 -20 -20 -20 -20 -20 -20 -20 -20 -20 -20 -20 -20 -20 -20 -20 -20 -20 -20 -20 -20 -20 -20 -20 -20 -20 -20 -20 -20 -20 -20 -20 -20 -20 -20 -20 -20 -20 -20 0 -11 -20
-20 -20 -20 -20 -20 -20 -20 -20 -20 -20 -20 -20 -20 -20 -20 -20 -20 -20 -20 -20 -20 -20 -20 -20 -20 -20 -20 -20 -20 -20 -20 -20 -20 -20 -11 -13 -20 -20 -20 -20 -20 -20 -9
-20 -20 -20 -20 -20 -20 -20 -20 -20 -20 -20 -20 -20 -20 -20 -20 -20 -20 -20 -20 -20 -20 -20 -20 -20 -20 -20 -20 -20 -20 -20 -20 -20 -20 -1 -6 -20 -20 -20 -20 -20 -20 -20
-20 -20 -20 -20 -20 -20 -20 -20 -20 -20 -20 -20 -20 -20 -20 -20 -20 -20 -20 -20 -20 -20 -20 -20 -20 -20 -20 -20 -20 -20 -4 -17 -17 4 -18 -1 2 -5 -13 -20 -20 10 8
-20 -20 -20 -20 -20 -20 -20 -20 -20 -6 -18 -7 -20 -20 -12 -20 -20 -20 -20 -20 -20 -20 -20 -20 -20 -20 -20 -20 -20 -16 -9 -14 -19 -11 5 7 19 16 -5 -20 -20 -20 -18
-20 -20 -20 -20 -20 -20 -20 -20 -3 2 2 -20 2 -20 -20 -20 -20 -20 -20 -20 -20 -20 -20 -20 -20 -20 -20 -4 -17 -19 -20 -20 -3 -20 -10 -20 25 11 11 7 -3 -20 -20
-20 -20 -20 -20 -20 -20 -20 -20 -16 6 -18 -18 -19 -20 -20 -20 -20 -20 -20 -20 -20 -20 -20 -20 -20 -20 -20 -20 -20 -20 -20 -13 4 -16 -20 -4 4 14 4 12 -12 -18 -20
-20 -20 -20 -20 -20 -20 -20 -20 -20 -20 -20 -20 -20 -20 -20 -20 -20 -20 -20 -20 -20 -8 -20 -17 -20 -20 -10 13 0 -5 30 -15 -4 -20 4 1 -9 10 22 33 -17 -20 -20
-20 -20 -20 -20 -20 -20 -20 -20 -20 -20 -20 -20 -20 -20 -20 -20 -20 -20 -20 -20 -20 -20 -3 12 -12 36 -20 -17 -14 18 33 27 23 24 17 14 22 26 19 8 -20 -20 -20
-20 -20 -20 -20 -20 -20 -20 -20 -20 -20 -19 8 10 1 -20 -19 -14 -12 -11 -20 -20 -1 -20 -20 -19 -4 18 10 25 29 21 35 38 28 37 32 20 13 -12 -19 -20 -20 -20
-20 -20 -20 -20 -20 -20 -20 -20 -20 4 11 12 12 11 8 15 10 8 9 12 13 19 12 11 5 3 -20 -8 -8 33 28 31 30 34 32 10 6 -20 -13 -20 -20 -20 -20
-20 -1 -20 -20 -20 -20 -20 -20 -20 -20 -20 -20 -7 11 2 3 3 5 9 14 13 8 7 10 13 13 -5 9 0 34 33 25 28 39 22 7 -20 -20 -20 -20 -20 -20 -20
-20 -20 -20 -20 -20 -16 -20 -20 -20 -20 -20 -20 -20 -10 -20 6 -20 -16 -2 -7 -11 5 10 29 32 28 24 21 29 28 29 22 29 29 12 2 -20 -20 -20 -20 -20 -20 -20
-20 -20 -20 -20 -20 -20 -20 -20 -20 -20 -20 -20 -20 -20 -20 -16 -20 -20 -16 -20 12 23 5 24 38 42 39 20 34 32 30 17 27 25 -16 -20 -20 -20 -20 -14 -20 -20 -20
-20 -20 -20 -20 -20 -20 -20 -20 -20 -20 -20 -20 -20 -5 12 -20 7 -9 7 -20 -2 -19 -14 8 30 37 48 51 50 42 32 28 15 17 -19 -20 -18 -4 -20 -20 -20 -20 -20
-20 -20 -20 -20 -20 -18 -14 -7 -20 -20 -20 -20 -20 -10 7 -14 -2 -6 -1 -20 -20 -20 -20 -9 27 37 41 45 39 35 34 28 22 16 -2 -12 -5 -20 -20 -20 -20 -20 -20
-20 -20 -20 -17 -1 10 -11 -17 -9 -11 -3 -2 -4 5 3 -6 -6 -8 13 15 4 -20 -12 -16 16 30 31 33 32 33 30 23 20 9 -19 -13 -20 -20 -20 -20 -20 -20 -20
-20 -20 -20 -20 -20 -20 -20 -18 -20 -17 -17 -2 -17 -7 8 8 -13 -4 -15 8 20 -20 17 25 24 29 24 26 25 26 22 5 17 12 1 -20 -20 -20 -20 -20 -20 -20 -20
-20 -20 -20 -20 -20 -20 -20 -20 -19 -13 -20 -20 -20 -20 -20 -7 17 14 4 10 -7 -20 13 -12 16 6 24 0 9 8 -5 -4 23 6 -18 -20 -20 -20 -20 -20 -20 -20 -20
-20 -20 -20 -20 -20 -20 -17 -20 -20 -20 -20 -20 -20 -20 -20 -20 -18 -12 -0 -20 -10 -20 -20 -5 -1 10 13 15 26 26 13 27 26 -2 -13 -19 -20 -20 -20 -20 -20 -20 -20

GFSGL_prec_radar_030.txt.gz
Reflectivity
-20 -20 -20 -20 -20 -20 -20 -20 -20 -20 -20 -20 3 -20 -20 -20 -20 -20 -20 -20 -20 -20 -20 -20 -20 -20 -20 -20 -20 -20 -20 -20 -20 -20 -20 -20 -20 -20 -20 -20 -20 -20 -20
-20 -20 -20 -20 -20 -20 -20 -20 -20 -20 -20 -20 -20 -20 -20 -20 -20 -20 -20 -20 -20 -20 -20 -20 -20 -20 -20 -20 -20 -20 -20 -20 -20 -20 -20 -20 -20 -20 -20 -20 -20 -20 -20
-20 -20 -20 -20 -20 -20 -20 -20 -20 -20 -20 -20 -20 -20 -20 -20 -20 -20 -20 -20 -20 -20 -20 -20 -20 -20 -20 -20 -20 -20 -20 -20 -20 -20 -20 -20 -20 -20 -20 -20 -20 -20 -20
-20 -20 -20 -20 -20 -20 -20 -20 -20 -20 -20 -20 -20 -20 -20 -20 -20 -20 -20 -20 -20 -20 -20 -20 -20 -20 -20 -20 -20 -20 -20 -20 -20 -20 -20 -20 -20 -20 -20 -20 -20 -20 -20
-20 -20 -20 -20 -20 -20 -20 -20 -20 -20 -20 -20 -20 -20 -20 -20 -20 -20 -20 -20 -20 -20 -20 -20 -20 -20 -20 -20 -20 -20 -20 -20 -20 -20 -20 -20 -20 -20 -20 -20 -20 -20 -20
-20 -20 -20 -20 -20 -20 -20 -20 -20 -20 -20 -20 -20 -20 -20 -20 -20 -20 -20 -20 -20 -20 -20 -20 -20 -20 -20 -20 -20 -20 -20 -20 -20 -20 -20 -20 -20 -20 -20 -20 -20 -20 -20
-20 -20 -20 -20 -20 -20 -20 -20 -20 -20 -20 -20 -20 -20 -20 -20 -20 -20 -20 -20 -20 -20 -20 -20 -20 -20 -20 -20 -20 -20 -20 -20 -20 -20 -20 -20 -20 -20 -16 -20 -20 -20 -20
-20 -20 -20 -20 -20 -20 -20 -20 -20 -20 -20 -20 -20 -20 -20 -20 -20 -20 -20 -20 -20 -20 -20 -20 -20 -20 -20 -20 -20 -20 -20 -20 -20 -20 -20 -20 -20 -19 -19 -9 -20 -20 -20
-20 -20 -20 -20 -20 -20 -20 -20 -20 -20 -20 -20 -20 -20 -20 -20 -20 -20 -20 -20 -20 -20 -20 -20 -20 -20 -20 -20 -20 -20 -20 -20 -20 -20 -20 -20 -20 -20 -20 -20 -19 -6 12
-20 -20 -20 -20 -20 -20 -20 -20 -20 -20 -20 -18 -20 -20 -20 -20 -20 -20 -20 -20 -20 -20 -20 -20 -20 -20 -20 -20 -20 -20 -20 -20 -20 -20 -17 -20 -20 -20 -20 -20 -20 -20 -17
-20 -20 -20 -20 -20 -20 -20 -20 -20 -17 -10 -14 -17 -20 -20 -20 -20 -20 -20 4 -20 -20 -20 -20 -20 -20 -20 -20 -20 -20 -20 -11 -20 -20 -18 -20 -20 -16 2 7 -15 -17 -5
-20 -20 -20 -20 -20 -20 -20 -20 -20 -15 6 5 9 -12 -20 -20 -20 -20 -20 -20 0 7 -20 -20 -20 -20 -20 -20 -20 -20 -14 -18 -11 -20 -20 -20 -18 20 17 15 13 12 17
-20 -20 -20 -20 -20 -20 -20 -20 -7 -9 3 5 -2 -5 5 1 -18 -20 -20 -20 -20 13 3 -5 -20 -20 -20 -20 -20 -20 8 -2 9 0 -20 -20 17 17 6 28 20 10 22
-20 -20 -20 -20 -20 -20 -20 -17 -18 5 -16 7 4 8 4 -20 -20 -20 -20 -20 -20 -20 -20 -20 -20 -6 -20 -15 1 4 2 9 -9 -14 -8 5 -11 11 26 35 31 28 23
-20 -20 -20 -20 -20 -13 -11 -20 -2 -20 -20 -20 -10 -19 -9 -20 -19 -4 -5 -20 -20 -9 -10 8 8 5 6 -20 -20 -20 -20 9 10 8 7 7 -19 -9 15 28 35 17 21
-20 -20 -20 -20 -20 -20 -14 -20 -20 -8 12 10 4 21 -7 1 -1 4 11 11 -9 -20 -15 -19 -13 2 -20 -19 -20 -20 -20 11 12 21 15 17 3 7 25 34 38 27 19
-20 -20 -20 -20 -20 -10 -20 8 12 7 -15 -20 -17 -4 -1 10 1 3 5 8 10 1 -20 -20 -20 -20 -19 8 19 4 12 8 17 31 30 25 29 38 44 36 10 3 -20
-20 -20 -20 -20 -20 -20 -20 -20 -20 -20 -20 -20 -19 -20 -20 -19 8 8 4 -6 -14 -5 -20 7 6 2 14 12 14 12 10 24 28 30 26 12 25 38 37 29 26 15 2
-20 -20 -20 -20 -20 -20 -20 -20 -20 -20 -20 -20 -20 -20 -20 -20 11 6 5 -20 -20 -18 -6 -6 -20 -20 5 20 27 26 28 27 20 29 32 32 35 15 21 23 27 12 10
-20 -20 -20 -20 -20 -20 -20 -20 -20 -20 -20 -20 -20 -20 -20 -20 -20 -20 -20 -20 -20 -20 -20 -3 -12 -13 -14 -9 5 13 34 36 31 34 33 46 47 38 32 12 9 7 10
-20 -20 -20 -20 -20 -20 -20 -20 -20 -20 -20 -20 -20 -7 14 -20 -20 -20 -20 -20 -20 -20 -19 13 -20 -20 -20 -5 17 27 23 35 46 48 48 50 45 31 22 19 -9 2 8
-20 -20 -19 -10 -18 -20 1 3 -14 -20 -20 -20 -20 -20 0 2 10 -20 3 7 -14 -17 -20 -11 -20 -20 -20 -20 -15 -1 16 34 40 43 43 40 33 29 24 -0 -20 12 4
-20 -20 -20 -13 -3 5 -13 -10 -14 -16 -20 -20 -20 -16 -17 -20 -10 -1 14 13 7 -5 2 -13 4 4 2 16 17 -5 -20 6 20 32 31 24 23 14 -16 -16 -4 -7 -20
-20 -20 -20 -20 -20 -20 -20 -20 -20 -20 -20 -20 -18 -20 -20 -20 -20 -11 -9 -9 -15 -20 15 -18 -20 2 -20 -20 -20 -20 -18 -20 6 23 26 24 15 -4 8 21 -7 -20 -20
-20 -20 -20 -20 -20 -20 -20 -20 -20 -20 -20 -20 -20 -20 -20 -20 -20 -19 1 -20 4 1 -20 -6 -7 2 -3 8 19 15 20 16 -4 24 29 17 -10 -20 -20 -20 -20 -20 -20
-16 -18 -20 -20 -20 -20 -20 -20 -20 -20 -20 -20 -20 -20 -20 -20 -20 -20 -20 -13 1 -1 -20 -6 -19 -20 26 24 -4 -5 8 -12 2 16 9 19 17 25 28 16 -12 -20 -20

GFSGL_prec_radar_033.txt.gz
Reflectivity
-20 -20 -20 -20 -20 -20 -20 -20 -20 -20 -20 -20 -20 -20 -20 -20 -20 -20 -20 -20 -20 -20 -20 -20 -20 -20 -20 -20 -20 -20 -20 -20 -20 -20 -20 -20 -20 -20 -20 -20 -20 -20 -20
-20 -20 -20 -20 -20 -20 -20 -20 -20 -20 -20 -20 -20 -20 -20 -20 -20 -20 -20 -20 -20 -20 -20 -20 -20 -20 -20 -20 -20 -20 -20 -20 -20 -20 -20 -20 -20 -20 -20 -20 -20 -20 -20
-20 -20 -20 -20 -20 -20 -20 -20 -20 -20 -20 -20 -20 -20 -20 -20 -20 -20 -20 -20 -20 -20 -20 -20 -20 -20 -20 -20 -20 -20 -20 -20 -20 -20 -20 -20 -20 -20 -20 -20 -20 -20 -20
-20 -20 -20 -20 -20 -20 -20 -20 -20 -20 -20 -20 -20 -20 -20 -20 -20 -20 -20 -20 -20 -20 -20 -20 -20 -20 -20 -20 -20 -20 -20 -20 -20 -20 -20 -20 -20 -20 -20 -20 -20 -20 -20
-20 -20 -20 -20 -20 -20 -20 -20 -20 -20 -20 -20 -20 -20 -20 -20 -20 -20 -20 -20 -20 -20 -20 -20 -20 -20 -20 -20 -20 -20 -20 -20 -20 -20 -20 -20 -20 -20 -20 -20 -20 -20 -4
-20 -20 -20 -20 -20 -20 -20 -20 -20 -20 -20 -20 -20 -20 -20 -20 -20 -20 -20 -20 -20 -20 -20 -20 -20 -20 -20 -20 -20 -20 -20 -20 -20 -20 -20 -20 -20 -20 -20 -20 -20 -20 -20
-20 -20 -20 -20 -20 -20 -20 -20 -20 -20 -20 -20 -20 -20 -20 -20 -20 -20 -20 -20 -20 -20 -20 -20 -20 -20 -20 -20 -20 -20 -20 -20 -20 -20 -20 -20 -20 -20 -20 -20 -20 -20 -20
-20 -20 -20 -20 -20 -20 -20 -20 -20 -20 -20 -20 -20 -20 -20 -20 -20 -20 -20 -20 -20 -20 -20 -20 -20 -20 -20 -20 -20 -20 -20 -20 -20 -20 -20 -20 -20 -20 -20 -20 -20 -20 -20
-20 -20 -20 -20 -20 -20 -20 -20 -20 -20 -20 -20 -20 -20 -20 -20 -20 -20 -20 -20 -20 -20 -20 -20 -20 -20 -20 -20 -20 -20 -20 -20 -20 -20 -20 -20 -20 -20 -20 -20 -20 -19 -7
-20 -20 -20 -20 -20 -20 -20 -20 -20 -20 -20 -20 -20 -20 -20 -20 -20 -20 -20 -18 -20 -20 -20 -20 -20 -20 -20 -20 -20 -20 -20 -20 -20 -20 -20 -20 -20 -12 -5 -19 -20 -20 -19
-20 -20 -20 -20 -20 -20 -20 -20 -20 -20 -20 -20 -20 -20 -20 -20 -20 -20 -20 10 6 -7 -20 -20 -20 -20 -20 -16 13 -12 -20 -20 -20 -20 -20 -20 -18 -14 -7 -6 -5 -4 -20
-20 -20 -20 -20 -20 -20 -20 -20 -20 -20 -20 -20 -20 -20 -10 -9 -14 -6 -20 16 14 11 6 -9 -10 -5 -20 -8 -4 -20 -20 10 -3 -20 -20 -20 -20 -7 -19 -9 7 4 -20
-20 -20 -20 -20 -20 -20 -20 -20 -20 -20 -20 -20 5 8 11 8 10 1 -20 -20 -20 -10 4 -20 -20 -20 -17 12 10 8 7 17 14 0 -7 -20 -20 -20 -20 -20 -20 -18 -18
-20 -20 -20 -20 -20 -20 -20 -20 -20 -20 4 12 14 13 9 7 4 -20 -20 -20 -13 -7 -15 11 -20 -0 13 10 -4 -20 -1 11 14 12 6 0 -10 34 -15 12 -17 -19 18
-20 -20 -20 -20 -20 -20 -20 -20 -8 -13 10 10 12 0 -6 -20 -20 -11 -2 -18 -20 -20 -20 -19 -1 4 7 6 9 10 9 11 -4 14 28 31 31 15 -1 3 26 26 22
-20 -20 -20 -20 -20 -20 -20 -20 -14 -3 11 8 1 1 -9 -0 13 14 3 6 9 9 -12 -20 -20 -20 -20 -16 -3 6 17 18 15 22 25 35 30 31 32 25 32 18 24
-20 -20 -20 -20 -20 -20 -20 -20 -20 -20 9 17 17 21 14 9 5 3 7 8 10 7 -20 -20 -20 -20 14 17 22 21 14 10 -1 15 16 21 22 31 21 18 30 37 25
-20 -2 -20 -20 -20 -20 -20 3 8 -15 -20 -20 1 -5 -1 7 9 10 13 13 -14 -8 -20 -20 -20 -20 -20 -20 -20 -9 -11 -13 20 21 26 24 27 11 30 33 16 34 47
-20 -20 -20 3 -20 -20 -20 -20 -20 -20 -20 6 -20 -20 -16 8 11 11 14 -20 -20 -20 -20 -20 -20 -20 -20 -20 -20 -20 -20 -15 -1 2 -18 27 38 26 17 19 42 46 42
-20 -20 -20 -20 -20 12 -20 -10 -20 -15 -11 -9 -13 -20 -20 -20 -20 -20 -20 -20 -20 -20 -20 -20 -20 -20 -18 -20 -20 -20 -20 -20 -20 5 21 15 33 44 48 49 47 44 46
-20 -20 -20 -20 -20 -20 -20 -20 -20 -20 -20 -20 -20 -8 11 -20 -20 -20 -20 2 -20 -20 -20 -20 -20 -20 -20 -20 -20 -20 7 -20 -20 -20 10 22 4 28 35 42 43 44 41
-20 -20 -20 -20 -20 -20 -20 -20 -20 -20 -20 -20 -20 -9 5 10 10 3 -15 -11 -20 -18 -20 14 -0 -20 -20 11 -12 -20 -20 -20 -20 -20 -19 -17 6 28 34 37 41 39 35
-20 -20 -20 -20 -20 -20 -18 -20 -20 -20 -20 -20 -9 -12 -20 -18 -20 3 -20 -20 -14 -19 -20 -17 8 -3 -20 -20 -20 -7 -20 4 0 -20 -20 -20 -20 -5 13 28 32 30 22
-20 -3 10 -20 -20 -20 -20 -20 -20 -20 -20 -20 -20 -20 -20 -20 -20 -20 -20 -20 -1 -13 4 -20 -20 -20 -20 -20 -20 -20 -20 -20 -20 -20 -20 -10 1 25 13 18 22 22 25
-20 -11 -3 -9 -20 -20 -20 -20 -20 -20 -20 -20 -20 -20 -20 -20 -20 -20 -20 -20 -20 -20 -20 -10 -20 -20 -20 5 4 -18 8 1 1 -20 -20 4 7 -8 -6 -16 -20 -15 -5
0 3 -11 -20 -20 -20 -20 -20 -20 -20 -20 -20 -20 -20 -20 -20 -20 -20 -20 -20 -20 -20 -20 -20 5 -13 -19 -7 -11 -20 -20 -20 -10 -19 -20 -20 -20 -20 -8 -3 -18 -12 10

GFSGL_prec_radar_036.txt.gz
Reflectivity
-20 -20 -20 -20 -20 -20 -20 -20 -20 -20 -20 -20 -20 -20 -20 -20 -20 -20 -20 -20 -20 -20 -20 -20 -20 -20 -20 -20 -20 -20 -20 -20 -20 -20 -20 -20 -20 -20 -20 -20 -20 -20 -20
-20 -20 -20 -20 -20 -20 -20 -20 -20 -20 -20 -20 -20 -20 -20 -20 -20 -20 -20 -20 -20 -20 -20 -20 -20 -20 -20 -20 -20 -20 -20 -20 -20 -20 -20 -20 -20 -20 -20 -20 -20 -20 -20
-20 -20 -20 -20 -20 -20 -20 -20 -20 -20 -20 -20 -20 -20 -20 -20 -20 -20 -20 -20 -20 -20 -20 -20 -20 -20 -20 -20 -20 -20 -20 -20 -20 -20 -20 -20 -20 -20 -20 -20 -20 -20 -20
-20 -20 -20 -20 -20 -20 -20 -20 -20 -20 -20 -20 -20 -20 -20 -20 -20 -20 -20 -20 -20 -20 -20 -20 -20 -20 -20 -20 -20 -20 -20 -20 -20 -20 -20 -20 -20 -20 -20 -20 -20 -20 -20
-20 -20 -20 -20 -20 -20 -20 -20 -20 -20 -20 -20 -20 -20 -20 -20 -20 -20 -20 -20 -20 -20 -20 -20 -20 -20 -20 -20 -20 -20 -20 -20 -20 -20 -20 -20 -20 -20 -20 -20 -20 -20 -20
-20 -20 -20 -20 -20 -20 -20 -20 -20 -20 -20 -20 -20 -20 -20 -20 -20 -20 -20 -20 -20 -20 -20 -20 -20 -20 -20 -20 -20 -20 -20 -20 -20 -20 -20 -20 -20 -20 -20 -20 -20 -20 -13
-20 -20 -20 -20 -20 -20 -20 -20 -20 -20 -20 -20 -20 -20 -20 -20 -20 -20 -20 -20 -20 -20 -20 -20 -20 -20 -20 -20 -20 -20 -20 -20 -20 -20 -20 -20 -20 -20 -20 -20 -20 -20 -20
-20 -20 -20 -20 -20 -20 -20 -20 -20 -20 -20 -20 -20 -20 -20 -20 -20 -20 -20 -20 -20 -20 -20 -20 -20 -20 -20 -20 -20 -20 -20 -20 -20 -20 -20 -20 -20 -20 -20 -20 -20 -18 -5
-20 -20 -20 -20 -20 -20 -20 -20 -20 -20 -20 -20 -20 -20 -20 -20 -20 -20 -20 -20 -20 -20 -20 -20 -20 -20 -20 -20 -20 -20 -20 -20 -20 -20 -20 -20 -20 -19 -14 -20 -20 -15 -20
-20 -20 -20 -20 -20 -20 -20 -20 -20 -20 -20 -20 -20 -20 -20 -20 -20 -20 -20 -20 -20 -20 -20 -20 -20 -20 -20 -3 2 -3 -20 -20 -20 -20 -20 -20 -20 -20 -20 -20 -20 -20 -20
-20 -20 -20 -20 -20 -16 -20 -20 -20 -20 -20 -20 -20 -20 -20 -20 -20 -20 -20 -10 -7 -12 -13 -20 -20 -17 -20 -20 -10 2 -11 -3 15 8 -20 -20 -7 -19 -14 -20 -14 -20 -20
-20 -20 -20 -20 -20 -20 -20 -20 -20 -20 -20 -20 -20 -20 -20 -20 -20 -11 -20 -20 11 4 5 -11 -7 -4 -11 -20 -20 -6 15 14 15 18 14 -9 -4 4 -11 -18 -7 9 29
-20 -20 -20 -20 -19 -20 -20 -20 -20 -20 -20 -20 -20 -20 -20 -20 6 7 -20 -17 -20 14 13 3 -8 -20 -20 -19 16 14 10 16 16 18 17 15 4 -14 15 13 15 29 32
-20 -20 -20 -20 -20 -20 -20 -20 -20 -20 -20 -20 -20 -20 -18 8 13 -20 -20 -18 3 12 10 16 -16 12 11 13 7 -7 1 18 18 10 11 19 17 8 8 3 -0 15 30
-20 -20 -20 -20 -20 -20 -20 -20 -20 -20 -11 -20 -20 4 6 -5 -20 -9 -9 -20 -20 5 9 -6 -17 -20 -20 -20 -20 -17 -6 8 14 19 19 10 18 8 21 18 -0 6 10
-20 -20 -20 -20 -20 -20 -20 -20 -20 -20 -16 6 -9 -20 -19 -20 -20 -12 14 18 15 19 -14 -20 -20 -20 -20 -15 1 -9 7 16 11 14 22 12 13 12 13 19 13 -8 11
-20 -20 -20 -20 -20 -20 -20 -20 -20 -20 -11 14 8 10 13 -8 17 17 14 16 13 5 -20 -20 -20 -20 -20 -20 -20 -20 -20 -20 -20 -20 -20 -20 -1 13 22 4 34 31 21
-20 -20 -20 -20 -20 -17 -20 -20 -20 -20 -20 -20 13 12 18 19 13 12 12 7 -17 -8 -20 -20 -20 -20 -20 -20 -20 -20 -20 -20 -20 -20 -20 -20 -11 15 4 -20 -17 10 38
-20 -20 -20 -7 1 -20 -18 6 1 9 -11 10 -18 0 -5 4 10 11 15 -20 -20 -20 -20 -20 -20 -20 -20 -20 -20 -20 -20 -20 -16 -20 -20 -20 -20 -20 -20 -20 -8 -1 20
-20 -20 2 -17 16 -16 -8 8 16 18 16 20 -11 -20 -14 -4 -20 -20 -20 -20 -20 -20 -20 -20 -20 -20 -20 -20 -20 -20 -20 -20 -20 -20 -20 -20 -20 -20 -20 -20 -8 19 16
-20 -20 -20 -20 -20 -20 -20 -20 -18 3 10 12 24 -3 11 -20 -20 -20 -20 -20 -20 -20 -20 -20 -20 -20 -20 -20 -20 -20 -20 -20 -20 -20 -20 -20 -20 -20 -20 -20 -20 -20 -5
-20 -20 -20 -20 -20 -20 -20 -20 -20 -20 -20 -20 -20 -20 2 -20 -20 -20 -20 -20 -20 -20 -20 -20 -20 -20 -20 -20 -20 -20 -20 -14 -18 -20 -20 -20 -20 -20 -7 -20 -20 -20 -6
-20 -20 -20 -20 -20 -20 -20 -20 -20 -20 -20 -20 -20 -20 -20 -20 -20 -20 -20 -3 -15 3 9 -20 -20 -20 -20 -20 -14 -20 8 -18 7 -20 -20 -20 -20 -20 -14 -20 -20 -20 -20
-20 -20 -18 -20 -20 -20 -20 -20 -18 2 -18 -20 -20 -20 -11 -15 -20 -20 -20 -20 -20 -20 -20 -20 -20 -20 -20 -20 -20 1 6 -7 10 -20 -20 -20 -4 -16 -20 -20 -20 -20 -20
-20 -20 -20 -20 -20 -20 -20 -20 -20 -20 -20 -20 -20 -20 -20 -20 -20 -20 -20 -20 -20 -20 -20 -20 -20 -20 -20 -20 2 14 -12 6 13 2 -20 -20 -20 -20 -20 -20 -20 -20 -20
27 16 -20 -20 -20 -20 -20 -20 -20 -20 -20 -20 -20 -20 -20 -20 -20 -20 -20 -20 -20 -20 -20 -20 -20 -20 -20 -20 9 13 -20 -20 7 10 -20 -20 -20 -20 -20 -20 -20 -20 -20

GFSGL_prec_radar_039.txt.gz
Reflectivity
-20 -20 -20 -20 -20 -20 -20 -20 -20 -20 -20 -20 -20 -20 -20 -20 -20 -20 -20 -20 -20 -20 -20 -20 -20 -20 -20 -20 -20 -20 -20 -20 -20 -20 -20 -20 -20 -20 -20 -20 -20 -20 -20
-20 -20 -20 -20 -20 -20 -20 -20 -20 -20 -20 -20 -20 -20 -20 -20 -20 -20 -20 -20 -20 -20 -20 -20 -20 -20 -20 -20 -20 -20 -20 -20 -20 -20 -20 -20 -20 -20 -20 -20 -20 -20 -20
-20 -20 -20 -20 -20 -20 -20 -20 -20 -20 -20 -20 -20 -20 -20 -20 -20 -20 -20 -20 -20 -20 -20 -20 -20 -20 -20 -20 -20 -20 -20 -20 -20 -20 -20 -20 -20 -20 -20 -20 -20 -20 -20
-20 -20 -20 -20 -20 -20 -20 -20 -20 -20 -20 -20 -20 -20 -20 -20 -20 -20 -20 -20 -20 -20 -20 -20 -20 -20 -20 -20 -20 -20 -20 -20 -20 -20 -20 -20 -20 -20 -20 -20 -20 -20 -20
-20 -20 -20 -20 -20 -20 -20 -20 -20 -20 -20 -20 -20 -20 -20 -20 -20 -20 -20 -20 -20 -20 -20 -20 -20 -20 -20 -20 -20 -20 -20 -20 -20 -20 -20 -20 -20 -20 -20 -20 -20 -20 -20
-20 -20 -20 -20 -20 -20 -20 -20 -20 -20 -20 -20 -20 -20 -20 -20 -20 -20 -20 -20 -20 -20 -20 -20 -20 -20 -20 -20 -20 -20 -20 -20 -20 -20 -20 -20 -20 -20 -20 -20 -20 -20 -20
-20 -20 -20 -20 -20 -20 -20 -20 -20 -20 -20 -20 -20 -20 -20 -20 -20 -20 -20 -20 -20 -20 -20 -20 -20 -20 -20 -20 -20 -20 -20 -20 -20 -20 -20 -20 -20 -20 -20 -20 -20 -20 -20
-20 -20 -20 -20 -20 -20 -20 -20 -20 -20 -20 -20 -20 -20 -20 -20 -20 -20 -20 -20 -20 -20 -20 -20 -20 -20 -20 -20 -20 -20 -20 -20 -20 -20 -20 -20 -20 -20 -20 -20 -20 -20 -20
-20 -20 -20 -20 -20 -20 -20 -20 -20 -20 -20 -20 -20 -20 -20 -20 -20 -20 -20 -20 -20 -20 -20 -20 -20 -20 -20 -20 -20 -20 -20 -20 -20 -20 -20 -20 -20 -20 -20 5 -20 15 -18
-20 -20 -20 -20 -20 -20 -20 -20 -20 -20 -20 -20 -20 -20 -20 -20 -20 -20 -20 -20 -20 -20 -20 -20 -20 -20 -20 -20 -7 7 -0 -12 1 -18 -18 5 9 -20 1 14 27 19 -6
-20 -20 -20 -20 -20 -20 -20 -20 -20 -20 -20 -20 -20 -20 -20 -20 -20 -20 -20 -20 -20 -20 -20 -20 -20 -20 -8 17 11 5 5 -1 15 5 -1 -20 3 7 15 8 18 24 18
-20 -20 -20 -20 -20 -20 9 -20 -20 -20 -20 -20 -20 -20 -20 -20 -20 -10 -20 -14 -20 -20 -4 -20 -8 16 17 -2 -2 17 15 15 7 13 18 -3 0 7 -5 -20 -12 15 15
-20 -20 -20 -20 -20 -20 -20 -17 -14 -2 -20 -20 -20 -20 -20 -20 -19 5 -11 -20 -20 11 13 12 17 15 11 -1 12 17 16 16 20 16 8 11 13 14 15 11 -13 -20 14
-20 -20 -20 -20 -20 -20 -20 -20 -20 -20 -20 -13 -20 -20 -20 -20 -20 -17 11 13 14 13 -14 16 -7 8 8 12 13 6 -16 -20 -5 -2 -5 -4 -6 5 10 20 14 22 24
-20 -20 -20 -20 -20 -20 -20 -20 -20 -20 -9 -20 -20 -20 -20 -20 -11 -3 9 10 17 15 13 10 12 6 7 -15 -20 -20 -20 -18 9 -16 -3 -11 -1 5 2 -7 10 12 13
-20 -20 -12 -20 -20 -20 -20 -20 10 5 10 12 13 -20 -17 -20 -19 -20 -5 14 18 14 -10 8 4 4 -8 -20 -20 -20 -20 -13 -20 -20 -20 -20 -20 -20 -20 -17 -8 8 14
-20 -20 -20 4 -20 -20 -20 -20 -20 -10 -20 -20 -20 -20 -20 -20 15 16 13 19 15 15 4 4 28 -20 -20 -20 -20 -20 -20 -20 -20 -20 -20 -20 -20 -20 0 -20 -8 3 -5
-20 -20 -20 -20 -20 -20 -20 -20 -20 -20 -20 -20 -19 -18 -15 11 -18 13 18 16 -0 6 -20 -20 -20 -20 -20 -20 -20 -20 -20 -20 -20 -20 -20 -20 -20 -1 -20 -20 -20 -20 -20
-20 -20 -20 -20 -20 -20 -20 -20 -20 -20 1 16 -2 9 6 8 16 17 12 -15 -20 -20 -20 -20 -20 -20 -20 -20 -20 -20 -20 -20 -16 -20 -20 -20 -20 -20 -20 -20 -20 -14 0
-20 -20 -20 -20 -20 -20 -20 -20 -6 -2 -13 -6 -0 -19 5 -1 -20 -20 -19 -16 2 7 -11 -1 -12 -20 -20 -20 -20 -20 -20 -20 -20 -20 -20 -20 -20 -20 -20 -20 -20 -20 -20
-20 -20 -20 -20 -20 -20 -20 -20 -13 -1 9 -20 -2 -3 17 5 -9 -16 -20 -20 -20 -20 -20 -20 -12 -17 -20 -20 0 12 13 -6 -20 -20 -20 -17 -14 -20 -20 -20 -18 -20 -20
-20 -20 -20 -20 -20 -20 -20 -20 -20 -20 -20 -8 -7 1 13 7 -13 -20 -20 -20 -20 -20 -20 -20 -20 -20 -20 -20 -20 -20 3 -13 -20 -20 -17 -20 -20 -20 -20 -20 -20 -20 -20
-20 -20 -20 -20 -20 4 -15 -20 -20 -20 -20 -20 -20 -20 -20 -8 -4 -13 -0 -17 -8 -20 -20 -20 -20 -20 -20 -20 -20 -20 -20 -20 -9 -18 -18 -20 -20 -20 -20 -20 -20 -20 -20
-19 7 -20 -9 -20 -20 -11 -3 12 8 2 4 -8 -20 -18 -20 -20 -20 -20 -20 -20 -20 -20 -20 -20 -20 -20 -20 -20 -20 -20 8 -13 -20 -20 -20 -20 -1 -10 -20 -20 -20 -20
-20 -0 0 -20 -20 -20 0 12 25 3 3 -19 -20 -20 -20 -20 -20 -20 -20 -20 -20 -20 -20 -20 -20 -20 -20 -20 -20 -20 -0 10 8 -5 -20 -20 -20 -20 -3 -9 -20 -20 -20
-20 -18 -20 -20 -20 -20 -8 -13 -20 -20 -20 -20 -20 -20 -20 -20 -20 -20 -20 -20 -20 -20 -20 -20 -20 -20 -20 -20 -15 -19 -9 -10 -1 -20 -7 -20 -20 -20 -20 -15 -1 11 -13

GFSGL_prec_radar_042.txt.gz
Reflectivity
-20 -20 -20 -20 -20 -20 -20 -20 -20 -20 -20 -20 -20 -20 -20 -20 -20 -20 -20 -20 -20 -20 -20 -20 -20 -20 -20 -20 -20 -20 -20 -20 -20 -20 -20 -20 -20 -20 -20 -20 -20 -20 -20
-20 -20 -20 -20 -20 -20 -20 -20 -20 -20 -20 -20 -20 -20 -20 -20 -20 -20 -20 -20 -20 -20 -20 -20 -20 -20 -20 -20 -20 -20 -20 -20 -20 -20 -20 -20 -20 -20 -20 -20 -20 -20 -20
-20 -20 -20 -20 -20 -20 -20 -20 -20 -20 -20 -20 -20 -20 -20 -20 -20 -20 -20 -20 -20 -20 -20 -20 -20 -20 -20 -20 -20 -20 -20 -20 -20 -20 -20 -20 -20 -20 -20 -20 -20 -20 -20
-20 -20 -20 -20 -20 -20 -20 -20 -20 -20 -20 -20 -20 -20 -20 -20 -20 -20 -20 -20 -20 -20 -20 -20 -20 -20 -20 -20 -20 -20 -20 -20 -20 -20 -20 -20 -20 -20 -20 -20 -20 -20 -20
-20 -20 -20 -20 -20 -20 -20 -20 -20 -20 -20 -20 -20 -20 -20 -20 -20 -20 -20 -20 -20 -20 -20 -20 -20 -20 -20 -20 -20 -20 -20 -20 -20 -20 -20 -20 -20 -20 -20 -20 -20 -20 -20
-20 -20 -20 -20 -20 -20 -20 -20 -20 -20 -20 -20 -20 -20 -20 -20 -20 -20 -20 -20 -20 -20 -20 -20 -20 -20 -20 -20 -20 -20 -20 -20 -20 -20 -20 -20 -20 -20 -20 -20 -20 -20 -20
-20 -20 -20 -20 -20 -20 -20 -20 -20 -20 -20 -20 -20 -20 -20 -20 -20 -20 -20 -20 -20 -20 -20 -20 -20 -20 -20 -20 -20 -20 -20 -20 -20 -20 -20 -20 -20 -20 -20 -20 -20 -20 -20
-20 -20 -20 -20 -20 -20 -20 -20 -20 -20 -20 -20 -20 -20 -20 -20 -20 -20 -20 -20 -20 -20 -20 -20 -20 -20 -20 -20 -20 -20 -20 -20 -20 -20 -20 -20 -20 -20 -20 -20 -18 -10 -20
-20 -20 -20 -20 -20 -20 -20 -20 -20 -20 -20 -20 -20 -20 -20 -20 -20 -20 -20 -20 -20 -20 -20 -20 -20 -20 -20 -20 -20 -20 -20 -20 -20 -20 -20 -20 -20 -20 -19 4 5 5 -3
-20 -20 -20 -20 -20 -20 -20 -20 -20 -20 -20 -20 -20 -20 -20 -20 -20 -20 -20 -20 -20 -20 -20 -20 -20 -20 -20 -20 -20 -20 -19 -18 -19 -19 -18 2 7 13 14 10 16 18 15
-20 -20 -20 -20 -20 -20 -20 -20 -20 -20 -20 -20 -20 -20 -20 -20 -20 -20 -20 -20 -20 -20 -20 -20 -20 -20 -20 -10 5 -1 -4 0 18 11 14 -13 -0 11 3 10 17 22 18
-20 -20 -20 -20 -20 -20 -20 -20 -20 -20 -20 -20 -20 -20 -20 -20 -18 -7 -20 -20 -20 -20 -20 -20 -20 -20 9 15 10 14 12 15 -7 -5 12 -9 -10 15 -3 8 5 7 5
-20 -20 -20 -20 -20 -20 -20 -20 -20 -20 -20 -20 -20 -20 -20 -20 -19 8 -8 -20 -20 -20 -20 -20 -12 10 11 12 14 13 14 10 -18 22 22 2 -19 -11 16 16 9 17 18
-20 -20 -15 -20 -20 -20 -20 -20 -17 -10 -20 -20 -20 -20 -20 -20 -20 -20 -20 -18 -2 -10 -15 14 13 15 14 12 15 16 23 6 -15 -20 -20 -20 4 3 -16 -20 -1 -2 6
-20 -20 -20 3 -20 -7 -20 -20 -19 -19 -7 -20 -20 -20 -20 -20 -20 7 4 -18 -20 -13 -2 -20 -11 15 0 -20 0 -1 -4 -2 -20 -10 -17 -16 -20 -20 -20 -20 -2 -8 -9
-20 -20 -15 -20 -20 -20 -20 -20 5 2 6 11 17 -8 -16 4 2 -14 -14 10 16 16 -3 -15 -15 3 8 -1 -7 -19 -20 -20 -20 -20 -20 -20 -20 -20 -20 -15 -20 -3 -4
-20 -20 -20 -4 -20 -20 -20 -20 -20 5 7 -15 -19 -13 8 18 7 2 1 4 15 12 -15 -17 -9 0 -20 -20 -20 -20 -20 -20 -20 -20 -20 -20 -20 -20 -18 -20 -20 -20 -20
-20 14 -19 -20 6 -20 -20 -20 -20 -20 -18 -9 11 16 16 14 5 -15 11 -12 -20 3 7 -8 -17 -20 -20 -20 -20 -20 -20 -20 -20 -20 -20 -20 -20 -20 -20 -20 -20 -3 -4
-20 -20 -20 -20 -20 -20 -20 -20 -20 -20 -20 -20 -20 -8 -1 10 6 8 2 -15 12 2 -20 -20 -20 -20 -2 -12 -20 -20 -5 -6 -13 -20 -20 -20 -20 -20 -20 -20 -13 12 -4
-20 -20 -3 -20 -18 -20 -20 -20 -20 -20 -20 -20 -20 -20 -20 -12 -18 -20 -8 -20 -20 -20 -20 -20 -20 -20 2 5 7 7 6 1 -14 -20 -20 -20 -20 -20 -8 -20 -17 -4 -20
-20 -20 -11 -19 -20 -20 -20 -20 -20 -20 -20 -20 -20 -10 8 -3 -20 -20 10 -20 -20 -20 -20 -20 -20 -12 5 -20 7 5 -10 -7 -14 -8 -2 -20 -20 -20 -20 -20 -20 -20 -20
-20 -20 -20 -20 -20 -20 -20 -20 -20 -20 -20 -20 -20 -9 -18 -20 -5 -1 -20 -20 -20 -20 -20 -9 -20 -20 -20 -15 -18 -20 -9 -6 -20 -20 -20 3 -14 9 -13 -1 -20 -20 -20
-20 -20 -20 -20 -20 5 -10 -20 -20 -20 -20 -20 -20 -20 -20 -20 -20 -20 -20 -20 -16 -17 -20 -20 -20 -20 -20 -20 -20 -20 -20 -20 -20 -20 -20 2 -1 5 -20 -6 -20 -20 -20
-20 -20 -20 -20 -20 -20 -20 -20 -2 14 9 13 6 8 1 -7 -20 -20 -20 -20 -20 -20 -20 -20 -20 -20 -20 -20 -20 -20 -20 -20 -20 -20 3 3 2 4 -20 -19 -20 -20 -19
-20 -20 -20 -20 -20 -13 -3 2 -0 3 -14 -15 -9 9 2 9 -19 -20 -20 -20 -20 -20 -20 -20 -20 -20 -20 -20 -20 -20 -20 -20 -20 -20 -20 -18 8 11 -20 -10 3 10 14
-2 -20 -20 -20 -7 3 4 15 6 14 15 20 -1 -4 -3 -20 -20 -20 -20 -20 -20 -20 -20 -20 -20 -20 -20 -20 -20 -20 -20 -20 -20 -20 -10 -6 -20 -20 -20 -20 -20 -15 12

GFSGL_prec_radar_045.txt.gz
Reflectivity
-20 -20 -20 -20 -20 -20 -20 -20 -20 -20 -20 -20 -20 -20 -20 -20 -20 -20 -20 -20 -20 -20 -20 -20 -20 -20 -20 -20 -20 -20 -20 -20 -20 -20 -20 -20 -20 -20 -20 -20 -20 -20 -20
-20 -20 -20 -20 -20 -20 -20 -20 -20 -20 -20 -20 -20 -20 -20 -20 -20 -20 -20 -20 -20 -20 -20 -20 -20 -20 -20 -20 -20 -20 -20 -20 -20 -20 -20 -20 -20 -20 -20 -20 -20 -20 -20
-20 -20 -20 -20 -20 -20 -20 -20 -20 -20 -20 -20 -20 -20 -20 -20 -20 -20 -20 -20 -20 -20 -20 -20 -20 -20 -20 -20 -20 -20 -20 -20 -20 -20 -20 -20 -20 -20 -20 -20 -20 -20 -20
-20 -20 -20 -20 -20 -20 -20 -20 -20 -20 -20 -20 -20 -20 -20 -20 -20 -20 -20 -20 -20 -20 -20 -20 -20 -20 -20 -20 -20 -20 -20 -20 -20 -20 -20 -20 -20 -20 -20 -20 -20 -20 -20
-20 -20 -20 -20 -20 -20 -20 -20 -20 -20 -20 -20 -20 -20 -20 -20 -20 -20 -20 -20 -20 -20 -20 -20 -20 -20 -20 -20 -20 -20 -20 -20 -20 -20 -20 -20 -20 -20 -20 -20 -20 -20 -20
-20 -20 -20 -20 -20 -20 -20 -20 -20 -20 -20 -20 -20 -20 -20 -20 -20 -20 -20 -20 -20 -20 -20 -20 -20 -20 -20 -20 -20 -20 -20 -20 -20 -20 -20 -20 -20 -20 -20 -20 -20 -20 -20
-20 -20 -20 -20 -20 -20 -20 -20 -20 -20 -20 -20 -20 -20 -20 -20 -20 -20 -20 -20 -20 -20 -20 -20 -20 -20 -20 -20 -20 -11 -20 -20 -20 -20 -20 -20 -20 -20 -19 -6 -11 -20 -20
-20 -20 -20 -20 -20 -20 -20 -20 -20 -20 -20 -20 -20 -20 -20 -20 -20 -20 -20 -20 -20 -20 -20 -20 -20 -20 -20 -20 -20 -20 -20 -20 -20 -20 -20 -20 -20 -20 1 12 17 15 -20
-20 -20 -20 -20 -20 -20 -20 -20 -20 -20 -20 -20 -20 -20 -20 -20 -20 -20 -20 -20 -20 -20 -20 -20 -20 -20 -20 -19 -20 -20 -20 -20 -20 -20 -20 -20 -20 -20 -9 -15 2 -15 -20
-20 -20 -20 -20 -20 -20 -20 -20 -20 -20 -20 -20 -20 -20 -20 -20 -20 -20 -20 -20 -20 -20 -20 -20 -20 -20 -20 -20 -20 -20 -19 -20 -20 -20 -2 -16 -20 -20 7 -12 10 -18 16
-20 -20 -20 -20 -20 -20 -20 -20 -20 -20 -20 -20 -20 -20 -20 -20 -20 -20 -20 -20 -20 -20 -20 -20 -20 -20 -20 -20 -15 -20 -20 -15 -20 -13 -14 -14 -6 -1 3 4 -12 -16 -2
-20 -20 -20 -20 -20 -20 -20 -20 -20 -20 -20 -20 -20 -20 -20 -20 -15 -15 -20 4 -20 -20 -20 -20 -20 -20 -20 -20 -11 -20 -12 -5 0 11 12 -15 -12 23 8 17 2 14 8
-20 -20 -20 -20 -20 -20 -20 -20 -20 -20 -20 -20 -20 -20 -20 -20 -19 7 -17 -20 -20 -20 -20 -20 -20 3 -4 10 -20 -4 20 13 15 13 16 -6 -11 1 1 -17 -20 -18 -20
-20 -20 -20 -20 -20 -20 -20 -20 -20 -20 -20 -20 -20 -20 -20 -20 -20 -20 -20 -20 -4 -3 -20 -14 -17 7 8 4 5 -0 -4 25 31 12 -5 -1 -2 -20 -20 -20 -20 -20 -20
-18 -20 -20 -20 -20 -20 -20 -20 -20 -20 -19 -20 -20 -20 -20 -20 -20 -20 -11 -20 -20 -13 -20 -20 -20 -20 9 -16 -20 -13 16 3 -12 -12 -20 -20 -20 -20 -20 -20 -20 -20 -20
-6 -20 -20 -20 -20 -20 -20 -20 -5 5 1 11 13 -20 -14 10 3 9 10 12 14 11 -11 -19 -20 -20 -20 -20 -16 -14 -19 5 -20 -20 -20 -20 -20 -20 -20 -20 -20 -20 -20
-20 -20 -19 -16 23 30 -3 -20 -20 0 -2 -7 4 -15 -20 -19 5 8 -2 9 10 11 -19 -20 -20 -20 -6 -19 -14 -11 -20 -20 -20 -20 -20 -20 -20 -20 -19 -20 -20 -20 -20
5 10 39 35 47 22 -16 -20 -20 -20 -20 -20 6 2 8 -12 -17 -19 3 -10 -15 -7 -20 -20 -20 -20 -20 -20 -20 -20 -20 -17 -6 -7 -8 -20 -20 -20 -20 -16 -20 -20 -20
-9 -18 -8 13 6 -15 -20 -20 -20 -20 -20 -20 -20 9 5 4 9 8 -18 -20 -20 -15 -11 -6 -0 -0 -0 -1 -1 -1 1 -1 -1 -19 -20 2 -2 -12 -2 -2 -16 7 -8
-19 12 9 7 -17 -20 -20 -20 -20 -20 -20 -20 -19 -2 -17 -20 -20 -20 -20 -20 -14 -20 -20 -5 -17 -20 -20 -20 -20 -20 -12 -6 3 7 8 7 1 8 3 4 9 -10 -20
-20 -20 11 -19 -13 -12 -20 -20 -20 -20 -20 -20 -20 -1 10 -20 -20 -20 -20 -20 -20 -20 -20 -20 -20 -20 -20 -20 -20 -20 -20 -20 -20 -20 -20 -20 -7 8 7 6 -16 4 0
-20 -20 -20 -20 -20 -20 -17 -19 -20 -7 -20 -14 -16 -20 -20 -20 -20 -20 -20 -20 -20 -20 -20 -11 -20 -20 -20 -19 -20 -20 -20 -20 -20 -20 -20 -20 -20 -2 6 7 6 -8 5
-20 -20 -20 -20 -20 1 -14 -20 -20 -20 -16 -7 -7 -20 -19 -20 -20 -20 -20 -20 -20 -20 -20 -20 -20 -20 -20 -20 -20 -20 -20 -20 -20 -20 -20 -20 -20 -20 -3 7 7 6 5
10 -15 -20 -20 -20 -20 -20 -20 -20 -20 -20 -20 -15 3 9 2 10 10 -3 -19 -20 -20 -20 -20 -20 -20 -20 -20 -20 -20 -20 -20 -20 -20 -20 -20 -20 -18 -16 2 -2 -0 22
2 8 -13 -20 -20 -20 -7 -19 -20 -20 -20 -20 -20 -20 -11 5 -4 -13 -20 -20 -20 -20 -20 -20 -20 -20 -20 -20 -20 -20 -20 -20 -17 8 -20 -20 -20 -20 -20 -20 -3 12 7
-20 -20 -8 -19 -20 -20 -20 -20 -20 -20 -20 -20 -20 -20 -18 -9 -6 -9 -19 -20 -20 -20 -20 -20 -20 -20 -20 -20 -20 -20 -20 -20 -20 -20 -14 -20 -20 -20 -20 -20 -6 -5 -7

GFSGL_prec_radar_048.txt.gz
Reflectivity
-20 -20 -20 -20 -20 -20 -20 -20 -20 -20 -20 -20 -20 -20 -20 -20 -20 -20 -20 -20 1 4 -19 -20 -20 -20 -20 -20 -20 -20 -20 -20 -20 -20 -20 -20 -20 -20 -20 -20 -20 -20 -20
-20 -20 -20 -20 -20 -20 -20 -20 -20 -20 -20 -20 -20 -20 -20 -20 -20 -20 -20 -20 -20 -19 -19 -20 -20 -20 -20 -20 -20 -20 -20 -20 -20 -20 -20 -20 -20 -20 -20 -20 -20 -20 -20
-20 -20 -20 -20 -20 -20 -20 -20 -20 -20 -20 -20 -20 -20 -20 -20 -20 -20 -20 -20 -20 -20 -20 -20 -20 -20 -20 -20 -20 -20 -20 -20 -20 -20 -20 -20 -20 -20 -20 -20 -20 -20 -20
-20 -20 -20 -20 -20 -20 -20 -20 -20 -20 -20 -20 -20 -20 -20 -20 -20 -20 -20 -20 -20 -20 -20 -20 -20 -20 -20 -20 -20 -20 -20 -20 -20 -20 -20 -20 -20 -20 -20 -20 -20 -20 -20
-20 -20 -20 -20 -20 -20 -20 -20 -20 -20 -20 -20 -20 -20 -20 -20 -20 -20 -20 -20 -20 -20 -20 -20 -20 -20 -20 -20 -20 -20 -20 -20 -20 -20 -20 -20 -20 -20 -20 -20 -20 -20 -20
-20 -20 -20 -20 -20 -20 -20 -20 -20 -20 -20 -20 -20 -20 -20 -20 -20 -20 -20 -20 -20 -20 -20 -20 -20 -20 -20 -20 -20 -20 -20 -20 -20 -20 -20 -20 -20 -20 -20 -20 -20 -20 -20
-20 -20 -20 -20 -20 -20 -20 -20 -20 -20 -20 -20 -20 -20 -20 -20 -20 -20 -20 -20 -20 -20 -20 -20 -20 -20 -20 -20 -20 -19 -20 -20 -20 -20 -20 -20 -20 -20 -20 -16 -17 -9 7
-20 -20 -20 -20 -20 -20 -20 -20 -20 -20 -20 -20 -20 -20 -20 -20 -20 -20 -20 -20 -20 -20 -20 -20 -20 -20 -20 -20 -20 -20 -20 -20 -20 -20 -20 -20 -20 -20 10 16 10 5 6
-20 -20 -20 -20 -20 -20 -20 -20 -20 -20 -20 -20 -20 -20 -20 -20 -20 -20 -20 -20 -20 -20 -20 -20 -20 -20 -20 -20 -20 -20 -20 -20 -20 -20 -20 -20 -20 -20 -6 -20 -20 1 -20
-20 -20 -20 -20 -20 -20 -20 -20 -20 -20 -20 -20 -20 -20 -20 -20 -20 -20 -6 -20 -20 -20 -20 -20 -20 -20 -20 -20 -20 -20 -20 -20 -20 -19 -7 9 8 -20 -20 -10 -20 1 -2
-20 -20 -20 -20 -20 -20 -20 -20 -20 -20 -20 -20 -20 -20 -20 -20 -20 -20 -20 -20 -20 -20 -20 -20 -20 -20 -20 -20 -16 -20 -20 -13 -7 10 12 13 9 2 11 -1 -5 19 -13
-20 -20 -20 -20 -20 -20 -20 -20 -20 -20 -20 -20 -20 -20 -20 -20 -19 -13 -20 -20 -20 -20 -20 -20 -20 -20 -20 -20 2 -20 -20 3 -20 -10 -11 -15 20 -4 -3 3 4 -2 5
-12 -20 -20 -20 -20 -20 -20 -20 -20 -20 -20 -20 -20 -20 -20 -20 -20 -20 -20 -20 -20 -15 -20 -18 -3 -3 -20 11 -12 -20 9 -20 -20 0 14 19 -17 -20 5 9 6 9 -17
-12 -20 -20 -20 -20 -20 -20 -20 -20 -20 -20 -20 -20 -20 -20 -20 -20 -20 -20 -18 7 4 -20 -20 -20 9 14 11 -1 2 -20 -20 -18 -20 -20 -3 24 -8 1 -20 -20 -20 -20
-20 -20 -20 -20 -14 -12 -16 -20 -20 -20 -7 -20 -20 -20 -20 -20 -20 -20 -20 -20 -20 -20 -20 -20 -17 -14 -2 0 1 -1 -14 -18 -9 5 21 -4 -3 -20 -20 -20 -20 -20 -20
-20 -20 -20 -20 -20 -8 7 -20 6 2 0 2 9 11 -12 12 10 10 13 16 15 7 -20 -0 -12 1 -15 -20 -20 -20 -20 0 -14 -15 -20 -20 -20 -20 -20 -20 -20 -20 -20
9 10 -17 -20 -3 -20 -20 -19 -19 1 0 -20 -19 2 2 -19 -5 3 5 5 6 12 -19 -20 -20 -20 -20 -20 -20 -20 -20 -20 -20 -20 -20 -20 -20 -20 -19 -20 -20 -20 -20
-20 30 33 13 -20 -20 31 -6 0 25 7 13 -17 2 -3 1 1 1 -14 -20 -7 0 -20 -20 -20 -20 -20 -20 -20 -20 -20 -20 -20 -20 -20 -20 -20 -20 -20 -20 -20 -20 -20
-4 -10 -15 -20 0 -5 13 20 25 46 27 6 7 -1 2 7 -20 -20 -10 -17 -12 -20 -20 -20 -20 -20 -20 -20 -20 -13 -2 -7 -11 -20 -19 -20 -20 -20 -20 -17 -16 4 -3
-5 -20 -6 7 -20 17 25 28 34 15 9 -6 -0 -20 -19 0 -13 -19 -18 -20 -20 -20 -20 -20 -20 -20 -20 -20 -16 -20 -15 -3 -20 -17 -16 -7 -2 3 -6 1 -4 3 5
2 -19 -20 -17 -18 28 27 10 10 -6 -7 -17 -20 -6 14 -20 -20 -20 -20 -20 -20 -20 -20 -20 -20 -20 -20 -20 -20 -20 -20 -20 -20 -20 -20 -20 -20 4 9 8 3 9 9
-4 -2 -6 -17 -10 8 16 -15 13 -13 -19 -18 -20 -11 -19 -20 -20 -20 -20 -20 -20 -20 -20 -20 -20 -20 -20 -20 -20 -20 -20 -20 -20 -20 -20 -20 -20 -12 -7 3 8 7 13
-20 6 -16 -20 -20 16 15 28 24 26 25 1 -20 -20 -20 -20 -20 -20 -20 -20 -20 -20 -20 8 -15 -20 -20 -20 -20 -20 -20 -20 -20 -20 -20 -20 -20 -20 -15 -9 3 14 8
-1 -20 -18 -5 -20 -20 -20 -20 -20 10 9 -20 -20 -2 -20 -20 -20 -20 -20 -20 -20 -20 -20 -20 -20 -20 -20 -20 -20 -20 -20 -20 -20 -20 -20 -20 -20 -20 -20 -20 -0 6 2
-19 22 -7 -13 -8 -20 -20 -20 -20 -20 -20 -20 -20 -20 -20 -20 -20 -20 -20 -20 -20 -20 -20 -20 -20 -20 -20 -20 -20 -20 -20 -20 -20 4 -20 -20 -20 -20 -20 -20 -20 -20 -14
-3 -20 -6 27 -2 -20 -20 -19 -11 -16 -20 -20 -20 -20 -20 -20 -20 -20 -20 -20 -20 -20 -20 -20 -20 -20 -20 -20 -20 -20 -20 -20 -20 -20 -20 -20 -20 -20 -20 -20 -20 -20 -20

GFSGL_prec_radar_051.txt.gz
Reflectivity
-20 -20 -20 -20 -20 -20 -20 -20 -20 -20 -20 -20 -20 -20 -20 -20 -20 -14 -20 -20 -20 -20 -20 -20 -20 -20 -20 -20 -20 -20 -20 -20 -20 -20 -20 -20 -20 -20 -20 -20 -20 -20 -20
-20 -20 -20 -20 -20 -20 -20 -20 -20 -20 -20 -20 -20 -20 -20 -20 -20 -20 -20 -20 -19 -20 -20 -20 -20 -20 -20 -20 -20 -20 -20 -20 -20 -20 -20 -20 -20 -20 -20 -20 -20 -20 -20
-20 -20 -20 -20 -20 -20 -20 -20 -20 -20 -20 -20 -20 -20 -20 -20 -20 -20 -20 -20 -20 -20 -20 -20 -20 -20 -20 -20 -20 -20 -20 -20 -20 -20 -20 -20 -20 -20 -20 -20 -20 -20 -20
-20 -20 -20 -20 -20 -20 -20 -20 -20 -20 -20 -20 -20 -20 -20 -20 -20 -20 -20 -20 -20 -20 -20 -20 -20 -20 -20 -20 -20 -20 -20 -20 -20 -20 -20 -20 -20 -20 -20 -20 -20 -20 -20
-20 -20 -20 -20 -20 -20 -20 -20 -20 -20 -20 -20 -20 -20 -20 -20 -20 -20 -20 -20 -20 -20 -20 -20 -20 -20 -20 -20 -20 -20 -20 -18 -20 -20 -20 -20 -20 -20 -20 -20 -20 -20 -20
-20 -20 -20 -20 -20 -20 -20 -20 -20 -20 -20 -20 -20 -20 -20 -20 -20 -20 -20 -20 -20 -20 -20 -20 -20 -20 -20 -20 -20 -20 -20 -20 -20 -20 -20 -20 -20 -20 -20 -20 -20 -20 -20
-20 -20 -20 -20 -20 -20 -20 -20 -20 -20 -20 -20 -20 -20 -20 -20 -20 -20 -20 -20 -20 -20 -20 -20 -20 -20 -20 -20 -20 -20 -20 -20 -20 -20 -20 -20 -20 -20 -20 -20 -20 -13 10
-20 -20 -20 -20 -20 -20 -20 -20 -20 -20 -20 -20 -20 -20 -20 -20 -20 -20 -20 -20 -20 -20 -20 -20 -20 -20 -20 -20 -20 -20 -20 -20 -20 -20 -20 -20 -20 -20 -4 -7 15 16 12
-20 -20 -20 -20 -20 -20 -20 -20 -20 -20 -20 -20 -20 -20 -20 -20 -20 -20 -20 -20 -20 -20 -20 -20 -20 -20 -20 -20 -20 -20 -20 -20 -20 -20 -20 -20 -20 -20 -20 -20 -20 4 12
-20 -20 -20 -20 -20 -20 -20 -20 -20 -20 -20 -20 -20 -20 -20 -20 -20 -20 -20 -20 -20 -20 -20 -20 -20 -20 -20 -20 -20 -20 -20 -20 -20 -20 -20 -18 -19 -20 -20 -20 -9 5 9
-20 -20 -20 -20 -20 -20 -20 -20 -20 -20 -20 -20 -20 -20 -20 -20 -20 -20 -20 -20 -20 -20 -20 -20 -20 -20 -20 -20 -20 -20 -20 -16 -20 -12 8 5 3 -4 -3 2 17 20 -7
-20 -20 -20 -20 -20 -20 -20 -20 -20 -20 -20 -20 -20 -20 -20 -20 -20 -12 -20 -20 -20 -20 -20 -20 -20 -20 -20 -20 -19 -20 -20 3 -20 -20 -20 -17 -12 -20 -20 -19 -1 -20 -5
-20 -20 -20 -20 -20 -20 1 6 -18 -2 -20 -20 -20 -20 -20 -20 -20 -20 -20 -20 -20 -20 -20 -12 -7 -20 -20 6 -20 -20 4 -18 -20 2 1 -5 -18 -17 -4 -19 -20 13 -16
-20 -20 -20 -20 -20 -20 -13 -1 -20 -20 -20 -20 -20 -20 -20 -20 -20 -20 -20 -20 4 -1 -20 -20 -20 9 -4 -11 -15 -3 -20 -12 4 -20 -20 -20 -4 -18 -19 -19 -9 -20 -20
-20 -20 -20 -20 -13 -5 -8 -20 -20 -20 -20 -20 -20 -20 -20 -20 -20 -20 -20 -20 -20 -20 -20 -20 -20 -20 -20 -20 -8 8 15 -16 -15 -20 -18 -8 -19 -2 11 -2 -20 -20 -20
2 -14 -20 -20 -19 -4 -20 -20 2 -20 -0 4 3 -3 -14 15 0 -12 -10 -20 -19 -20 -20 -20 -20 -20 -7 -13 -8 -3 -20 -15 -20 -20 -19 -13 -20 -20 -20 -20 -20 -20 -20
13 -20 -20 -20 -18 -10 -20 -20 -20 0 -1 2 6 4 10 17 8 9 9 9 4 8 -20 -20 6 -1 -6 2 -15 -20 -20 -20 -20 -20 -20 -20 -20 -20 -20 -20 -20 -20 -20
-7 13 -19 -20 -20 -20 6 2 -7 -20 -20 -20 12 -17 11 12 12 15 10 26 21 -7 -19 -20 -20 -20 -20 -20 -18 -6 -4 -20 -20 -20 -20 -20 -20 -20 -20 -20 -20 -20 -20
32 -6 -18 -20 -20 -1 -20 -20 -20 -20 -20 -17 18 28 6 7 17 23 8 -15 -17 -20 -20 2 -16 -20 -20 -20 -20 3 -20 -20 -13 -20 -20 -20 -20 -20 -20 -20 -20 -5 -3
7 12 12 -20 -9 14 20 16 27 -6 -14 -19 -2 12 23 30 22 6 -12 -16 -9 6 -11 -17 -20 -20 -20 -20 -20 -20 -20 -17 -16 -17 -8 -9 -12 -7 -12 -7 5 5 -16
31 15 21 -18 -5 18 4 -20 -20 -3 32 33 27 31 2 -8 25 9 17 17 -10 -20 -19 -19 -20 -20 -20 -20 -20 -20 -20 -20 -20 -20 -20 -20 -20 -20 -9 -2 -19 -3 -2
28 30 30 5 -20 -20 -20 -2 21 23 20 20 24 20 11 -9 -14 14 12 15 16 -12 -18 -7 -20 -20 -20 -20 -20 -20 -20 -20 -20 -20 -20 -20 -20 -20 -20 -16 -20 -3 5
30 27 16 -20 -19 15 -12 -0 10 10 3 -5 1 16 12 -2 7 17 16 -20 -20 -20 -20 -20 -20 -20 -20 -19 -9 -20 -20 -20 -20 -20 -20 -20 -20 -20 -20 -20 -20 3 -1
8 4 -1 -20 -19 21 23 25 -12 24 -4 -14 5 -17 6 6 -17 -20 -19 -20 -20 -20 -20 7 -20 -20 -20 -20 -15 -20 -20 -20 -20 -20 -20 -20 -20 -20 -20 -20 -20 -20 -20
35 23 11 -6 6 -20 12 23 10 6 36 32 24 4 15 -7 -14 1 16 6 -20 14 -2 -20 -20 -20 -20 -20 -20 -20 -20 -20 -20 -20 -20 -20 -20 -20 -20 -20 -20 -20 -20
-15 14 7 -13 -20 -10 -12 -20 -20 -8 -5 10 11 18 -16 4 -4 -20 -14 -20 -20 -20 -20 -20 -20 -20 -20 -20 -20 -20 -20 -20 -20 -20 -20 -20 -20 -20 -20 -20 -20 -20 -20

GFSGL_prec_radar_054.txt.gz
Reflectivity
-20 -20 -20 -20 -20 -20 -20 -20 -20 -20 -20 -20 -20 -15 -20 -20 -20 -20 -20 2 -8 -20 -20 -2 -20 -20 -20 -20 -20 -20 -20 -20 -20 -20 -20 -20 -20 -20 -20 -20 -20 -20 -20
-20 -20 -20 -20 -20 -20 -20 -20 -20 -20 -20 -20 -20 -20 -20 -20 -20 -20 -20 -20 -6 -20 -20 -20 -19 -20 -20 -20 -20 -20 -20 -20 -20 -20 -20 -20 -20 -20 -20 -20 -20 -20 -20
-20 -20 -20 -20 -20 -20 -20 -20 -20 -20 -20 -20 -20 -20 -20 -20 -20 -20 -20 -20 -12 -16 -15 -20 -20 -20 -20 -20 -20 -20 -20 -20 -20 -20 -20 -20 -20 -20 -20 -20 -20 -20 -20
-20 -20 -20 -20 -20 -20 -20 -20 -20 -20 -20 -20 -20 -20 -20 -20 -20 -20 -20 -20 -20 -20 -20 -20 -20 -20 -20 -20 -20 -20 -20 -20 -20 -20 -20 -20 -20 -20 -20 -20 -20 -20 -20
-20 -20 -20 -20 -20 -20 -20 -20 -20 -20 -20 -20 -20 -20 -20 -20 -20 -20 -20 -20 -20 -20 -20 -20 -20 -20 -20 -20 -20 -20 -20 -20 -20 -20 -20 -20 -20 -20 -20 -20 -20 -20 -20
-20 -20 -20 -20 -20 -20 -20 -20 -20 -20 -20 -20 -20 -20 -20 -20 -20 -20 -20 -20 -20 -20 -20 -20 -20 -20 -20 -20 -20 -20 -20 -20 -20 -20 -20 -20 -20 -20 -20 -20 -20 -20 -20
-20 -20 -20 -20 -20 -20 -20 -20 -20 -20 -20 -20 -20 -20 -20 -20 -20 -20 -20 -20 -20 -20 -20 -20 -20 -20 -20 -20 -20 -20 -20 -20 -20 -20 -20 -20 -20 -20 -20 -20 -20 -20 -8
-20 -20 -20 -20 -20 -20 -20 -20 -20 -20 -20 -20 -20 -20 -20 -20 -20 -20 -20 -20 -20 -20 -20 -20 -20 -20 -20 -20 -20 -20 -20 -20 -20 -20 -20 -20 -20 -20 -20 -20 -4 -19 -11
-20 -20 -20 -20 -20 -20 -20 -20 -20 -20 -20 -20 -20 -20 -20 -20 -20 -20 -20 -20 -20 -20 -20 -20 -20 -20 -20 -20 -20 -20 -20 -20 -20 -20 -20 -20 -20 -20 -20 -20 -20 -20 -20
-20 -20 -20 -20 -20 -20 -20 -20 -20 -20 -20 -20 -20 -20 -20 -20 -20 -20 -20 -20 -20 -20 -20 -20 -20 -20 -20 -20 -20 -20 -20 -20 -20 -20 -20 -20 -20 -20 -20 -20 -16 18 5
-20 -20 -20 -20 -20 -20 -20 -20 -20 -20 -20 -20 -20 -20 -20 -20 -20 -20 -20 -20 -20 -20 -20 -20 -20 -20 -20 -20 -20 -20 -20 -20 -20 -20 -20 -19 -20 -10 3 -13 -20 -20 -18
-20 -20 -20 -20 -20 -20 -20 -20 -20 -20 -4 -20 -20 -20 -20 -20 -20 -13 -20 -20 -20 -20 -20 -20 -20 -20 -20 -20 -20 -20 -20 -18 -20 -20 -20 -20 -20 15 -12 -20 -20 -20 -20
-20 -20 -20 -20 -20 -20 -20 3 3 4 10 7 -20 -20 -20 -20 -20 -20 -20 -20 -20 -20 -20 -18 -12 -20 -20 -20 -20 -20 -20 -19 -20 -20 -19 -14 3 -20 -20 -20 -20 -20 -20
-20 -20 -20 -20 -20 -20 -7 -15 8 -19 -20 6 -20 -20 -20 -20 -20 -20 -20 -20 -20 -20 -20 -20 -20 -16 10 8 -20 -20 -20 -20 -17 -20 -16 -20 -20 -20 -20 -20 -20 3 -20
-20 -20 -20 -20 -20 -10 -14 5 -8 -20 -20 -20 -20 -20 -20 -20 -20 -20 -20 -20 -20 -20 -20 -20 -20 -20 -20 -20 -20 -20 -20 -20 -20 -20 -20 -20 -20 -16 -13 -20 -10 -3 -20
-20 -20 -20 -20 -20 -2 1 -12 1 3 1 0 -8 -20 -14 5 2 -5 -20 -20 -20 -20 -20 -20 -20 -20 -20 -20 -20 4 -10 8 5 -13 -20 -20 -5 9 6 -14 -20 -20 -20
7 -20 -20 -20 -20 -19 3 -19 -20 -4 8 5 6 7 -1 -2 9 7 7 -20 -20 -7 -20 -13 -18 -20 5 -19 -20 -20 -20 -20 -20 -20 -20 6 16 3 4 -20 -20 -20 -20
10 -13 10 -19 -17 9 -20 -20 -20 -20 -20 -20 -1 1 10 10 11 14 15 22 16 2 7 -2 5 -7 -15 -20 -12 -19 -20 -20 -20 -20 -20 -3 -7 -20 -20 -20 -20 -20 -20
-12 -11 -9 18 -18 15 2 7 -15 -17 -20 -13 11 2 4 9 28 24 9 6 -13 -3 15 15 9 -12 -9 -6 -13 -16 -17 -20 -20 -3 -20 -20 -20 -20 -20 -20 -20 -20 -20
-20 -12 -4 27 19 5 10 -10 -4 -9 -6 -20 -20 20 12 -13 -4 -3 -20 -20 17 33 34 22 33 31 17 27 12 -20 -20 -20 -20 -20 -20 -20 -20 -20 -18 -15 -18 -8 -3
19 7 16 -13 -20 1 37 37 37 -7 21 -20 -18 5 -14 -20 -20 -20 -20 -17 39 39 48 48 47 39 34 -9 -20 -16 -20 -20 -20 -20 -20 -20 -8 -20 -20 -20 -18 -20 5
21 30 31 -1 20 12 25 0 -11 -1 -19 17 24 19 8 5 -14 -15 -16 2 -10 13 31 35 25 -15 -16 -19 -20 -20 -20 -20 -20 -20 -20 -20 -20 -20 -20 -20 -20 -20 -20
-1 26 29 30 31 14 5 1 -14 -18 -13 -9 -11 15 12 -13 -20 -20 -17 25 -9 28 -2 20 -6 -13 -19 -20 -20 -20 -20 -20 -20 -20 -20 -20 -20 -20 -20 -20 -20 -20 -20
4 22 28 29 9 2 23 -10 -17 -20 -20 8 31 5 -20 -20 -20 -20 -20 -20 -8 -19 -2 21 -20 -20 -20 -20 6 3 -20 -20 -19 -20 -20 -20 -20 -20 -20 -20 -20 -20 -20
-20 -20 -20 -20 -19 11 15 20 23 23 25 30 28 20 -18 3 19 -13 -11 -6 14 14 -19 -20 -20 -18 -18 -20 -19 -20 -20 -20 -20 -20 -20 -20 -20 -20 -20 -20 -20 -20 -20
0 5 5 -17 -20 11 33 37 42 34 24 21 12 -11 1 6 -20 -18 -19 14 14 4 2 7 9 9 -10 -7 -20 -20 -20 -20 -20 -20 -20 -20 -20 -20 -20 -20 -20 -20 -20

GFSGL_prec_radar_057.txt.gz
Reflectivity
-20 -20 -20 -20 -20 -20 -20 -20 -20 -20 -20 -20 -20 -20 -20 -20 -20 -20 -20 -20 -20 -20 -20 -20 -20 -20 -20 -20 -20 -20 -20 -20 -20 -20 -20 -20 -20 -20 -20 -20 -20 -20 -20
-20 -20 -20 -20 -20 -20 -20 -20 -20 -20 -20 -20 -20 -20 -20 -20 -20 -20 -20 -20 -20 -20 -20 -20 -20 -20 -20 -20 -20 -20 -20 -20 -20 -20 -20 -20 -20 -20 -20 -20 -20 -20 -20
-20 -20 -20 -20 -20 -20 -20 -20 -20 -20 -20 -20 -20 -20 -20 -20 -20 -20 -20 -20 -20 -20 -20 -20 -20 -20 -20 -20 -20 -20 -20 -20 -20 -20 -20 -20 -20 -20 -20 -20 -20 -20 -20
-20 -20 -20 -20 -20 -20 -20 -20 -20 -20 -20 -20 -20 -20 -20 -20 -20 -20 -20 -20 -20 -20 -20 -20 -20 -20 -20 -20 -20 -20 -20 -20 -20 -20 -20 -20 -20 -20 -20 -20 -20 -20 -20
-20 -20 -20 -20 -20 -20 -20 -20 -20 -20 -20 -20 -20 -20 -20 -20 -20 -20 -20 -20 -20 -20 -20 -20 -20 -20 -20 -20 -20 -20 -20 -20 -20 -20 -20 -20 -20 -20 -20 -20 -20 -20 -20
-20 -20 -20 -20 -20 -20 -20 -20 -20 -20 -20 -20 -20 -20 -20 -20 -20 -20 -20 -20 -20 -20 -20 -20 -20 -20 -20 -20 -20 -20 -20 -20 -20 -20 -20 -20 -20 -20 -20 -20 -20 -20 -20
-20 -20 -20 -20 -20 -20 -20 -20 -20 -20 -20 -20 -20 -20 -20 -20 -20 -20 -20 -20 -20 -20 -20 -20 -20 -20 -20 -20 -20 -20 -20 -20 -20 -20 -20 -20 -20 -20 -20 -20 -20 -20 -20
-20 -20 -20 -20 -20 -20 -20 -20 -20 -20 -20 -20 -20 -20 -20 -20 -20 -20 -20 -20 -20 -20 -20 -20 -20 -20 -20 -20 -20 -20 -20 -20 -20 -20 -20 -20 -20 -20 -20 -20 -20 -20 -20
-14 -20 -20 -20 -20 -20 -20 -20 -20 -20 -20 -20 -20 -20 -20 -20 -20 -20 -20 -20 -20 -20 -20 -20 -20 -20 -20 -20 -20 -20 -20 -20 -20 -20 -20 -20 -20 -20 -20 -20 -20 4 -12
-11 -20 -20 -20 -20 -20 -20 -20 -20 -20 -20 -20 -20 -20 -20 -20 -20 -20 -20 -20 -20 -20 -20 -20 -20 -20 -20 -20 -20 -20 -20 -20 -20 -20 -20 -20 -20 -20 -20 -20 -20 -20 -20
1 -16 -20 -20 -20 -20 -20 -20 -20 -20 -20 -20 -20 -20 -20 -20 -20 -20 -20 -20 -20 -20 -20 -20 -20 -20 -20 -20 -20 -20 -20 -20 -20 -20 -20 -20 -20 -20 -20 -20 -20 -20 3
21 -20 -20 -20 -20 -20 -20 -20 -20 -20 -20 -20 -20 -20 -20 -20 -20 -20 -20 -20 -20 -20 -20 -20 -20 -20 -20 -20 -20 -20 -20 -20 -20 -20 -20 -20 -20 -20 -20 -20 -20 -6 -9
-9 -16 -13 -20 -20 -20 -20 -20 -20 -20 -20 -20 -20 -20 -20 -20 -20 -20 -20 -20 -20 -20 -20 -20 -20 -20 -20 -20 -20 -20 -20 -20 -20 -20 -20 -20 -20 -20 -20 -20 -20 -20 -20
-20 -20 -20 -20 -20 -20 -20 -20 -20 -20 -20 -20 -20 -20 -20 -20 -20 -20 -20 -20 -20 -20 -20 -20 -20 -20 -0 -12 -20 -20 -20 -20 -20 -20 -20 -20 -20 -20 -20 -20 -20 2 -20
-20 -20 -20 -20 -20 -20 -20 -20 -20 -20 -20 -20 -20 -20 -20 -20 -20 -20 -20 -20 -20 -20 0 -20 -20 -20 -20 -20 -20 -20 -20 -20 -20 -20 2 4 -6 -19 -20 -20 -20 -20 -20
-20 -20 -20 -20 -20 -20 -20 -20 3 2 -5 -10 -20 -20 -20 -6 -20 -20 -20 -20 -20 -20 -20 -20 -20 -20 -20 -20 -20 -20 -20 -20 -20 6 2 -18 -0 -20 -20 -20 -20 -20 -20
-20 -20 -20 -20 -20 -20 -20 -20 -20 -11 -6 0 1 4 -20 -9 9 10 2 -20 -13 20 -20 -20 -20 -20 -20 -14 -20 -20 -20 13 10 0 -20 -20 -20 -20 -20 -20 -20 -20 -20
-20 -14 -10 -2 -16 -13 -20 -20 -20 -20 3 -20 7 -11 7 8 10 10 9 7 -13 -5 -20 -18 15 4 7 10 13 11 16 21 3 -13 -15 -20 -20 -20 -20 -20 -20 -20 -20
-20 -20 11 3 15 13 14 10 -20 -20 -1 -4 -20 3 18 22 13 16 18 4 -6 -20 -20 -13 -12 -13 2 13 26 39 34 30 24 1 -8 -20 -20 -20 -20 -20 -20 -20 -20
-20 7 3 19 -19 15 -4 28 -20 -20 0 -19 -20 4 -10 28 9 -16 -20 23 6 -20 -20 5 -7 8 28 31 46 37 30 30 28 30 17 10 -20 -20 -20 -20 -20 -20 -20
-14 -20 -20 -8 -18 -20 -18 29 34 12 -6 -19 8 -3 34 30 8 3 -20 -2 -7 -10 -16 -20 -20 18 4 17 26 32 37 20 18 25 2 -5 -20 -20 -20 -20 -20 -20 -20
0 10 1 -9 -20 28 -6 30 35 18 26 35 17 15 33 33 5 -16 -20 -20 -19 -16 -20 -20 -20 -20 -20 -6 9 20 28 33 22 21 5 -17 -20 -20 -20 -20 -20 -20 -20
17 19 22 20 3 8 24 33 31 31 26 47 42 30 15 20 26 11 -20 -20 -20 -20 -20 -20 -20 -20 -19 -10 -5 -8 19 23 20 18 -4 -20 -20 -20 -20 -20 -20 -20 -20
22 22 30 -3 4 10 25 27 30 31 29 32 39 36 35 29 -9 2 -19 -20 -20 -20 -20 -20 -3 -20 25 -15 -13 -6 -2 2 2 7 6 -20 -20 -20 -20 -20 -20 -20 -20
30 7 14 32 36 21 12 23 21 26 23 22 19 33 23 8 2 -9 -20 -14 6 -0 3 -16 -16 -9 7 23 -17 -20 -20 -13 -20 1 -20 -20 -20 -20 -20 -20 -20 -20 -20
11 -18 3 -20 -4 17 39 34 37 39 27 15 20 14 16 20 18 -6 13 -4 -20 -1 7 -5 -9 6 -14 -16 12 27 19 12 -13 -20 -20 -20 -20 -20 -20 -20 -20 -20 -20

GFSGL_prec_radar_060.txt.gz
Reflectivity
-20 -20 -20 -20 -20 -20 -20 -20 -20 -20 -20 -20 -20 -20 -20 -20 -20 -20 -20 -20 -20 -20 -20 -20 -20 -20 -20 -20 -20 -20 -20 -20 -20 -20 -20 -20 -20 -20 -20 -20 -20 -20 -20
-20 -20 -20 -20 -20 -20 -20 -20 -20 -20 -20 -20 -20 -20 -20 -20 -20 -20 -20 -20 -20 -20 -20 -20 -20 -20 -20 -20 -20 -20 -20 -20 -20 -20 -20 -20 -20 -20 -20 -20 -20 -20 -20
-20 -20 -20 -20 -20 -20 -20 -20 -20 -20 -20 -20 -20 -20 -20 -20 -20 -20 -20 -20 -20 -20 -20 -20 -20 -20 -20 -20 -20 -20 -20 -20 -20 -20 -20 -20 -20 -20 -20 -20 -20 -20 -20
-20 -20 -20 -20 -20 -20 -20 -20 -20 -20 -20 -20 -20 -20 -20 -20 -20 -20 -20 -20 -20 -20 -20 -20 -20 -20 -20 -20 -20 -20 -20 -20 -20 -20 -20 -20 -20 -20 -20 -20 -20 -20 -20
-20 -20 -20 -20 -20 -20 -20 -20 -20 -20 -20 -20 -20 -20 -20 -20 -20 -20 -20 -20 -20 -20 -20 -20 -20 -20 -20 -20 -20 -20 -20 -20 -20 -20 -20 -20 -20 -20 -20 -20 -20 -20 -20
-20 -20 -20 -20 -20 -20 -20 -20 -20 -20 -20 -20 -20 -20 -20 -20 -20 -20 -20 -20 -20 -20 -20 -20 -20 -20 -20 -20 -20 -20 -20 -20 -20 -20 -20 -20 -20 -20 -20 -20 -20 -20 -20
-20 -20 -20 -20 -20 -20 -20 -20 -20 -20 -20 -20 -20 -20 -20 -20 -20 -20 -20 -20 -20 -20 -20 -20 -20 -20 -20 -20 -20 -20 -20 -20 -20 -20 -20 -20 -20 -20 -20 -20 -20 -20 -20
-13 -20 -20 -20 -20 -20 -20 -20 -20 -20 -20 -20 -20 -20 -20 -20 -20 -20 -20 -20 -20 -20 -20 -20 -20 -20 -20 -20 -20 -20 -20 -20 -20 -20 -20 -20 -20 -20 -20 -20 -20 -20 -20
-14 -20 -20 -20 -20 -20 -20 -20 -20 -20 -20 -20 -20 -20 -20 -20 -20 -20 -20 -20 -20 -20 -20 -20 -20 -20 -20 -20 -20 -20 -20 -20 -20 -20 -20 -20 -20 -20 -20 -20 -20 7 8
-3 -19 -20 -20 -20 -20 -20 -20 -20 -20 -20 -20 -20 -20 -20 -20 -20 -20 -20 -20 -20 -20 -20 -20 -20 -20 -20 -20 -20 -20 -20 -20 -20 -20 -20 -20 -5 -20 -20 -20 -20 11 7
12 15 -6 -20 -20 -20 -20 -20 -20 -20 -20 -20 -20 -20 -20 -20 -20 -20 -20 -20 -20 -20 -20 -20 -20 -20 -20 -20 -20 -20 -20 -20 -20 -20 -20 -20 -20 -20 -20 -20 -20 -20 17
-9 12 7 -20 -20 -20 -20 -20 -20 -20 -20 -20 -20 -20 -20 -20 -20 -20 -20 -20 -20 -20 -20 -20 -20 -20 -20 -20 -20 -20 -20 -20 -20 -20 -20 -20 -20 -20 -20 -20 -20 -20 -19
-3 11 12 14 -7 -18 -20 -20 -20 -20 -20 -20 -20 -20 -20 -20 -20 -20 -20 -20 -20 -20 -20 -20 -20 -20 -20 -20 -20 -20 -20 -20 -20 -20 -20 -20 -20 -20 -20 -20 -19 -20 -6
27 4 9 14 5 -17 -20 32 -20 -20 -20 -20 -20 -20 -20 -20 -20 -20 -20 -20 -20 -20 -20 -20 -20 -20 -20 -20 -20 -20 -20 -20 -20 -20 -20 -20 -20 -20 -16 -20 -20 -20 -20
25 12 7 14 35 14 -6 -11 10 -20 2 -20 -20 -20 -20 -20 -20 -20 -20 -20 -20 -20 1 -16 -20 -20 -20 -20 -20 -20 -20 -20 -20 -20 -20 -20 -20 5 16 -18 -20 -20 -16
-10 -16 -14 0 13 -7 -9 -13 -10 13 -1 -20 32 -20 -20 -20 -20 -20 -11 6 -3 -2 -12 -20 -20 -20 -20 -20 -20 -20 -20 -20 -20 -20 -20 -20 1 -0 3 -20 -20 -20 -20
-20 -20 -20 3 -8 -11 -20 -20 -20 4 2 2 10 -9 -20 -19 10 -16 -20 13 14 20 -20 -20 -20 -20 -20 -20 -20 -20 18 -20 -20 -20 -20 14 3 -10 -19 -20 -20 -20 -20
-20 13 -13 -20 -20 -20 -20 -20 -20 -20 -20 -20 1 3 8 10 7 2 10 7 -11 1 -20 -20 -20 -20 -20 -7 -20 -20 -20 -20 -20 5 34 36 34 30 -6 -17 -20 -20 -20
-20 -20 -11 -15 -20 6 5 6 -20 -20 -20 -6 -20 0 -0 8 9 5 14 -20 -3 -20 -18 -20 -20 -20 -20 -20 -20 -20 8 -11 -20 4 23 29 33 32 20 28 -20 -7 -15
-19 14 4 -20 -20 -10 26 -12 -20 -20 -20 -20 13 2 -20 -2 2 -12 -8 -16 -17 -20 -20 -20 -20 -20 -17 -7 3 -2 33 14 4 -19 7 23 32 22 26 15 -0 -1 -20
-20 -20 9 -16 -20 -8 -20 30 -8 -20 -20 31 30 -2 17 18 -19 -16 36 27 -10 -20 -7 -12 4 1 -9 -16 33 -18 -18 -20 20 21 -3 -12 0 27 30 28 23 -20 -20
-4 -1 -20 -20 -20 -20 -20 -20 -20 -20 -16 -4 -15 8 26 13 2 22 -1 -3 17 29 -3 0 17 33 33 20 -11 -20 -20 -20 -20 -20 -15 -20 -12 25 19 27 22 -17 -20
2 5 -20 -19 -20 3 -19 -20 -20 -20 -6 2 20 -1 23 1 13 30 31 25 25 24 31 32 31 13 29 -20 -20 -20 -20 -20 -20 -20 -20 -20 -8 23 24 14 -1 -19 -10
12 11 9 -4 14 8 0 -4 18 20 -7 6 17 6 18 29 28 28 24 20 26 32 24 24 21 5 -20 -20 -20 -20 -20 -20 -20 -20 23 -20 -20 -10 9 11 7 3 -19
27 28 -5 -9 -2 3 14 19 13 21 12 -5 4 2 20 10 -4 19 20 25 23 27 -18 -20 -20 -20 -20 -20 -20 -20 8 1 -20 20 5 -20 -20 -20 -20 -20 -20 -20 -20
22 22 30 13 20 19 26 4 14 34 20 36 35 20 21 23 27 16 19 19 22 29 15 24 22 -14 8 -15 -0 20 -9 -12 -3 -12 -20 -20 -20 -20 -20 -20 -20 -20 -20

GFSGL_prec_radar_063.txt.gz
Reflectivity
-20 -20 -20 -20 -20 -20 -20 -20 -20 -20 -20 -20 -20 -20 27 -20 -20 -20 -20 -20 -20 -20 -20 -20 -20 -20 -20 -20 -20 -20 -20 -20 -20 -20 -20 -20 -20 -20 -20 -20 -20 -20 -20
-20 -20 -20 -20 -20 -20 -20 -20 -20 -20 -20 -20 -20 -20 -20 -20 -20 -20 -20 -20 -20 -20 -20 -20 -20 -20 -20 -20 -20 -20 -20 -20 -20 -20 -20 -20 -20 -20 -20 -20 -20 -20 -20
-20 -20 -20 -20 -20 -20 -20 -20 -20 -20 -20 -20 -20 -20 -20 -20 -20 -20 -20 -20 -20 -20 -20 -20 -20 -20 -20 -20 -20 -20 -20 -20 -20 -20 -20 -20 -20 -20 -20 -20 -20 -20 -20
-20 -20 -20 -20 -20 -20 -20 -20 -20 -20 -20 -20 -20 -20 -20 -20 -20 -20 -20 -20 -20 -20 -20 -20 -20 -20 -20 -20 -20 -20 -20 -20 -20 -20 -20 -20 -20 -20 -20 -20 -20 -20 -20
-20 -20 -20 -20 -20 -20 -20 -20 -20 -20 -20 -20 -20 -20 -20 -20 -20 -20 -20 -20 -20 -20 -20 -20 -20 -20 -20 -20 -20 -20 -20 -20 -20 -20 -20 -20 -20 -20 -20 -20 -20 -20 -20
-20 -20 -20 -20 -20 -20 -20 -20 -20 -20 -20 -20 -20 -20 -20 -20 -20 -20 -20 -20 -20 -20 -20 -20 -20 -20 -20 -20 -20 -20 -20 -20 -20 -20 -20 -20 -20 -20 -20 -20 -20 -20 -20
-20 2 -20 -20 -20 -20 -20 -20 -20 -20 -20 -20 -20 -20 -20 -20 -20 -20 -20 -20 -20 -20 -20 -20 -20 -20 -20 -20 -20 -20 -20 -20 -20 -20 -20 -20 -20 -20 -20 -20 -20 -20 -20
-20 -20 -20 -20 -20 -5 -20 -20 -20 -20 -20 -20 -20 -20 -20 -20 -20 -20 -20 -20 -20 -20 -20 -20 -20 -20 -20 -20 -20 -20 -20 -20 -20 -20 -20 -20 -20 -20 -20 -20 -20 -20 -20
-20 -20 -20 -20 -20 -20 -20 -20 -20 -20 -20 -20 -20 -20 -20 -20 -20 -20 -20 -20 -20 -20 -20 -20 -20 -20 -20 -20 -20 -20 -20 -20 -20 -20 -20 -20 -20 -20 -20 -20 -20 -20 -20
-20 -20 -20 -20 -20 -20 -20 -20 -20 -20 -20 -20 -20 -20 -20 -20 -20 -20 -20 -20 -20 -20 -20 -20 -20 -20 -20 -20 -20 -20 -20 -20 -20 -20 -20 -20 0 -20 -20 -20 -20 8 -18
-20 -20 -20 -20 -20 -5 -20 -20 29 -20 -20 -20 -20 -20 -20 -20 -20 -20 -20 -20 -20 -20 -20 -20 -20 -20 -20 -20 -20 -20 -20 -20 -20 -20 -20 -20 -20 -20 -20 -20 -20 -20 -20
-20 -20 -20 -20 -20 -20 -20 -13 15 -20 -20 -20 -20 -20 -20 -20 -20 -20 -20 -20 -20 -20 -20 -20 -20 -20 -20 -20 -20 -20 -20 -20 -20 -20 -20 -20 -20 -20 -20 -20 -20 -20 6
-1 -20 -20 -20 -20 -20 -20 -13 -20 -20 -20 -20 -20 -20 -20 -20 -20 -20 -20 -20 -20 -20 -20 -20 -20 -20 -20 -20 -20 -20 -20 -19 -20 -20 -20 -20 -20 -20 -20 -20 -20 -20 10
16 -18 -10 -20 4 -13 -20 -18 -17 -20 -20 -20 -20 -20 -20 -20 -20 -20 -20 -20 -20 -20 -20 -20 -20 -20 -20 -20 -20 -20 -20 -20 -20 -20 -20 -20 -20 -20 -20 -20 -20 -20 -12
-20 -19 -20 -20 -3 -7 -20 5 -20 -20 -20 -20 -20 -20 -20 -20 -20 -20 -20 -20 -20 -20 -20 -20 -20 -20 -20 -20 -20 -20 -20 -20 -20 -20 -20 -20 -20 -20 -20 -20 -20 -19 -20
-20 -20 -20 -20 -20 -19 -16 -16 4 1 -12 -20 -20 -20 -20 -20 -20 -20 -20 12 13 13 -13 -20 -20 -20 -20 -20 -20 -20 -20 -20 -20 -20 -20 -20 -20 -20 -20 -20 -13 -9 -16
-20 -20 -20 -20 -19 11 24 -2 -20 -0 7 11 8 -12 -7 -20 4 -2 7 11 14 15 -20 -20 -20 -20 -20 -20 -20 -20 -20 -20 -20 -20 -20 -20 -20 -20 -7 -20 -11 5 17
-20 -20 -20 -20 -20 -18 -6 -12 17 -11 -20 -20 5 9 13 9 12 10 8 38 -5 5 -16 -18 0 10 -8 -20 -20 -20 -18 -4 -12 -20 -20 -20 -20 -18 -16 -20 -20 -20 -20
-20 -20 -20 -20 -19 -8 14 -12 4 30 9 -20 -20 3 5 11 9 8 11 13 11 15 -18 -20 -20 -18 -15 -18 -17 -18 -17 -17 -20 -7 5 -17 -7 15 -19 -20 -20 -20 -15
-20 -20 -20 -20 -19 -20 -5 -2 9 -1 2 -7 -20 -20 -20 -6 6 -20 -19 35 16 17 -11 -20 -15 -14 -14 -6 -13 4 -12 -9 1 3 36 32 -4 -20 -20 -10 -2 -12 -19
-20 -20 -20 -20 -20 -20 1 1 3 -20 -19 -20 -20 -8 14 -20 -11 -19 8 19 15 33 -9 -20 -19 -19 -20 -10 -11 -5 33 20 9 13 21 31 30 -20 -20 -20 -20 -20 17
-20 -20 -20 -20 -20 -0 -17 -20 -20 -20 -19 -15 -20 -11 14 -20 -20 -20 -18 -20 -20 -20 16 -4 -2 19 20 9 7 18 33 31 31 22 26 4 -20 -20 -20 -20 -20 16 20
-20 -20 -11 -13 7 19 -4 -20 -20 -20 -20 -20 -20 -20 -20 -20 -20 -18 -18 -20 -19 10 -9 -10 21 -7 -0 25 8 22 29 19 21 27 11 -20 -20 -20 -20 -20 -20 7 -7
2 4 -2 19 12 1 -18 -11 -19 14 -2 -20 -20 -20 -20 -20 -8 9 19 27 26 12 33 18 10 -8 19 38 30 27 29 23 23 -11 -20 -20 -20 -20 -20 -20 -20 -20 -20
17 22 21 17 18 -10 13 19 -2 2 1 13 -9 -16 -19 -20 -16 15 15 24 9 28 27 22 24 9 10 19 27 12 10 9 -20 -20 -20 -20 -16 -18 10 -20 -20 -20 -20
18 23 19 21 24 12 16 21 8 -2 -8 13 20 19 3 17 -10 0 17 17 21 -2 -20 -3 -8 8 24 20 13 20 14 22 17 16 9 -0 12 17 -20 -20 -20 -20 -20

GFSGL_prec_radar_066.txt.gz
Reflectivity
-20 -20 -20 -20 -20 -20 -20 -20 -20 -20 -20 -20 -20 -20 -20 -20 -20 3 -20 -20 -20 -20 -20 -20 -20 -20 -20 -20 -20 -20 -20 -20 -20 -20 -20 -20 -20 -20 -20 -20 -20 -20 -20
-20 -20 -20 -20 -20 -20 -20 -20 -20 -20 -20 -20 -20 -20 -20 -20 -20 -20 -20 -20 -20 -20 -20 -20 -20 -20 -20 -20 -20 -20 -20 -20 -20 -20 -20 -20 -20 -20 -20 -20 -20 -20 -20
-20 -20 -20 -20 -20 -20 -20 -20 -20 -20 -20 -20 -20 -20 -20 -20 -20 -20 -20 -20 -20 -20 -20 -20 -20 -20 -20 -20 -20 -20 -20 -20 -20 -20 -20 -20 -20 -20 -20 -20 -20 -20 -20
-20 -20 -20 -20 -20 -20 -20 -20 -20 -20 -20 -20 -20 -20 -20 -20 -20 -20 -20 -20 -20 -20 -20 -20 -20 -20 -20 -20 -20 -20 -20 -20 -20 -20 -20 -20 -20 -20 -20 -20 -20 -20 -20
-20 -20 -20 -20 -20 -20 -20 -20 -20 -20 -20 -20 -20 -20 -20 -20 -20 -20 -20 -20 -20 -20 -20 -20 -20 -20 -20 -20 -20 -20 -20 -20 -20 -20 -20 -20 -20 -20 -20 -20 -20 -20 -20
-20 -20 -20 -20 -20 -20 -20 -20 -20 -20 -20 -20 -20 -20 -20 -20 -20 -20 -20 -20 -20 -20 -20 -20 -20 -20 -20 -20 -20 -20 -20 -20 -20 -20 -20 -20 -20 -20 -20 -20 -20 -20 -20
-20 -20 -20 -20 -20 -20 -20 -20 -20 -20 -20 -20 -20 -20 -20 -20 -20 -20 -20 -20 -20 -20 -20 -20 -20 -20 -20 -20 -20 -20 -20 -20 -20 -20 -20 -20 -20 -20 -20 -20 -20 -20 -20
-20 -20 -20 -20 -20 -20 -20 -20 -20 -20 -20 -20 -20 -20 -20 -20 -20 -20 -20 -20 -20 -20 -20 -20 -20 -20 -20 -20 -20 -20 -20 -20 -20 -20 -20 -20 -20 -20 -20 -20 -20 -20 -20
-20 -20 -20 -20 -20 -20 -20 -20 -20 -20 -20 -20 -20 -20 -20 -20 -20 -20 -20 -20 -20 -20 -20 -20 -20 -20 -20 -20 -20 -20 -20 -20 -20 -20 -20 -20 -20 -20 -20 -20 -20 -20 -20
-20 -20 -20 -20 -20 -20 24 28 16 -20 -20 -20 -20 -20 -20 -20 -20 -20 -20 -20 -20 -20 -20 -20 -20 -20 -20 -20 -20 -20 -20 -20 -20 -20 -20 -17 4 -20 -20 -20 -20 -20 -20
-20 -20 -11 -20 -20 -20 -13 -20 -16 -20 -20 -20 -20 -20 -20 -20 -20 -20 -20 -20 -20 -20 -20 -20 -20 -20 -20 -20 -20 -20 -20 -20 -20 -20 -20 -20 -20 -20 -20 -20 -20 -20 -17
-2 -13 -12 4 -20 -20 -15 -2 -11 -20 -20 -20 -20 -20 -20 -20 -20 -20 -20 -20 -20 -20 -20 -20 -20 -20 -20 -20 -15 -20 -20 -3 -20 -20 -20 -20 -20 -20 -20 -20 -20 -20 -20
-20 -20 5 9 -20 -20 -20 -18 28 6 -20 -20 -20 -20 -20 -20 -20 -20 -20 -20 -20 -20 -20 -20 -20 -20 -20 -20 -20 -20 -20 -18 -20 -20 -20 -20 -20 -20 -20 -20 -20 -20 -20
-20 -16 -20 -20 -16 -20 -4 -16 -20 -20 -20 -20 -20 -20 -20 -20 -20 -20 -20 -20 -20 -20 -20 -20 -20 -20 -20 -20 -20 -20 -20 -20 -20 -20 -20 -20 -20 -20 -20 -20 -20 -20 -6
-20 2 -20 -19 13 7 -10 1 8 -20 -20 -20 -20 -20 -20 -20 -20 -1 -20 -20 -20 -20 -20 -20 -20 -20 -20 -20 -20 -20 -20 -20 -20 -20 -20 -20 -20 -20 -20 -20 -20 -11 -10
-10 -2 -12 -20 -10 -18 -20 -20 8 10 7 -20 -20 -20 -20 -20 -18 -20 -19 12 10 9 -14 -20 -20 -20 -20 -20 -20 -20 -20 -20 -20 -20 -20 -20 -20 -20 -20 -20 -20 -20 -20
-20 -20 -20 -7 -20 -20 -20 -20 -20 -13 10 10 10 -3 -20 -20 2 22 11 12 32 15 -20 -20 -20 -20 -20 -20 -20 -20 -20 -20 -20 -20 -20 -20 -20 -20 -19 -20 -20 -20 -20
-20 6 -14 -20 -20 -20 -20 -3 -20 -11 -13 -20 7 9 13 14 11 11 13 12 -12 5 -20 -14 -15 -20 -20 -20 -17 -20 -7 -20 -19 -19 -20 -20 -20 -20 -20 -20 -15 -20 2
-20 -20 -20 -20 -8 -9 -20 -20 -13 -20 -9 -9 -15 3 6 8 18 17 8 -20 -20 -20 -20 -20 -20 -20 -20 -19 -10 -20 -20 -20 -20 -19 -20 -20 -7 -16 -15 -20 -12 9 15
-20 -9 -17 -5 -19 -20 -20 -10 -5 -5 15 4 2 -8 23 10 -18 -20 -20 -20 -20 -20 -20 -20 -20 -1 4 -19 -8 -3 -18 -16 -20 -20 -20 -12 -12 -12 -4 13 8 8 -20
-19 13 16 -11 -20 -20 -20 -4 -20 -10 -20 6 -0 -6 11 -9 2 -4 -20 -20 -20 -14 32 -13 14 -19 35 -15 -19 7 21 -20 -19 -3 -3 -4 28 29 28 33 29 20 -20
-5 -20 -7 -12 -20 -20 -20 -4 -13 -13 -20 2 -20 0 16 30 -9 -20 -20 -20 -20 -20 -20 3 -8 -20 -20 -20 -18 -14 -12 -20 -9 -15 -8 -11 -9 17 29 27 25 25 -20
-20 -20 10 5 -12 15 -13 -20 6 -2 -9 17 3 -11 -8 -4 8 -20 -20 -20 -15 -20 -20 -20 -16 -14 -20 -20 -20 -20 -20 -8 -15 -20 -20 -15 26 -4 14 20 -14 -20 -10
-20 -20 -13 -9 -15 11 1 -20 -13 5 6 11 7 11 -3 -16 -20 -20 -20 -19 10 6 9 -7 16 -13 -15 -14 -3 13 3 -11 -20 -1 6 24 28 16 23 15 -14 8 -0
-16 -20 -4 19 14 -9 -9 -7 -17 -1 1 4 20 14 4 -2 10 11 -6 5 7 9 9 3 -3 1 28 31 24 23 8 -11 -20 -19 -20 7 31 25 20 20 -1 -13 -17
-5 9 -6 -17 -11 3 -1 15 6 15 8 10 8 9 14 3 10 6 9 -4 -3 14 -6 1 4 6 7 12 21 25 20 20 20 -4 -18 -7 8 38 25 -16 -1 13 15

GFSGL_prec_radar_069.txt.gz
Reflectivity
-20 -20 -20 -20 -20 -20 -20 -20 -20 -20 -20 -20 -20 -20 -20 -20 -20 -20 -20 -20 -20 -20 -20 -20 -20 -20 -20 -20 -20 -20 -20 -20 -20 -20 -20 -20 -20 -20 -20 -20 -20 -20 -20
-20 -20 -20 -20 -20 -20 -20 -20 -20 -20 -20 -20 -20 -20 -20 -20 -20 -20 -20 -20 -20 -20 -20 -20 -20 -20 -20 -20 -20 -20 -20 -20 -20 -20 -20 -20 -20 -20 -20 -20 -20 -20 -20
-20 -20 -20 -20 -20 -20 -20 -20 -20 -20 -20 -20 -20 -20 -20 -20 -20 -20 -20 -20 -20 -20 -20 -20 -20 -20 -20 -20 -20 -20 -20 -20 -20 -20 -20 -20 -20 -20 -20 -20 -20 -20 -20
-20 -20 -20 -20 -20 -20 -20 -20 -20 -20 -20 -20 -20 -20 -20 -20 -20 -20 -20 -20 -20 -20 -20 -20 -20 -20 -20 -20 -20 -20 -20 -20 -20 -20 -20 -20 -20 -20 -20 -20 -20 -20 -20
-20 -20 -20 -20 -20 -20 -20 -20 -20 -20 -20 -20 -20 -20 -20 -20 -20 -20 -20 -20 -20 -20 -20 -20 -20 -20 -20 -20 -20 -20 -20 -20 -20 -20 -20 -20 -20 -20 -20 -20 -20 -20 -20
-20 -20 -20 -20 -20 -20 -20 -20 -20 -20 -20 -20 -20 -20 -20 -20 -20 -20 -20 -20 -20 -20 -20 -20 -20 -20 -20 -20 -20 -20 -20 -20 -20 -20 -20 -20 -20 -20 -20 -20 -20 -20 -20
22 -11 -8 -20 -20 -20 -20 -20 -20 -20 -20 -20 -20 -20 -20 -20 -20 -20 -20 -20 -20 -20 -20 -20 -20 -20 -20 -20 -20 -11 -20 -20 -20 -20 -20 -20 -20 -20 -20 -20 -20 -12 -20
28 25 13 -13 -20 -20 -20 -20 -20 -20 -20 -20 -20 -20 -20 -20 -20 -20 -20 -20 -20 -20 -20 -20 -20 -20 -20 -20 -20 -20 -20 -20 -20 -20 -20 -20 -20 -20 -20 -20 6 -20 -20
27 28 13 -20 -20 -20 -20 -20 -20 -20 -20 -20 -20 -20 -20 -20 -20 -20 -20 -20 -20 -20 -20 -20 -20 -20 -20 -20 -20 -20 -20 -20 -20 -20 -20 -20 -20 -20 -9 -20 -20 -20 -20
-17 24 -20 -16 -20 9 -20 -20 -20 -20 -20 -20 -20 -20 -20 -20 -20 -20 -20 -20 -20 -20 -20 -20 -20 -20 -20 -20 -20 -20 -20 -20 -20 -20 -20 3 8 -20 -7 -20 -20 -20 -20
-20 13 37 1 -20 -20 -17 12 9 8 -17 -20 -20 -20 -20 -20 -20 -20 -20 -20 -20 -20 -20 -20 -20 -20 -20 -20 -9 -20 -20 -16 -20 -20 -20 -20 -20 -20 -20 -20 -20 -20 -20
2 -20 -16 11 16 -9 -20 -20 10 14 16 8 5 -20 -20 -20 -20 -20 -20 -20 -20 -20 -20 -20 -20 -20 -20 -20 8 -20 -20 9 -20 -20 -20 -20 -20 -20 -20 -20 -20 -20 -20
14 -19 -20 -20 2 21 -20 -20 -20 8 15 15 11 1 -20 -20 -20 -20 -20 -20 -20 -20 -20 -20 -20 -20 -20 7 -20 -20 4 -18 -20 -20 -20 -20 -20 -20 -20 -20 -20 -20 -20
-20 -20 -20 -20 -16 13 -17 -20 -20 -20 -1 2 13 2 -20 -20 -20 -20 -20 -20 -20 -20 -20 -20 -20 -16 -20 -20 -20 -5 -20 -20 -20 -20 -20 -20 -20 -20 -20 -20 -20 -20 -20
-20 -10 -16 -20 -16 -20 -20 -16 -15 -9 -16 -20 -17 -13 -20 -20 -20 -20 -20 -20 -20 -20 -20 -20 -20 -20 -20 -20 -20 -20 -20 -20 -20 -20 -20 -20 -20 -20 -20 -20 -20 -20 -20
-20 -20 -2 -19 -20 -20 -20 -20 -16 -5 -16 -3 4 3 -20 -20 -20 -20 -3 6 7 7 -16 -20 -20 -20 -20 -20 -20 -20 -20 -20 -20 -20 -20 -20 -20 -20 -20 -20 -20 -20 -20
5 11 14 2 -14 -20 -20 -20 -20 -19 8 7 10 11 10 -20 25 5 29 28 12 12 -18 -20 -20 -20 -20 -20 -20 -20 -20 -20 -20 -20 -20 -20 -20 -20 -19 -20 -20 -20 -20
8 19 9 8 -19 -18 -16 -20 -20 -20 -20 -20 -3 11 10 10 8 14 10 13 -12 3 -20 1 1 -3 -16 -5 -18 -20 -20 -20 -7 -0 -20 -20 -20 -20 -20 -20 -20 -20 3
8 -20 -14 0 -1 -12 -4 -13 -10 -20 -15 -20 -20 -9 5 8 25 34 23 -20 -20 -20 -20 -12 1 5 6 1 -3 -2 3 -20 -20 -12 -1 -20 -20 -11 -12 -17 -15 -7 -5
2 13 1 -20 -9 -0 -14 0 4 -14 -20 -18 -20 -20 -20 -13 -20 -20 -18 -2 -20 6 6 -20 -20 2 4 6 6 2 8 -20 -20 -19 -5 5 -11 -20 3 3 -10 -20 -16
4 -14 17 9 6 -6 -20 -18 -16 5 -8 -20 -20 -20 15 8 -20 -20 -18 -17 -11 -19 5 8 4 -1 4 9 10 -16 3 -20 -20 -20 12 12 -12 19 -7 -20 -20 -20 -17
2 9 2 11 15 8 -2 -18 -11 4 4 -15 -20 -20 6 5 -16 4 -6 16 25 25 13 6 9 6 -5 -3 4 4 -20 -20 -20 -20 10 -3 17 -13 -20 -20 -6 -20 -14
8 -4 7 9 11 17 -6 8 -20 -20 -12 -4 1 -0 3 -16 -6 -6 -12 11 21 21 31 4 20 32 -15 -20 -20 -20 -20 -20 -20 -20 -6 16 13 -4 -18 -20 -20 -20 -20
9 7 10 13 10 14 13 -15 -12 6 -11 1 6 3 8 1 -7 5 14 13 10 18 30 13 27 18 -20 -20 4 -17 -13 -2 -20 -20 -20 6 13 11 -19 -20 -20 -20 -20
6 6 -16 7 -17 -20 -13 -11 -19 -14 -14 -13 -14 -10 -20 -20 -7 4 16 16 20 10 -15 9 17 -13 5 1 -20 -20 16 13 4 24 28 25 3 26 22 20 -0 -19 0
6 3 -7 -13 -19 -15 -14 -18 -20 -12 -11 -8 -20 -16 -14 9 6 -1 10 14 -1 4 1 5 -2 -1 8 8 4 18 19 12 23 16 6 23 21 18 0 -2 24 24 28

GFSGL_prec_radar_072.txt.gz
Reflectivity
-20 -20 -20 -20 -20 -20 -20 -20 -20 -20 -20 -20 -20 -20 -20 -20 -20 -20 -20 -20 -20 -20 -20 -20 -20 -20 -20 -20 -20 -20 -20 -20 -20 -20 -20 -20 -20 -20 -20 -20 -20 -20 -20
-20 -20 -20 -20 -20 -20 -20 -20 -20 -20 -20 -20 -20 6 -20 -20 -20 -20 -20 -20 -20 -20 -20 -20 -20 -20 -20 -20 -20 -20 -20 -20 -20 -20 -20 -20 -20 -20 -20 -20 -20 -20 -20
-20 -20 -20 -20 -20 -20 -20 -20 -20 -20 -20 -20 -20 -20 -12 -17 -20 -15 -20 -20 -20 -20 -20 -20 -20 -20 -20 -20 -20 -20 -20 -20 -20 -20 -20 -20 -20 -20 -20 -20 -20 -20 -20
-20 -20 -20 -20 -20 -20 -20 -20 -20 -20 -20 -20 -20 -20 -20 -20 -20 -20 -20 -20 -20 -20 -20 -20 -20 -20 -20 -18 -20 -20 -20 -20 -20 -20 -20 -20 -20 -20 -20 -20 -20 -20 -20
-20 -20 -20 -20 -20 -20 -20 -20 -20 -20 -20 -20 -20 -20 -20 -20 -20 -20 -20 24 -20 -20 -20 -20 -20 -20 -20 -20 -20 -20 -20 -20 -20 -20 -20 -20 -20 -20 -20 -20 -20 -20 -20
15 -20 -20 -20 -20 -20 -20 -20 -20 -20 -20 -20 -20 -20 -20 -20 -20 -20 -20 -20 -20 -20 -20 -20 -20 -20 -20 -20 -20 -20 -20 -20 -20 -20 -20 -20 -20 -20 -20 -20 -20 -20 -20
20 11 -20 -20 -15 -20 -20 -20 -20 -20 -20 -20 -20 -20 -20 -20 -20 -20 -20 -20 -20 -20 -20 -20 -20 -20 -20 -20 -20 -20 -20 -20 -20 -20 -20 -20 -20 -20 -20 -20 -20 -20 -20
24 -5 -11 -20 -14 2 8 1 -15 -20 -20 -20 -20 -20 -20 -20 -20 -20 -20 -20 -20 -20 -20 -20 -20 -20 -20 -20 -20 -20 -20 -20 -20 -20 -20 -20 -20 -20 -20 -20 -20 -20 -20
22 20 4 2 10 -17 -1 5 4 1 2 -20 -20 -20 -20 -20 -20 -20 -20 -20 -20 -20 -20 -20 -20 -20 -20 -20 -20 -20 -20 -20 -20 -20 -20 -20 -20 -20 -9 -20 -20 -20 -20
-20 -8 0 3 10 26 8 2 21 4 21 5 -20 -20 -20 -20 -20 -20 -20 -20 -20 -20 -20 -20 -20 -20 -20 -20 -20 -20 -20 -20 -20 -20 -20 -20 5 -20 -16 -10 -20 -20 -20
-20 -20 -6 -20 1 18 9 11 26 29 19 26 -1 1 -18 -20 -20 -20 -20 -20 -20 -20 -20 -20 -20 -20 -20 -20 -20 -20 -20 -20 -20 -20 -20 -20 -20 -20 -20 -20 -20 -20 -20
-20 -19 -20 -20 -20 -7 21 27 6 26 30 29 27 1 5 -20 -20 -20 -20 -20 -20 -20 -20 -20 -20 -20 -20 -20 -12 -20 -20 5 -20 -20 -20 -20 -20 -20 -20 -20 -20 -20 -20
-20 -20 -19 -20 -20 -19 -17 6 12 8 3 29 28 -19 -4 -20 -20 -20 -20 -20 -20 -20 -20 -20 -20 -20 -20 -18 -20 -20 -0 -18 -20 -20 -20 -20 -20 -20 -20 -20 -20 -20 -20
-20 -20 -20 -20 -10 -20 -20 -20 -20 -20 10 -17 4 15 18 5 -20 -20 -20 -20 1 -3 -20 -20 -20 -20 -16 -20 -20 -3 -20 -20 -20 -20 -20 -20 -20 -20 -20 -20 -20 -20 -20
-20 -20 -20 -20 -19 -3 -11 -20 -20 -20 -1 27 -1 4 6 -20 -20 -6 -15 -20 -20 -20 -19 -20 -20 -20 -20 -20 -20 -20 -20 -20 -20 -20 -20 -20 -20 -20 -20 -20 -20 -20 -20
-20 -20 -20 -20 -20 -20 -20 -20 -20 -20 -20 17 -5 9 -20 -11 -15 -20 -8 35 19 -3 -20 -20 -20 -20 -20 -20 -20 -20 -20 -20 -20 -20 -20 -20 -20 -20 -20 -20 -20 -20 -20
-20 1 -18 -13 -20 -20 -20 -20 -20 -20 -20 10 7 -17 -7 -20 3 7 6 14 4 2 -20 1 -20 -20 -20 -20 -20 -20 -20 -20 -20 -20 -20 -20 -20 -20 -20 -20 -20 -20 -20
-2 14 1 -20 -20 -4 -10 -20 -20 -20 -20 -20 -19 11 -6 5 15 10 29 31 1 13 -20 -16 -9 -17 -20 4 -20 -20 -20 -20 -20 -20 -20 -20 -20 -20 -20 -20 -20 -20 -20
9 -7 -15 -2 -5 -10 -8 -6 -20 -20 -20 -20 -20 -20 -11 2 2 1 12 -20 0 -1 -3 -20 -20 -10 7 4 3 3 -7 -16 -20 -20 -20 -20 -20 -20 -20 -20 -20 -20 -20
1 18 11 -4 -15 -2 -2 -4 -19 -20 -20 -20 -20 -20 -20 12 16 -20 -20 -20 -20 -20 -17 -13 -15 -19 -20 -5 16 13 14 15 1 4 1 5 3 -17 -20 -20 -20 -20 -2
1 -1 16 -2 -0 -2 4 -4 -8 -20 -19 -20 -20 -20 -20 -20 -20 -20 -5 -20 -14 -4 -20 -20 -3 -18 -20 -12 13 14 11 14 7 -18 3 7 10 -19 -16 7 6 3 -12
10 7 9 -3 -10 1 6 -6 10 3 -16 -20 -20 -20 -20 -20 -20 -20 -19 23 10 -20 -20 -20 2 -18 2 10 -11 23 31 21 -4 -1 -7 -7 2 -19 -5 1 -0 -1 5
13 10 -2 0 11 16 3 6 -2 -1 -11 -9 -19 -17 -20 -20 -20 -20 -20 -4 -7 -20 -20 -20 2 31 25 19 8 -19 -5 10 12 6 -8 -12 5 -10 -4 -7 24 20 -1
17 13 11 8 15 18 16 6 -3 14 3 -17 -20 -20 -20 -20 -20 5 10 -18 -20 -20 -20 -19 -10 -14 -19 14 25 30 -0 17 9 18 10 6 0 33 -4 -10 -6 -2 -6
-0 12 9 8 7 9 7 7 -13 6 11 10 5 5 -2 -20 -20 -20 -20 -19 -20 -20 -20 -15 -2 -8 -20 -20 -17 5 17 28 27 26 26 27 31 31 30 28 7 -3 -9
-1 -0 10 12 10 -2 -3 -12 -18 7 -11 8 -2 -5 -17 -20 -20 -20 -20 -17 -19 -20 -14 -9 0 7 -16 -20 14 20 4 8 19 19 17 5 -1 9 19 2 -17 -20 -20

GFSGL_prec_radar_075.txt.gz
Reflectivity
-20 -20 -20 -20 -20 -20 -20 -20 -20 -20 -20 -18 -11 -10 -20 -20 -20 -20 -7 -14 -20 -20 -20 -20 -20 -20 -20 -20 -20 -20 -20 -20 -20 -20 -20 -20 -20 -20 -20 -20 -20 -20 -20
-20 -20 -20 -20 -20 -20 -20 -20 -20 -20 -20 -20 -20 -20 -20 -20 -20 -20 -20 -20 -20 -20 -20 -20 -20 -20 -20 -20 -20 -20 -20 -20 -20 -20 -20 -20 -20 -20 -20 -20 -20 -20 -20
-20 -20 -20 -20 -20 -20 -20 -20 -20 -20 -20 -20 -20 -20 -20 -20 -20 10 -20 -20 -20 -20 -20 -20 -20 -20 -20 -20 -15 -20 -20 -20 -20 -20 -20 -20 -20 -20 -20 -20 -20 -20 -20
14 13 -20 -20 -20 -20 -20 -20 -20 -20 -20 -20 -20 -20 -20 -20 -20 -20 4 27 -20 -20 -20 -20 -20 -20 -20 -20 -20 -20 -20 -20 -20 -20 -20 -20 -20 -20 -20 -20 -20 -20 -20
14 -20 12 -18 -20 -20 -20 -20 -20 -20 -20 -20 -20 -20 -20 -20 -20 -20 -20 -20 32 -20 -20 -20 -20 -20 -20 -20 -20 8 -20 -20 -20 -20 -20 -20 -20 -20 -20 -20 -20 -20 -20
25 23 -11 -20 -20 -5 -20 -20 -20 -20 -20 -20 -20 -20 -20 -20 -20 -20 -20 -20 -20 -20 -20 -20 -20 -20 -20 -20 -20 -20 -20 -20 -20 -20 -20 -20 -20 -20 -20 -20 -20 -20 -20
29 0 -20 -16 -13 -15 18 14 2 -20 -15 -20 -20 -20 -20 -20 -20 -20 -20 -20 -20 -11 16 -20 -20 -20 -20 -20 -20 -20 -20 -20 -20 -20 -20 -20 -20 -20 -20 -20 -20 -20 -20
-18 8 1 -6 -20 -20 0 13 22 11 9 3 -20 -20 -20 -20 -20 -20 -20 -20 -20 -20 -20 1 -20 -20 -20 -20 -20 -20 -20 -20 -20 -20 -20 -20 -20 -20 -20 -20 -20 -20 -20
-20 -15 12 -8 -20 -14 -20 -14 26 5 2 -7 -16 3 4 -20 -20 -20 -20 -20 -20 -20 -20 -20 -20 -20 -20 -20 -20 -20 -20 -20 -20 -20 -20 -20 -20 -20 -20 -20 -20 -20 -20
-20 -20 -20 -20 -13 22 -1 -17 -20 26 16 5 -11 -12 -20 -10 -20 -20 -20 -20 -20 -20 -20 -20 -20 -20 -20 -20 -20 -20 -20 -20 -20 -20 -20 -20 -20 -20 -20 -19 -20 -20 -20
-20 -20 -20 -20 -20 -20 5 -4 -20 -20 27 13 -13 -20 -14 -5 -6 -20 -20 -20 -20 -20 -20 -20 -20 -20 -20 -20 -20 -20 -20 -20 -20 -20 -20 -20 -20 -20 -20 -20 -20 -20 -20
-20 -20 -20 -20 -20 -20 -20 -20 -20 -20 -6 17 16 -9 -10 -19 -20 -20 -20 -20 -20 -20 -20 -20 -20 -20 -20 -20 -20 -20 -20 -17 -20 -20 -20 -20 -20 -20 -20 -20 -20 -20 -20
-20 -20 -20 -20 -20 -20 -20 -20 -20 -20 -20 -20 18 -20 -20 -20 -15 -20 -20 -20 -20 -20 -20 -20 -20 -20 -20 -20 -20 -20 -20 -20 -20 -20 -20 -20 -20 -20 -20 -20 -20 -20 -20
-20 -20 -20 -20 -20 -20 -20 -20 -20 -20 -20 -20 2 -20 15 28 9 -20 -19 27 -11 -6 -20 -20 -20 -20 -20 -20 -9 -20 -20 -20 -20 -20 -20 -20 -20 -20 -20 -20 -20 -20 -20
-20 -20 -20 -20 -20 -20 -20 -20 -20 -19 -20 -20 -7 -16 -20 24 7 10 11 32 28 14 32 -20 -20 -20 -20 -20 -20 -20 -20 -20 -20 -20 -20 -20 -20 -20 -20 -20 -20 -20 -20
-20 -20 -20 -20 -20 -20 -20 -20 -20 -20 -20 -20 -20 -19 -20 -20 24 23 33 35 18 15 -4 -18 -20 -20 -20 -20 -20 -20 -20 -20 -20 -20 -20 -20 -20 -20 -20 -20 -20 -20 -20
-4 -20 -20 -20 -20 -20 -20 -20 -20 -20 -20 -20 -20 -16 -19 -20 -20 -2 5 10 10 18 -3 29 -9 -20 -20 -20 -20 -20 -20 -20 -20 -20 -20 -20 -20 -20 -20 -20 -20 -20 -20
-5 -1 -18 -20 -20 -20 -20 -20 -20 -20 -20 -20 -20 -20 -20 -20 -19 7 8 11 -1 -1 -20 -12 0 -20 -20 -20 -20 -20 -20 -20 -11 -20 -20 -20 -20 -20 -20 -20 -20 -20 -20
-5 -4 -1 -2 -6 -10 -20 -20 -20 -20 -20 -20 -20 -20 -20 -20 -20 -2 -1 -20 -20 -20 -20 -20 -20 -20 -20 -20 -20 4 -20 -20 -20 -19 -3 2 1 9 -9 -20 -20 -20 -20
-3 4 8 3 -5 -20 -14 -19 -20 -20 -20 -20 -20 -20 -20 -20 -20 -20 -20 -20 -20 -20 -20 -20 -20 -20 -20 -20 -16 -19 8 10 -20 -20 -20 -6 16 21 23 19 17 25 24
3 5 15 11 2 6 6 -19 0 -20 -20 -20 -20 -20 -20 -20 -20 -20 -20 -20 -20 -17 -20 -20 9 31 -18 3 32 -17 -8 -9 -19 -20 -20 -20 -17 -7 -8 3 -16 -18 31
5 3 3 7 4 1 9 6 -20 -3 3 -20 -20 -20 -20 -20 -20 -20 -20 -20 -20 -20 -20 -14 -10 -20 31 -7 27 13 -20 -8 -5 -19 -20 -18 -20 12 8 15 6 7 1
9 8 8 9 7 12 13 3 -16 -2 -4 7 -10 -20 -20 -20 -20 -20 -20 -20 -20 -20 -19 -7 -20 -16 -16 -9 33 20 9 -19 -18 -1 14 4 -10 -14 6 4 -10 -0 -2
4 3 9 7 3 15 14 15 12 15 4 -5 6 -12 -20 -20 -20 -20 -20 -20 -20 -20 -20 -20 -12 -14 11 11 34 29 33 -17 -19 -8 20 21 4 6 6 -0 -2 7 10
8 -2 7 7 11 13 8 10 3 -12 15 17 7 9 -17 -20 -20 -20 -17 -20 -20 -20 -20 -20 -12 -20 -20 -20 -1 -16 28 -3 -9 -2 -20 -20 -11 14 23 14 4 17 11
6 7 -8 7 5 7 3 8 -19 -20 -17 7 20 8 -5 -2 -7 -12 -18 -20 -20 -20 -20 -20 -20 -19 -20 -20 -16 15 4 -2 -18 4 -5 -20 -19 4 5 8 10 8 6

GFSGL_prec_radar_078.txt.gz
Reflectivity
-20 -20 -20 -20 -20 -6 -20 -20 -20 -20 -20 2 17 14 21 -19 -20 -7 -17 -19 -20 4 -20 -20 -20 7 -4 -20 -20 -20 -20 -20 -20 -20 -20 -20 -20 -20 -20 -20 -20 -20 -20
-20 29 -20 -20 -20 -20 -20 -20 -20 -20 -20 -20 10 11 21 -20 -20 -20 -17 21 10 -20 -20 -20 -20 -20 -20 -20 -20 -20 -20 -20 -20 -20 -20 -20 -20 -20 -20 -20 -20 -20 -20
24 -20 -20 -20 -20 -20 -20 -20 -20 -20 -20 -20 -20 -20 -20 -20 -7 -19 -20 -15 -16 -12 -17 -20 -20 -20 -20 -20 -20 -20 -20 -20 -20 -20 -20 -20 -20 -20 -20 -20 -20 -20 -20
24 29 17 -20 -20 -20 -20 -20 1 -20 -2 -20 -20 -20 -20 -20 -20 -20 -17 -20 -4 -20 -20 -0 -20 -20 -20 -20 -20 -20 -20 -20 -20 -20 -20 -20 -20 -20 -20 -20 -20 -20 -20
31 25 14 35 39 -7 -20 -20 8 -20 -20 -20 -20 -20 -20 -20 -20 -20 -20 -20 -20 -16 -7 -20 -20 -20 -20 -20 -20 -20 -20 -20 -20 -20 -20 -20 -20 -20 -20 -20 -20 -20 -20
29 34 2 34 39 31 6 -20 -20 -20 15 -19 -20 -20 -20 -20 -20 -20 -20 -20 -20 -20 -20 -20 -20 -20 7 -20 -20 -20 -20 -20 -20 -20 -20 -20 -20 -20 -20 -20 -20 -20 -20
24 30 27 -6 -4 29 24 0 -8 -20 -20 -6 -20 -20 -20 -20 -20 -20 -20 -20 -20 -20 -20 -20 -20 -20 -20 -20 -20 -20 -20 -20 -20 -20 -20 -20 -20 -20 -20 -20 -20 -20 -20
25 26 25 24 26 27 26 27 2 5 -14 -20 -13 12 -6 -20 -20 -20 -20 -20 -20 -20 -20 -20 -20 -20 -20 -20 -2 -20 -20 -20 -20 -20 -20 -20 -20 -20 -20 -20 -20 -20 -20
-18 -20 -20 -18 -2 -20 34 30 27 -20 -20 -20 -20 7 26 -0 -20 -20 -20 -20 -20 -20 -20 -20 -20 -20 -20 -20 -20 -17 -20 -20 -20 -20 -20 -20 -20 -20 -20 -20 -20 -20 -20
-20 -20 -20 -20 -20 -7 -20 -20 -20 -20 -19 -20 -15 -1 -20 31 -19 -20 -20 -13 -20 -20 -20 -20 -20 -20 -20 -20 -20 -20 -20 -20 -20 -20 -20 -20 -20 -20 -20 -20 -20 -20 -20
-20 -20 -20 -20 -20 -20 -20 -20 -14 25 3 -20 -20 -20 -20 -20 -20 -20 -4 -20 -20 -20 -20 -20 -20 -20 -20 -20 -20 -20 -20 -20 -20 -20 -20 -20 -20 -20 -20 -20 -20 -20 -20
-20 -20 -20 -20 -20 -20 -20 -20 -20 -20 -9 13 -20 -20 -20 -20 -20 -20 -20 -20 -20 -1 -20 -20 -20 -20 -20 -20 -20 -20 -20 -20 -20 -20 -20 -20 -20 -20 -20 -20 -20 -20 -20
-20 -20 -20 -20 -20 -20 -20 -20 -20 -20 -20 -20 -17 -20 -20 -20 -20 -20 -20 31 -20 -2 -20 -20 -20 -20 -20 -20 -20 -20 -20 -20 -20 -20 -20 -20 -20 -20 -20 -20 -20 -20 -20
-20 -20 -20 -20 -20 -20 -20 -20 -20 -20 -20 -20 -20 -20 -20 -20 -20 7 16 -20 -20 -20 -20 -20 -20 -20 -20 -20 -20 -20 -20 -20 -20 -20 -20 -20 -20 -20 -20 -20 -20 -20 -20
-20 -20 -20 -20 -20 -20 -20 -20 -20 -20 -20 -20 -20 -20 -20 -20 -9 28 17 -16 2 32 19 -17 -20 -20 -20 -20 -20 -20 -20 -20 -20 -20 -20 -20 -20 -20 -20 -20 -20 -20 -20
-20 -20 -20 -20 -20 -20 -20 -20 -20 -20 -20 -20 -20 -20 -20 -20 -20 -20 -18 11 24 13 11 -4 0 -12 -14 -20 -20 -20 -20 -20 -20 -20 -20 -20 -20 -20 -20 -20 -20 -20 -20
-20 -20 -20 -20 -20 -20 -20 -20 -20 -20 -20 -20 -20 -20 -20 -20 -20 -20 -15 10 9 11 8 7 18 30 -16 -20 -20 -14 -20 -20 -20 -20 -20 -20 -20 -20 -20 -20 -20 -20 -20
-20 -13 -20 -20 -20 -20 -20 -20 -20 -20 -20 -20 -20 -20 -20 -20 -20 -20 -19 6 -14 -2 -20 -20 -17 16 26 1 -20 -20 -20 -20 -20 -8 -20 -20 -20 -20 -17 -20 -20 -20 -20
-20 -20 -20 -20 -20 -20 -20 -20 -20 -20 -20 -20 -20 -20 -20 -20 -20 -11 -1 -20 -20 -20 -20 -20 -20 -20 -20 -1 -7 -20 -20 -20 -4 -20 -11 -16 -12 -20 5 -20 0 -4 2
-19 8 8 -4 -19 -4 -14 -20 -9 -20 -20 -20 -20 -20 -20 -20 -20 -20 -20 -20 -20 -20 -20 -20 -20 -20 -20 -20 -20 -20 -20 -16 -19 33 -20 -8 -20 -20 -12 -20 -20 -7 -7
-20 -19 2 -18 -18 -11 3 5 5 -19 2 -20 -20 -20 -20 -20 -20 -20 -20 -20 -20 -20 -20 -20 -20 -6 -19 -20 4 9 30 -15 -20 29 33 -20 -20 -20 23 -20 -20 -20 -8
-20 -0 6 9 7 -2 -11 -5 8 1 2 2 -15 -20 -20 -20 -20 -20 -20 -20 -20 -20 -20 -20 -20 -20 -20 -20 21 14 20 14 -3 0 4 9 38 0 38 2 26 -20 -20
-20 -20 -16 -5 0 -7 2 1 -0 9 2 -20 -1 -0 -20 -20 -20 -20 -20 -20 -20 -20 -20 -20 -20 -20 -6 -20 -14 -2 -20 -12 10 35 38 39 39 31 38 15 -20 -6 -15
-20 -20 -11 -4 -2 7 -2 8 7 10 3 10 15 12 5 2 1 -20 -20 -20 -20 -20 -20 -20 -20 -20 -20 -20 -20 -20 -20 -20 -20 -19 -5 36 36 36 36 34 32 9 -2
-20 -8 -3 4 3 -5 6 3 1 -5 2 8 12 11 8 11 -12 -17 -20 -20 -18 -0 -20 -20 -20 -20 -20 -20 -20 -20 -20 -1 -1 10 -0 20 -18 12 13 14 10 12 0
-9 -20 -11 10 -18 5 5 5 -0 5 6 5 6 -20 -20 -20 -8 15 -16 -20 1 8 -19 -20 -20 -20 -20 -20 -20 -20 -20 -20 -3 -0 -6 22 14 8 3 3 -1 -1 -20

GFSGL_prec_radar_081.txt.gz
Reflectivity
-20 -14 -20 -20 -20 -20 -20 -20 -13 6 33 -12 -19 -20 -20 -20 -20 -20 -20 -20 -20 -20 -20 -20 -20 -20 -20 -20 -20 -20 -20 -20 -20 -20 -20 -20 -20 -20 -20 -20 -20 -20 -20
24 5 4 29 -20 -20 -20 -20 -20 -20 -20 -17 -20 -20 -20 -20 -20 -20 -20 -20 -20 -20 -20 -20 -20 -20 -20 -20 -20 -20 -20 -20 -20 -20 -20 -20 -20 -20 -20 -20 -20 -20 -20
31 -10 18 4 -16 -17 -19 -20 -12 -20 -20 -20 -20 -20 -20 -20 -20 -20 -20 -20 -20 -20 -20 -20 -20 -20 -20 -20 -20 -20 -20 -20 -20 -20 -20 -20 -20 -20 -20 -20 -20 -20 -20
31 29 5 31 11 10 11 -15 -20 -20 -20 -20 -20 -20 -20 -20 -20 -20 -20 -20 -20 -20 -20 -20 -20 -20 -20 -20 -20 -20 -20 -20 -20 -20 -20 -20 -20 -20 -20 -20 -20 -20 -20
28 26 -8 29 25 32 34 34 -4 -20 -20 -20 -20 -20 -20 -20 -20 -20 -20 -20 -20 -20 -20 -20 -20 -20 -20 -20 -20 -20 -20 -20 -20 -20 -20 -20 -20 -20 -20 -20 -20 -20 -20
20 22 27 21 39 18 35 33 28 -5 -14 -20 34 -20 -20 -20 -20 -20 -20 -20 -20 -20 -20 -20 -20 -20 -20 -16 -20 -20 -20 -20 -20 -20 -20 -20 -20 -20 -20 -20 -20 -20 -20
-19 17 35 22 18 15 20 32 21 -6 -12 -15 -20 -20 -7 -20 -20 -11 -20 -20 1 -20 -20 -20 -20 -20 -20 -20 -20 -20 -20 -20 -20 -20 -20 -20 -20 -20 -20 -20 -20 -20 -20
-20 -3 18 34 40 20 26 4 -8 33 34 -20 -20 -20 -20 -20 -20 -20 -20 -20 -20 -20 -20 -20 -20 -20 -20 -20 -20 -20 -20 -20 -20 -20 -20 -20 -20 -20 -20 -20 -20 -20 -20
-20 -12 19 24 23 6 21 29 24 13 0 26 -20 -20 -20 -20 -20 -20 18 -19 -20 -20 -20 -20 -20 -20 -20 -20 -20 -20 -20 -20 -20 -20 -20 -20 -20 -20 -20 -20 -20 -20 -20
-20 -20 9 23 6 7 -20 -20 -20 19 5 -20 -20 5 -20 -20 -20 -20 -20 -20 -18 -18 -20 -20 -20 -20 -20 -20 -20 -20 -20 -20 -20 -20 -20 -20 -20 -20 -20 -20 -20 -20 -20
-20 -20 -20 10 12 -20 -6 -18 -20 -13 24 20 30 -20 -20 -20 -20 -20 -20 -8 -12 -20 -20 -20 -20 -20 -20 -20 -20 -20 -20 -20 -20 -20 -20 -20 -20 -20 -20 -20 -20 -20 -20
-20 -20 -20 -20 -3 2 -19 -16 -10 -20 -18 -2 -6 13 -17 -20 -20 -0 17 -19 -20 -6 -20 -20 -20 -20 -20 -20 -20 -20 -20 -20 -20 -20 -20 -20 -20 -20 -20 -20 -20 -20 -20
-20 -20 -20 -20 -20 -20 -12 -20 -20 -20 -20 -4 -16 -20 -20 -20 -20 -17 -14 22 -20 -20 -19 -20 -20 -20 -20 -20 -20 -20 -20 -20 -20 -20 -20 -20 -20 -20 -20 -20 -20 -20 -20
-20 -20 -20 -20 -20 -20 -20 -20 -20 -20 -20 -20 -20 -20 -13 -20 -20 -20 -20 -18 -12 -2 17 -20 -20 -20 -20 -17 -20 -20 -20 -20 -20 -20 -20 -20 -20 -20 -20 -20 -20 -20 -20
-20 -20 -20 -20 -20 -20 -20 -20 -20 -20 -20 -20 -20 -20 -20 -20 -20 -6 -7 -20 -20 2 9 -0 -20 -20 -20 -20 -20 -20 -20 -20 -20 -20 -20 -20 -20 -20 -20 -20 -20 -20 -20
-20 -20 -20 -20 -20 -20 -20 -20 -20 -20 -20 -20 -20 -20 -20 -20 -19 -20 -20 -17 -20 -16 -15 -20 -15 -20 -14 -20 -20 -20 -20 -20 -20 -20 -20 -20 -20 -20 -20 -20 -20 -20 -20
-20 -20 -20 -20 -20 -20 -20 -20 -20 -20 -20 -20 -20 -20 -20 -20 -20 -20 -20 -20 -1 4 -20 -20 -20 -20 -20 -20 -20 -20 -20 -20 -20 -20 -20 -20 -20 -20 -20 -20 -20 -20 -20
-20 -20 -20 -20 -20 -20 -20 -20 -20 -20 -20 -20 -20 -20 -20 -20 -20 -20 -20 -6 -20 -7 -20 -20 -20 -20 -20 -20 -20 -20 -20 -19 -7 -20 -19 5 35 32 28 -20 -20 -20 -20
-20 -20 -20 -20 -20 -20 -20 -20 -20 -20 -20 -20 -20 -20 -20 -20 -20 -20 3 -20 -20 -20 -20 -20 -20 -20 -20 -20 -20 -20 -20 -20 -20 -20 -20 34 23 34 36 12 -13 -20 -3
-20 -20 -20 -20 -20 -20 -20 -20 -20 -20 -20 -20 -20 -20 -20 -20 -20 -20 -20 -20 -20 -20 -20 -20 -20 -20 -20 -20 -20 -20 -20 -20 -20 -20 -16 34 -10 33 37 36 23 21 -8
-20 -20 -20 -20 -20 -14 1 5 -1 -14 -20 -20 -20 -20 -20 -20 -20 -20 -20 -20 -20 -20 -20 -20 -20 1 -19 -7 8 9 4 -20 -20 -20 -20 3 34 34 35 33 33 31 22
-20 -20 -20 -20 -20 -20 -20 -20 -18 -3 1 -0 0 -15 -8 -20 -20 -20 -20 -20 -20 -20 -20 -20 -20 -20 -20 1 4 11 -20 -20 -20 -20 16 30 -1 -2 19 30 29 30 29
-20 -20 -20 -20 -20 -10 -20 -20 -3 1 -11 1 7 6 -20 -2 -3 -14 -20 -20 -20 -20 -20 -20 -20 -20 -20 -20 -12 -8 -18 -20 -20 -20 -20 -6 -13 -16 26 40 47 42 27
-20 -20 -20 -20 -20 -20 -14 -6 -1 1 -20 2 3 4 -16 -13 -16 -20 -19 -19 -20 -20 -20 -20 -20 -20 -20 -20 -20 -20 -20 -20 -20 -20 -20 -20 -20 -15 -16 11 35 42 32
-20 -20 -20 -20 -20 -20 -20 -14 -1 4 0 3 6 11 5 -19 -20 -19 -3 13 -9 11 -20 -17 11 -20 -20 -20 -20 -20 -0 6 -2 13 -20 -20 -20 -20 -20 2 9 22 23
-20 -20 -20 -20 -20 -20 -20 -14 -20 -20 4 6 3 13 11 -11 -11 -11 -1 -9 -12 -10 -20 -8 -20 -20 -20 -20 -4 10 1 -18 -20 6 -7 -20 -20 -20 -20 -11 16 8 -10

GFSGL_prec_radar_084.txt.gz
Reflectivity
-20 -20 -20 -20 -20 -20 -20 -20 -20 -20 -20 -20 -20 -20 -20 -20 -20 -20 -20 -20 -20 -20 -20 -20 -20 -20 -20 -20 -20 -20 -20 -20 -20 -20 -20 -20 -20 -20 -20 -20 -20 -20 -20
-20 -20 -20 -20 -19 -16 -20 -20 -20 -20 -20 -20 -20 -20 -20 -20 -20 -20 -20 -20 -20 -20 -20 -20 -20 -20 -20 -20 -20 -20 -20 -20 -20 -20 -20 -20 -20 -20 -20 -20 -20 -20 -20
21 -20 -20 -20 -20 -4 14 -9 -20 -20 -20 -20 -20 -20 -20 -20 0 -20 -20 -20 -20 -20 -20 -20 -20 -20 -20 -20 -20 -20 -20 -20 -20 -20 -20 -20 -20 -20 -20 -20 -20 -20 -20
29 24 1 18 -14 -20 -16 9 6 -6 -20 -20 -20 -20 -20 -20 -20 -20 -20 -20 -20 -20 -20 -20 -20 -20 -20 -20 -20 -20 -20 -20 -20 -20 -20 -20 -20 -20 -20 -20 -20 -20 -20
36 38 33 22 31 27 -1 30 -19 -15 -2 -6 -7 -20 -20 -20 -20 -20 -20 29 -20 -20 -20 -20 -20 -20 -20 -20 -20 -20 -20 -20 -20 -20 -20 -20 -20 -20 -20 -20 -20 -20 -20
18 21 37 28 3 23 32 31 27 18 4 -4 -9 16 -20 -20 -19 -20 -20 -20 -20 -20 -20 -20 -20 -20 -20 -20 -20 -20 -20 -20 -20 -20 -20 -20 -20 -20 -20 -20 -20 -20 -20
18 11 11 27 31 26 30 26 27 29 16 35 14 8 -8 -18 -20 -20 -20 -20 -20 -20 -20 -14 -20 -20 -20 -20 -20 -20 -20 -20 -20 -20 -20 -20 -20 -20 -20 -20 -20 -20 -20
-15 15 8 21 22 31 25 30 27 26 24 21 13 23 36 -15 -20 -20 4 -0 -20 -20 -20 -20 -20 -20 -20 -20 -20 -20 -20 -20 -20 -20 -20 -20 -20 -20 -20 -20 -20 -20 -20
-20 -7 9 -8 13 15 35 29 20 19 20 7 14 13 7 -20 -6 -20 -10 -20 -20 -20 -20 -20 -20 -20 -20 -18 -20 -20 -20 -20 -20 -20 -20 -20 -20 -20 -20 -20 -20 -20 -20
-20 -20 -15 -14 -20 13 24 19 13 15 13 -1 -14 5 25 -15 12 -20 -20 -20 -20 -17 -20 -20 -20 -20 -20 -20 -20 -20 -20 -20 -20 -20 -20 -20 -20 -20 -20 -20 -20 -20 -20
-20 -20 -20 -20 -20 -20 3 25 13 4 3 1 29 16 24 8 -1 26 23 13 -20 -20 14 -17 -20 -20 -20 -20 -20 -20 -20 -20 -20 -20 -20 -20 -20 -20 -20 -20 -20 -20 -20
-20 -20 -20 -20 -20 -17 -20 -7 22 12 2 -5 -18 -7 17 15 0 -9 -3 5 -5 -20 -20 -20 -20 -18 -0 -20 -20 -20 -20 -20 -20 -20 -20 -20 -20 -20 -20 -20 -20 -20 -20
-20 -20 -20 -20 -20 -20 -20 -20 -9 17 -7 -20 -13 -16 -4 -3 17 22 9 8 -1 -12 -20 15 -8 -18 -20 -20 -20 -20 -20 -20 -20 -20 -20 -20 -20 -20 -20 -20 -20 -20 -20
-20 -20 -20 -20 -20 -20 -20 -20 -19 -15 5 0 -17 -8 -6 -5 -9 -20 -20 -18 -8 -2 -20 -20 -20 -19 -2 -12 -9 -20 -20 -20 -20 -19 -20 -20 -20 -20 -20 -20 -20 -20 -20
-20 -20 -20 -20 -20 -20 -20 -20 -20 -18 -20 -16 -2 -11 -18 -1 -11 -20 -20 -20 -20 -20 -20 -20 -20 -20 -20 -20 -20 -20 -20 -20 -20 -20 -20 -20 -20 -20 -20 -20 -20 -20 -20
-20 -20 -20 -20 -20 -20 -20 -20 -20 -20 -20 -20 -19 -17 -13 -20 -11 -6 -20 -20 -20 -20 -20 -20 -20 -20 -20 -20 -20 -20 -20 -20 -20 -20 15 -6 -20 -20 -20 -20 -20 -20 -20
-20 -20 -20 -20 -20 -20 -20 -20 -20 -20 -20 -20 -20 -20 -20 -20 -20 -20 -20 -20 -20 -20 -20 -20 -20 -20 -20 -20 -20 -20 -20 -20 -20 -20 -20 29 26 -20 -20 -20 -20 -20 -20
-20 -20 -20 -20 -20 -20 -20 -20 -20 -20 -20 -20 -20 -20 -20 -20 -20 -20 -20 -18 -20 -20 -20 -20 -20 -20 -20 -20 -20 -20 -20 -20 -20 -18 -20 -15 -20 -20 -20 -20 -20 15 -20
-20 -20 -20 -20 -20 -20 -20 -20 -20 -20 -20 -20 -20 -20 -20 -20 -20 -20 5 -20 -20 -20 -20 -20 -20 -20 -20 -20 -20 -20 -20 -20 -20 -20 -20 -20 20 27 -20 -1 32 31 32
-20 -20 -20 -20 -20 -20 -20 -20 -20 -20 -20 -20 -20 -20 -20 -20 -20 -20 -20 -20 -20 -20 -20 -20 -20 -20 -20 -20 -20 -20 -20 -20 -20 -20 -11 9 -20 23 18 10 -14 -8 -18
-20 -20 -20 -20 -20 -20 -20 -20 -20 -20 -20 -20 -20 -20 -20 -20 -20 -20 -20 -20 -20 -20 -20 -20 -20 -20 -20 -20 -20 -20 12 14 17 16 17 16 17 16 -2 -9 24 25 29
-20 -20 -20 -20 -20 -20 -20 -20 -20 -20 -20 -20 -20 -20 -20 -20 -11 -6 -15 -20 -20 -20 -20 -20 -20 -20 -20 -20 -20 -20 -20 -20 -17 -5 1 -8 -5 -20 -14 -20 -20 25 25
-20 -20 -20 -20 -20 -20 -20 -20 -20 -20 -20 -20 -20 -20 -20 -15 -12 -16 -14 -20 -20 -5 -9 -20 -20 -20 -20 -20 -3 12 2 -4 -14 19 14 -7 5 -20 -19 -5 -20 -20 17
-20 -20 -20 -20 -20 -20 -20 -20 -20 -20 -20 -20 -20 -20 -20 -20 -18 -9 -11 -20 -20 -20 -15 7 -20 -20 -20 -20 -20 -20 -20 5 2 -20 -17 -10 10 -4 2 -14 -20 -20 -20
-20 -20 -20 -20 -20 -20 -20 -20 -20 -20 -13 -16 -6 -3 -2 -20 -15 -10 -3 -9 -7 -2 1 -18 -20 -15 -20 -20 -20 -20 14 16 9 9 -20 -4 -5 -20 -20 -19 5 11 -2
-20 -20 -20 -20 -20 -20 -20 -20 -20 -20 -20 -3 -17 -12 3 -16 -6 -20 -18 -19 3 -2 -16 -4 -17 -20 -20 -20 9 -2 15 10 10 17 6 -20 -20 -20 -20 -20 1 10 -20

GFSGL_prec_radar_087.txt.gz
Reflectivity
-20 -20 -20 -20 -20 -20 -20 -20 -20 -1 -20 -20 -20 -20 -20 -20 -20 -20 -20 -20 -20 -20 -20 -20 -20 -20 -20 2 -20 -20 -20 -20 -20 -20 -20 -20 -20 -20 -20 -20 -20 -20 -20
-20 -20 -20 -20 -20 -19 -20 27 19 -20 -20 -17 -20 -20 -20 -20 -20 -20 -20 -20 -20 -20 -20 -20 -20 -20 -20 -20 -20 -20 -20 -20 -20 -20 -20 -20 -20 -20 -20 -20 -20 -20 -20
15 2 -16 -20 -20 -20 8 -20 -20 -11 11 21 -20 -14 -20 -20 -20 -20 -20 -20 -20 -20 -20 -20 -20 -20 -20 -20 -20 -20 -20 -20 -20 -20 -20 -20 -20 -20 -20 -20 -20 -20 -20
37 38 8 -20 -20 -20 -20 -2 -20 -19 -13 -20 -15 -6 -15 -20 -20 -20 -20 -20 -20 -20 -20 -20 -8 -20 -20 -20 -20 -20 -20 -20 -20 -20 -20 -20 -20 -20 -20 -20 -20 -20 -20
27 34 35 21 -20 -20 -20 -4 -20 -20 -20 -20 -18 -9 -20 -20 -20 -20 -20 -20 -20 -20 -20 -20 -20 -20 -20 -20 -20 -20 -20 -20 -20 -20 -20 -20 -20 -20 -20 -20 -20 -20 -20
11 8 24 34 15 -14 -20 -20 -20 -0 -20 -20 -20 -13 5 -20 -20 -20 -20 -13 -20 -20 -20 -20 -20 -20 -20 -20 -20 -20 -20 -20 -20 -20 -20 -20 -20 -20 -20 -20 -20 -20 -20
9 19 9 13 29 30 27 27 8 -20 -20 -20 -20 -18 -8 -8 -10 -14 -5 -20 -20 -20 -20 -20 -20 -20 -20 -20 -20 -20 -20 -20 -20 -20 -20 -20 -20 -20 -20 -20 -20 -20 -20
-20 -18 7 -20 19 23 25 16 23 27 2 -20 -14 4 8 -10 29 4 -16 -14 -19 -20 -20 -20 -20 -20 -20 -20 -20 -20 -20 -20 -20 -20 -20 -20 -20 -20 -20 -20 -20 -20 -20
-20 -20 -0 -12 -18 26 16 20 12 8 25 28 28 12 2 10 32 12 26 -20 -20 -20 -17 -18 -20 -20 -20 -20 -20 -20 -20 -20 -20 -20 -20 -20 -20 -20 -20 -20 -20 -20 -20
-20 -20 -20 -8 -7 -9 19 9 22 4 2 25 26 26 25 9 19 5 13 -20 -19 -20 -20 -20 -20 -20 -20 -20 -20 -20 -20 -20 -20 -20 -20 -20 -20 -20 -20 -20 -20 -20 -20
-20 -20 -20 -20 -20 -20 -12 10 -3 11 14 -2 -14 21 27 25 -10 -16 0 6 8 -6 -20 13 -3 -20 -20 -20 -17 -20 -19 -20 -20 -20 -20 -20 -20 -20 -20 -20 -20 -20 -20
-20 -20 -20 -20 -20 -20 -20 -19 6 -9 -13 -4 15 7 -4 -15 2 4 -2 -4 -15 -16 -20 -6 -20 11 -1 4 3 -20 -20 -17 -20 -20 -20 -20 -20 -20 -20 -20 -20 -20 -20
-20 -20 -20 -20 -20 -20 -20 -20 -20 -17 5 -9 2 18 6 11 -3 -2 6 -4 -20 -20 -20 -20 -20 -20 -20 -3 -20 -20 -20 -20 -20 -20 -20 -20 -20 -20 -20 -20 -20 -20 -20
-20 -20 -20 -20 -20 -20 -20 -20 -20 -20 -20 4 3 3 8 -1 -12 -3 3 -16 -20 -20 -20 -13 0 -20 -20 -16 -9 -20 -20 -20 -20 -20 -20 -20 -20 -20 -20 -20 -20 -20 -20
-20 -20 -20 -20 -20 -20 -20 -20 -20 -20 -20 -20 -0 4 1 3 -3 -11 -7 -12 -18 -20 -20 -20 -13 -20 -20 -20 -20 -20 -20 -20 -20 -20 -20 -20 -20 -20 -20 -20 -20 -20 -20
-20 -20 -20 -20 -20 -20 -20 -20 -20 -20 -20 -20 -20 -18 1 -3 -5 -14 -20 -18 -17 -20 -20 -20 -20 -20 -20 -20 -20 -20 -20 -20 -20 -20 -20 -20 -20 -20 -20 -20 -20 -20 -20
-20 -20 -20 -20 -20 -20 -20 -20 -20 -20 -20 -20 -20 -20 -20 -19 1 -10 -20 -20 -20 -20 -12 -13 -20 -20 -20 -20 -20 -20 -20 -20 -20 -20 -3 4 4 -3 0 -20 -20 -20 -20
-20 -20 -20 -20 -20 -20 -20 -20 -20 -20 -20 -20 -20 -20 -20 -20 -20 -20 -17 -12 -16 -20 -20 -20 -20 -20 -20 -20 -20 -20 -20 -20 -20 -20 -20 -20 -1 6 10 3 -15 -20 -20
-20 -20 -20 -20 -20 -20 -20 -20 -20 -20 -20 -20 -20 -20 -20 -20 -20 -20 -20 -20 -20 -20 -11 -17 -20 -20 -20 -20 -20 -20 -20 -20 -20 -20 -20 -20 -14 5 -9 2 13 14 7
-20 -20 -20 -20 -20 -20 -20 -20 -20 -20 -20 -20 -20 -20 -20 -20 -20 -20 -20 -20 -20 -20 -20 -20 -11 -20 -20 -20 -20 -20 -16 -18 -9 12 15 6 9 9 9 -1 1 7 12
-20 -20 -20 -20 -20 -20 -20 -20 -20 -20 -20 -20 -20 -20 -20 -20 -20 -20 -20 -20 -20 -20 -20 -20 -20 -20 -20 -20 -20 -20 -20 -20 -20 -20 -19 -20 -20 11 16 -19 -11 -19 5
-20 -20 -20 -20 -20 -20 -20 -20 -20 -20 -20 -20 -20 -20 -20 -20 -20 -20 -20 -20 -20 -20 -20 -20 -16 1 7 6 -16 -20 -20 -20 -8 13 1 -5 11 13 18 6 10 -13 -19
-20 -20 -20 -20 -20 -20 -20 -20 -20 -20 -20 -20 -20 -20 -20 -20 -20 -20 -20 -20 -20 -20 -20 -20 -20 -20 -20 -18 11 12 -4 -9 -20 -9 -20 -19 8 16 7 10 2 5 2
-20 -20 -20 -20 -20 -20 -20 -20 -20 -20 -20 -20 -20 -20 -20 -20 -20 -20 -20 -20 -20 -20 -20 -17 -20 -20 -20 -20 -14 -6 14 16 10 8 13 -18 -12 1 7 11 -12 13 4
-20 -20 -20 -20 -20 -20 -20 -20 -20 -20 -20 -20 -20 -20 -20 -20 -20 -20 -20 -20 -20 -20 -18 -20 -11 -3 -12 -19 -20 -1 -0 -15 -4 15 6 15 17 -10 -20 15 16 -12 9
-20 -20 -20 -20 -20 -20 -20 -20 -20 -20 -20 -20 -20 -20 -20 -20 -20 -20 -20 -20 -20 -14 -20 -20 -20 -9 1 -20 -4 13 -9 -20 -20 4 9 22 17 0 0 -9 -8 -9 15

GFSGL_prec_radar_090.txt.gz
Reflectivity
39 -20 -20 -20 -20 -20 -20 -20 -20 -13 -20 -4 -8 -20 9 32 -20 -20 -20 -20 -20 -20 -20 -20 -20 -20 -20 -20 -20 -20 -20 -20 -20 -20 -20 -20 -20 -20 -20 -20 -20 -20 -20
26 18 -20 -20 -20 -20 -20 -20 -20 -20 -20 -17 28 -20 -20 -20 -20 -20 -20 -20 -20 -20 -20 -20 -20 -20 -20 -20 -20 -20 -20 -20 -20 -20 -20 -20 -20 -20 -20 -20 -20 -20 -20
44 34 21 -20 -20 -20 -20 -20 -20 -20 -20 -20 -20 19 32 -20 -20 -20 -20 -20 -14 22 -20 -20 -20 -20 -20 -20 -20 -20 -20 -20 -20 -20 -20 -20 -20 -20 -20 -20 -20 -20 -20
27 35 37 23 -20 -20 -20 -20 -20 -20 -20 -20 -20 -20 2 -20 -20 -20 -20 -20 -20 -3 4 -20 -20 -20 -20 -20 -20 -20 -20 -20 -20 -20 -20 -20 -20 -20 -20 -20 -20 -20 -20
24 7 20 24 -8 -20 -20 -20 -20 -20 -20 -20 -20 -20 -20 -20 -20 -20 -20 -20 -20 -20 -20 -20 -13 -19 -20 -20 -20 -20 -20 -20 -20 -20 -20 -20 -20 -20 -20 -20 -20 -20 -20
14 -20 -20 14 33 5 -13 -20 -20 -20 -20 -20 -20 -20 -20 -20 -20 -17 -20 -20 -20 -20 -20 -20 -20 -20 -20 -20 -20 -20 -20 -20 -20 -20 -20 -20 -20 -20 -20 -20 -20 -20 -20
-20 6 -19 -1 17 18 26 -3 -16 -20 -17 -20 -20 -20 -20 -20 0 -15 -16 -20 -20 -20 -20 -20 -20 -20 -20 -20 5 -20 -20 -20 -20 -20 -20 -20 -20 -20 -20 -20 -20 -20 -20
7 -20 -20 -20 -13 16 11 10 2 16 -20 -20 -20 -20 -20 -20 -20 3 -4 -13 -20 -20 -20 -20 -20 -20 -20 -20 -20 -20 -20 -5 -20 -20 -20 -20 -20 -20 -20 -20 -20 -20 -20
-20 -17 -20 -8 -20 -17 -7 -20 4 16 18 21 2 -14 -20 -20 -20 -20 -12 -20 8 -16 -14 -20 -20 -20 -20 -20 -20 -20 -20 -20 -20 -20 -20 -20 -20 -20 -20 -20 -20 -20 -20
-20 -20 -20 -20 -7 -20 -20 -17 -20 -15 24 15 16 23 22 8 -1 -14 -10 -19 6 -14 -15 -20 0 -4 -20 -20 -20 -20 -20 -20 -20 -20 -20 -20 -20 -20 -20 -20 -20 -20 -20
-20 -20 -20 -20 -20 -7 -20 -18 -1 -17 -20 17 20 14 12 18 14 21 17 -2 -6 19 15 2 3 10 14 11 3 -20 -19 -16 -20 -20 -20 -20 -20 -20 -20 -20 -20 -20 -20
-20 -20 -20 -20 -20 -20 -9 -16 -20 -4 -11 -20 12 5 -15 12 24 -0 -8 11 15 11 5 -0 3 -20 -20 24 25 20 27 3 -20 -20 -20 -20 -20 -20 -20 -20 -20 -20 -20
-20 -20 -20 -20 -20 -20 -20 -20 -13 -20 -20 -20 -15 7 7 -20 1 11 2 -20 -20 -20 -19 -3 -4 -20 -20 -20 -20 -20 -20 -20 -20 -20 -20 -20 -20 -20 -20 -20 -20 -20 -20
-20 -20 -20 -20 -20 -20 -20 -20 -20 -20 -20 -20 -20 -20 6 9 -17 -20 -15 -2 -19 -15 -14 -20 -20 -20 -20 -20 -12 -20 -20 -20 -20 -20 -20 -20 -20 -20 -20 -20 -20 -20 -20
-20 -20 -20 -20 -20 -20 -20 -20 -20 -20 -20 -20 -20 -20 -20 -20 2 2 -17 -20 -20 -19 -18 -20 -20 -16 -20 -20 -20 -20 -20 -20 -20 -20 -20 -20 -18 -20 -20 -20 -17 -20 -20
-20 -20 -20 -20 -20 -20 -20 -20 -20 -20 -20 -20 -20 -20 -20 -20 -20 -18 1 1 -14 -13 -3 -13 -20 -20 -20 -20 -20 -20 -20 -20 -20 -20 -20 -18 -2 -8 -20 -20 -1 -9 -6
-20 -20 -20 -20 -20 -20 -20 -20 -20 -20 -20 -20 -20 -20 -20 -20 -20 -20 -20 -20 -11 5 0 -4 -4 -7 -20 -17 -20 -20 -20 -20 -20 -20 -20 -20 -3 4 -20 -20 -18 -4 18
-20 -20 -20 -20 -20 -20 -20 -20 -20 -20 -20 -20 -20 -20 -20 -20 -20 -20 -20 -20 -20 -20 -16 2 6 -1 -18 -11 -19 -20 -2 -10 -20 9 8 6 5 8 10 10 9 11 2
-20 -20 -20 -20 -20 -20 -20 -20 -20 -20 -20 -20 -20 -20 -20 -20 -20 -20 -20 -20 -20 -20 -20 -20 -20 -4 6 -2 -3 -19 -20 -2 -0 -20 -14 -16 4 16 11 8 8 16 10
-20 -20 -20 -20 -20 -20 -20 -20 -20 -20 -20 -20 -20 -20 -20 -20 -20 -20 -20 -20 -20 -20 -20 -20 -20 -20 -20 -18 -8 -1 -2 -3 -20 -20 -20 -20 -20 12 2 -20 -14 8 10
-20 -20 -20 -20 -20 -20 -20 -20 -20 -20 -20 -20 -20 -20 -20 -20 -20 -20 -20 -20 -20 -20 -20 -20 -20 -20 -20 -19 -6 0 8 5 1 -6 -18 -20 -19 14 2 -5 12 17 15
-20 -20 -20 -20 -20 -20 -20 -20 -20 -20 -20 -20 -20 -20 -20 -20 -20 -20 -20 -20 -20 -20 -20 -20 -16 -20 -20 -15 -4 -6 6 9 11 11 3 -5 -11 4 -15 6 7 -14 11
-20 -20 -20 -20 -20 -20 -20 -20 -20 -20 -20 -20 -20 -20 -20 -20 -20 -20 -20 -20 -20 -20 -20 -20 -20 -20 -20 -20 -20 -7 4 3 6 -3 -5 16 12 16 19 9 7 -8 7
-20 -20 -20 -20 -20 -20 -20 -20 -20 -20 -20 -20 -20 -20 -20 -20 -20 -20 -20 -20 -20 -20 -20 -20 -20 -20 -20 -20 -20 -13 -19 -1 -16 -15 -16 -20 -16 8 16 15 8 -20 -8
-20 -20 -20 -20 -20 -20 -20 -20 -20 -20 -20 -20 -20 -20 -20 -20 -20 -20 -20 -20 -20 -20 -20 -20 -20 -20 -18 -16 -20 -6 -2 -20 -20 -20 -20 -20 -20 -20 -20 -16 12 11 -2
-20 -20 -20 -20 -20 -20 -20 -20 -20 -20 -20 -20 -20 -20 -20 -20 -20 -14 -20 -20 -20 -16 -14 -17 -20 -20 -20 -20 -2 9 2 -20 -20 -2 -3 -20 -20 -20 -20 -1 5 16 3

GFSGL_prec_radar_093.txt.gz
Reflectivity
16 -11 -20 -20 -20 4 -20 -20 -20 -20 -20 -20 -20 -20 -20 18 -20 5 32 -20 -20 -20 -20 -20 -20 -20 -20 -20 -20 -20 -20 -20 -20 -20 -20 -20 -20 -20 -20 -20 -20 -20 -20
-3 23 22 17 -20 26 -20 31 -20 -20 -20 -20 -20 -20 21 -20 34 -17 -20 -20 -18 10 -20 -20 -20 -20 -20 -20 -20 -20 -20 -20 -20 -20 -20 -20 -20 -20 -20 -20 -20 -20 -20
26 29 29 26 -11 -20 -8 -20 -20 -20 19 34 -20 -20 -20 -20 -20 -20 -20 -20 -20 -20 25 -2 -20 -20 -20 -20 -20 -20 -20 -20 -20 -20 -20 -20 -20 -20 -20 -20 -20 -20 -20
17 3 21 34 28 35 -20 -20 -20 -20 -20 -20 -20 -20 -20 -20 -20 -20 -20 4 -8 -11 -20 10 -8 -20 -20 -20 -20 -20 -20 -20 -20 -20 -20 -20 -20 -20 -20 -20 -20 -20 -20
20 28 35 30 25 -12 -20 -20 -20 -20 -20 -20 -20 -20 -20 -20 -19 -12 -20 -20 -20 -20 -20 -20 -20 -20 -20 -20 -20 -20 -20 -7 -20 -20 -20 -20 -20 -20 -20 -20 -4 -20 -20
9 9 2 -1 23 33 15 -20 -20 -20 -20 -20 -20 -20 -20 -20 -16 10 -12 -20 -20 -20 -20 -19 5 -20 -20 -20 -20 -20 -20 -20 -20 -20 -20 -20 -20 -20 -20 -20 -20 -20 -20
19 29 8 2 -20 3 23 29 4 -20 -20 -20 -20 -20 -20 -20 -20 -1 -8 -20 -20 5 -19 -20 -0 5 -6 28 4 -11 -20 -20 -20 8 -20 -20 -20 12 -11 -20 -20 -20 -20
-17 9 17 -4 -15 -19 -20 -20 6 1 -8 1 -20 -20 -20 -20 -20 -20 -20 -20 -20 -20 -20 -15 -20 -14 29 -11 -20 -20 8 -20 -6 -20 -20 -20 -20 -20 -3 -18 -20 -20 -20
9 -20 -20 2 -1 -20 -20 -20 -20 -18 -20 -20 -20 -20 -20 -20 -20 -20 -20 -20 -20 -13 -7 -0 4 0 11 -18 -20 -20 -12 -20 -20 -20 -20 -20 -20 -20 -9 -20 -20 -20 -20
-8 -20 -20 -20 -19 -1 -12 -20 -20 -20 -20 -20 -20 -20 -20 -20 1 7 -20 -20 -20 -20 -6 -20 -5 0 3 -5 -19 2 -2 5 3 -20 -18 -19 6 -20 -8 -14 -20 -20 -20
4 -14 -20 -20 -20 -18 -19 -20 -20 -5 -2 -20 -20 -20 -20 -20 -15 -12 11 -20 -17 -8 -20 -20 -20 13 22 8 5 17 -4 -20 -20 -20 -20 -20 -20 -20 -20 -20 -15 -20 -11
-20 -20 -20 -20 -20 -20 -20 -20 -20 -20 -6 4 -19 -20 -20 -20 -15 -20 -4 21 26 6 10 6 -18 -16 -14 -7 -12 -20 -17 5 -20 -20 -20 -20 -20 -20 -20 -20 -20 -20 -20
-20 -20 -20 -20 -20 -20 -20 -20 -20 -20 -20 -20 -10 -4 -20 -20 -20 -20 8 -4 -20 -19 -18 3 21 11 -12 -16 -19 -20 -20 -20 -20 -20 -20 -20 -20 -20 -20 -20 -20 -20 -19
-20 -20 -20 -20 -20 -20 -20 -20 -20 -20 -20 -20 -20 -20 -8 -0 -20 -20 -20 -19 -1 -15 -20 -20 -20 -16 -5 -18 -20 -20 -20 -20 -20 -20 -20 -20 -20 -20 -20 -20 -20 -20 -20
-20 -20 -20 -20 -20 -20 -20 -20 -20 -20 -20 -20 -20 -20 -20 -20 -17 -11 -8 -20 -20 -8 -2 -20 -20 -20 -20 -20 -20 -20 -20 -20 -20 -20 -20 -20 -20 -20 -20 -20 -20 -20 -20
-20 -20 -20 -20 -20 -20 -20 -20 -20 -20 -20 -20 -20 -20 -20 -20 -20 -20 -18 -2 -20 -18 -20 -13 -16 -20 -20 -20 -20 -20 -20 -20 -20 -20 -20 -20 -20 -20 -20 -20 -20 -20 -13
-20 -20 -20 -20 -20 -20 -20 -20 -20 -20 -20 -20 -20 -20 -20 -20 -20 -20 -20 -20 -20 -20 -20 -19 -20 -20 -20 -20 -20 -20 -20 -20 -20 -20 -20 -20 -20 -20 -20 -20 -20 -20 -20
-20 -20 -20 -20 -20 -20 -20 -20 -20 -20 -20 -20 -20 -20 -20 -20 -20 -20 -20 -20 -20 -20 -20 -20 -20 -20 -20 -20 -20 -20 -20 -20 -20 -20 -20 -20 -20 -20 -20 -20 -9 -1 9
-20 -20 -20 -20 -20 -20 -20 -20 -20 -20 -20 -20 -20 -20 -20 -20 -20 -20 -20 -20 -20 -20 -20 -20 -20 -20 -20 -20 -20 -20 -20 -20 -20 -19 -20 -20 -20 -20 -20 -20 -20 -20 -20
-20 -20 -20 -20 -20 -20 -20 -20 -20 -20 -20 -20 -20 -20 -20 -20 -20 -20 -20 -20 -20 -20 -20 -20 -20 -20 -20 -20 -20 -20 -20 -20 -20 -20 -20 -20 -20 -20 -20 -10 -3 -2 4
-20 -20 -20 -20 -20 -20 -20 -20 -20 -20 -20 -20 -20 -20 -20 -20 -20 -20 -20 -20 -20 -20 -20 -20 -20 -20 -20 -20 -20 -20 -20 -20 -20 -20 -20 -20 -7 10 -19 -20 -20 -20 5
-20 -20 -20 -20 -20 -20 -20 -20 -20 -20 -20 -20 -20 -20 -20 -20 -20 -20 -20 -20 -20 -20 -20 -20 -20 -20 -20 -20 -20 -20 -20 -20 -20 -20 -20 -16 -11 -8 -11 9 9 -10 9
-20 -20 -20 -20 -20 -20 -20 -20 -20 -20 -20 -20 -20 -20 -20 -20 -20 -20 -20 -20 -20 -20 -20 -20 -20 -20 -20 -20 -20 -20 -20 -20 -20 -20 -20 -10 -5 -13 -20 -20 -20 -20 12
-20 -20 -20 -20 -20 -20 -20 -20 -20 -20 -20 -20 -20 -20 -20 -20 -20 -20 -20 -20 -20 -20 -20 -20 -20 -20 -20 -20 -20 -9 -19 -8 -6 -1 -14 6 6 2 5 8 3 -20 -20
-18 -20 -20 -20 -20 -20 -20 -20 -20 -20 -20 -20 -20 -20 -20 -20 -20 -20 -20 -20 -20 -20 -20 -20 -20 -20 -20 -20 -20 -20 -9 9 -1 4 -14 -20 -19 -20 8 7 6 -19 7
2 -6 -20 -20 -20 -20 -20 -20 -20 -20 -20 -20 -20 -20 -20 -20 -20 -20 -20 -20 -20 -8 -20 -20 -20 -8 -20 -20 -17 -20 -20 -20 -20 -4 -6 -16 -19 -13 -15 -13 -5 7 -5

GFSGL_prec_radar_096.txt.gz
Reflectivity
-10 -20 11 -20 -20 -20 -20 -20 -20 -20 -20 -17 -19 -20 -20 -20 -20 -20 -20 -20 -11 -20 -20 -20 -20 -20 -20 -20 -20 -20 -20 -20 -20 -20 -20 -20 -20 -20 -20 -20 -20 -20 -20
16 -20 -20 -20 -20 -20 -20 -20 -10 -20 -20 34 35 35 -6 -20 -20 -20 -20 -20 -17 -20 -20 -20 -20 -20 -20 -20 -20 -20 -20 -20 -20 -20 -20 -20 -20 -20 -20 -20 -20 -20 -20
-2 30 -11 22 8 0 18 -19 -20 -19 -9 -20 -20 -20 -14 -19 -20 -6 -20 -20 -20 -20 -20 -20 -20 -20 -20 -20 -20 -20 -20 -20 -20 -20 -20 -20 -20 -20 -20 -20 -20 -20 -20
29 32 25 21 16 28 13 22 -3 -20 -19 -20 -20 -20 -20 -20 -20 -20 -20 -20 -20 -20 -20 -20 -20 -20 -20 -10 -8 -20 -20 -20 -20 -20 -20 -20 -20 -20 -20 -20 -20 -20 -20
-2 7 25 14 -5 20 4 26 -11 -20 -20 18 18 -4 -20 -20 -20 -20 -20 -20 -20 -20 -20 -20 -20 -20 -20 -20 -20 -11 -20 -20 -20 -20 -20 -20 -20 -20 -20 -20 -20 -20 -20
2 6 12 12 4 -20 -5 34 -4 -20 -2 -2 32 2 27 1 -20 -20 6 -20 -20 -20 -20 -20 -20 -20 -20 -20 -20 -20 -20 14 -20 -20 -20 -20 -20 -20 -20 -20 -20 -20 -20
-17 -20 -20 6 11 -18 3 5 19 10 -20 -20 -16 13 -6 -20 -20 -20 -20 -20 -10 -19 -2 -0 -16 -20 -7 -20 -20 -10 -20 -20 -20 10 -20 -20 4 -20 -20 -16 20 -20 -20
-20 -20 -6 11 -4 2 -20 6 11 5 5 -20 -20 -20 -20 -20 -20 -20 -20 -20 -20 -5 27 24 12 4 -19 -20 -20 -20 -20 -20 5 -20 -20 -20 -13 6 5 -6 -14 -20 -20
-5 17 -20 -20 -9 -7 -18 -20 -20 -20 -20 -20 -20 -20 -20 -20 -20 -20 -20 -20 -15 9 1 -20 -20 -11 -12 7 -20 -5 23 -20 6 -13 -20 -20 -20 -20 -9 -20 -20 -20 -20
18 2 -20 -20 -20 -9 -0 -18 -20 -20 -20 -20 -20 -20 -20 -20 -20 -20 -20 -20 -20 -20 -17 -20 -12 28 -20 -20 -20 -20 -20 -15 -20 -20 -20 -20 -7 23 19 7 -19 -3 -20
12 -10 -20 -20 -20 -20 -20 -10 -12 -20 -20 -20 -20 -20 -20 -20 -20 -20 -20 -13 -16 -11 -15 -20 -20 -20 -20 -20 -20 -20 -20 -13 -20 -20 -20 -20 -20 -20 -20 -6 27 27 9
11 16 11 -4 -11 -20 -20 -20 -20 -13 -19 -15 -20 -20 -16 -9 -20 -20 -20 -20 -18 -20 -11 15 -6 -20 -20 -20 -20 -20 -19 -20 -11 -18 -20 -20 -20 -20 -20 -20 -20 -20 -20
-1 11 5 13 -20 -20 -20 -20 -20 -20 -20 -20 -5 -11 -20 -20 -2 -11 -20 -20 -20 -20 -18 15 19 7 18 15 -20 -7 10 3 -20 -20 -20 -20 -20 -20 -20 -20 -20 -20 -20
-20 -20 -20 -20 -18 -20 -20 -20 -20 -20 -20 -20 -20 -20 -16 -20 -20 -20 -4 -6 -8 -19 -20 -20 -20 -20 -20 -20 -20 -20 -20 -20 -20 -20 -20 -20 -20 -20 -20 -20 -20 -20 -20
-20 -20 -20 -20 -20 -20 -20 -20 -20 -20 -20 -20 -20 -20 -20 -20 -20 -20 -20 -20 -20 -20 -15 -15 -20 -20 -20 -16 -20 -20 -20 -20 -20 -20 -20 -20 -20 -20 -20 -20 -20 -20 -20
-20 -20 -11 -20 -20 -20 -20 -20 -20 -20 -20 -20 -20 -20 -20 -20 -20 -20 -20 -20 -20 -20 -20 -19 -3 -2 -12 -20 -20 -20 -20 -20 -20 -20 -20 -20 -20 -20 -20 -20 -20 -20 -20
-20 -20 -20 -20 -20 -20 -20 -20 -20 -20 -20 -20 -20 -20 -20 -20 -20 -20 -20 -20 -20 -20 -20 -20 -20 -20 -15 -16 -20 -19 -19 -20 -20 -20 -20 -20 -20 -20 -20 -20 -20 -20 -20
-20 -20 -20 -20 -20 -20 -20 -20 -20 -20 -20 -20 -20 -20 -20 -20 -20 -20 -20 -20 -20 -20 -20 -20 -20 -20 -20 -20 -19 -20 -20 -15 -20 -20 -20 -20 -20 -20 -20 -20 -20 -20 -20
-20 -20 -20 -20 -20 -20 -20 -19 -20 -20 -20 -15 -20 -20 -20 -20 -20 -20 -20 -20 -20 -20 -20 -20 -20 -20 -20 -20 -20 -20 -20 -20 -20 -20 -20 -20 -20 -20 -20 -20 -20 -20 -20
-20 -20 -20 -20 -20 -20 -20 -20 -20 -20 -20 -20 -20 -20 -20 -20 -20 -20 -20 -20 -20 -20 -20 -20 -20 -20 -20 -20 -20 -20 -20 -20 -20 -20 -20 -20 -20 -20 -20 -20 -20 -20 -20
-20 -20 -20 -20 -20 -20 -20 -20 -20 -20 -20 -20 -20 -20 -20 -20 -20 -20 -20 -20 -20 -20 -20 -20 -20 -20 -20 -20 -20 -20 -20 -20 -20 -20 -20 -20 -20 -20 -20 -20 -20 -20 -20
-20 -20 -20 -20 -20 -20 -20 -20 -20 -20 -20 -20 -20 -20 -20 -20 -20 -20 -20 -20 -20 -20 -20 -20 -20 -20 -20 -20 -20 -20 -20 -20 -20 -20 -20 -20 -20 -20 -20 -20 -20 -20 -20
-20 -20 -20 -20 -20 -20 -20 -20 -20 -20 -20 -20 -20 -20 -20 -20 -20 -20 -20 -20 -20 -20 -20 -20 -20 -20 -20 -20 -20 -20 -20 -20 -20 -20 -20 -17 -20 -20 -20 -20 -20 -20 -20
-20 -20 -20 -20 -20 -20 -20 -20 -20 -20 -20 -20 -20 -20 -20 -20 -20 -20 -20 -20 -20 -20 -20 -20 -20 -20 -20 -3 -20 -20 -20 -20 -20 -20 -7 -11 -18 -20 -20 -20 -20 -20 -20
-20 -20 -20 -20 -20 -20 -20 -20 -20 -20 -20 -20 -20 -20 -20 -20 -20 -20 -20 -20 -20 -20 -20 -20 -20 -20 -20 -20 -10 -20 -20 -18 -20 -20 -20 -20 -20 -20 -20 -20 -20 -20 -20
15 -20 -20 -20 -20 -20 -20 -20 -20 -20 -20 -20 -20 -20 -20 -20 -20 -20 -20 -20 -20 -20 -20 -20 -20 -20 -20 -17 -14 -20 -18 -18 -5 -4 -20 -20 -20 -20 -18 -19 -20 -20 -20

GFSGL_prec_radar_099.txt.gz
Reflectivity
-20 3 8 -20 -20 -20 -20 -20 -20 -20 -20 -20 -20 -20 -20 -20 -20 -20 -20 -6 -20 -20 -20 -19 -20 -20 -20 -20 -20 -20 -20 -20 -20 -20 -20 -19 -20 -20 -20 -20 -20 -20 -20
-9 -0 2 -20 -20 4 13 -20 -20 -20 -20 -20 -20 -20 -20 -20 -20 -18 -20 -20 -20 -20 -20 -20 -20 -20 -20 -20 -20 -20 -20 -20 -20 -20 -20 -20 -20 -20 -20 -20 -20 -20 -20
33 25 33 -4 -20 -20 7 -18 -20 -20 -20 -20 -20 -20 -20 -20 -20 -20 -20 -20 -20 -20 -20 -20 -20 -20 -20 -20 -20 -20 -20 -20 -20 -20 -20 -20 -20 -20 -20 -20 -20 -20 -20
-2 23 25 19 20 5 23 24 24 21 -15 -20 -20 -20 -20 -20 -20 -18 -20 -20 -20 -20 -20 -20 -20 -20 -20 -20 -20 -20 -20 -20 -20 -20 -20 -20 -20 -20 -20 -5 -20 -20 -20
17 19 -4 7 30 24 24 7 22 4 20 -8 -20 -0 -20 -20 34 16 -12 -20 -5 -20 -20 -20 -20 -14 -20 -20 -20 13 25 10 -20 -20 -20 -20 -20 -20 -20 -19 -20 -20 -20
15 6 -2 -16 29 -11 25 29 29 12 -18 25 -9 32 -10 -20 -19 1 -20 -20 -0 -19 -19 -20 -20 -20 -20 -20 -20 -20 -20 -20 -20 -20 -20 -20 10 -20 -20 -20 -20 -20 -20
4 16 12 10 -3 7 1 27 22 29 25 10 4 17 33 16 -7 -20 -20 -20 -20 25 -19 -6 -20 9 -11 -20 -20 31 -20 -11 -20 8 -20 -20 -20 -20 -20 -20 -10 -20 -20
6 -20 -15 7 -3 -19 -9 -20 -20 6 6 0 14 7 -12 -20 -20 -20 -20 -20 -20 -3 6 10 24 4 29 -0 8 -9 -20 -5 -5 5 -20 -20 -20 4 -20 2 -20 2 -20
-7 -20 -14 -20 -9 -18 -20 14 7 22 -3 -3 -15 -14 -8 -20 -20 -20 -20 -20 26 2 31 -11 -18 -18 -20 -20 -20 -20 -19 3 11 -6 -20 -19 -20 -20 -12 -20 -20 -20 -20
0 -11 -2 -17 -20 -20 -20 -20 -20 -20 2 -20 -20 -20 -20 -20 -20 -20 -20 -20 -20 -20 12 28 -20 -20 -20 -20 -20 -20 -20 -20 -20 23 -20 -20 -20 -20 -20 5 15 -16 -19
-16 11 22 1 -20 -20 -20 -20 -20 -14 -8 -20 -20 -20 -20 -12 -15 -18 -20 -20 -20 -20 -20 -13 -20 -14 -18 -20 -20 -20 -20 -20 -20 -20 -20 -20 -20 -20 -20 -20 10 8 -1
9 -15 -9 -8 8 -20 -20 -20 -20 -18 0 -17 1 -19 -20 -20 -20 -20 -20 -20 -14 -20 -20 -7 -9 -18 -11 -0 -16 -20 -20 -20 -20 -20 -20 -20 -20 -20 -20 -20 -20 -20 -20
-20 -7 -17 -0 12 -1 -20 -4 -3 -20 -20 -20 -20 -20 -1 5 -13 -20 -20 -20 -20 -20 -20 -20 -20 -20 -20 12 -5 18 21 16 11 -19 -18 -20 -20 -20 -20 -20 -20 -20 -20
-17 -16 5 -1 14 16 -4 4 -20 -20 -20 -20 -20 -20 -20 -20 -19 -4 -4 -11 -20 -20 -20 -20 -20 -20 -20 -20 -20 -20 -20 -20 -20 -20 -20 -17 -14 -20 -20 -20 -20 -20 -20
-20 -20 -20 -20 -5 -2 -18 -20 -20 -20 -20 -20 -20 -20 -20 -20 -20 -20 -20 -20 -16 -11 -17 -20 -20 -20 -20 -20 -20 -20 -20 -20 -20 -20 -20 -20 -20 -20 -20 -20 -20 -20 -20
-20 -20 -20 -20 -19 -20 -20 -20 -20 -20 -20 -20 -20 -20 -20 -20 -20 -20 -20 -20 -20 -20 -20 -18 -14 -20 -20 -20 -20 -20 -20 -20 -20 -20 -20 -20 -20 -20 -20 -20 -20 -20 -20
-20 -20 -20 -20 -20 -20 -20 -20 7 4 -20 -20 -20 -20 -20 -20 -20 -20 -20 -20 -20 -20 -20 -20 -20 -20 -20 -20 -20 -20 -20 -20 -20 -20 -7 -10 -20 -20 -20 -20 -20 -20 -20
-20 -20 -20 -20 -20 -20 -20 -20 -20 -20 -13 -20 -20 -20 -20 -20 -20 -20 -20 -20 -20 -20 -20 -20 -20 -20 -20 -20 -20 -20 -20 -20 -20 -20 -20 -20 -20 -20 -20 -20 -20 -20 -20
-20 -20 -20 -20 -20 -20 -20 -20 -20 -20 -20 -20 -20 -20 -20 -20 -20 -20 -20 -20 -20 -20 -20 -20 -20 -20 -20 -20 -20 -20 -20 -20 -20 -20 -20 -20 -20 -20 -20 -19 -20 -20 -20
-20 -20 -20 -20 -20 -20 -20 -20 -20 -20 -20 -20 -20 -20 -20 -20 -20 -20 -20 -20 -20 -20 -20 -20 -20 -20 -20 -20 -20 -20 -20 -20 -20 -20 -20 -20 -20 -20 -20 -20 -20 -20 -20
-20 -20 -20 -20 -20 -20 -20 -20 -20 -20 -20 -20 -20 -20 -20 -20 -20 -20 -20 -20 -20 -20 -20 -20 -20 -20 -20 -20 -20 -20 -20 -20 -20 -20 -20 -20 -20 -20 -20 -20 -20 -20 -20
-20 -20 -20 -20 -20 -20 -20 -20 -20 -20 -20 -20 -20 -20 -20 -20 -20 -20 -20 -20 -20 -20 -20 -20 -20 -20 -20 -20 -20 -20 -20 -20 -20 -20 -20 -20 -20 -20 -20 -20 -20 -20 -20
-20 -20 -20 -20 -20 -20 -20 -20 -20 -20 -20 -20 -20 -20 -20 -20 -20 -20 -20 -20 -20 -20 -20 -20 -20 -20 -20 -20 -20 -20 -20 -20 -20 -20 -20 -20 -20 -20 -20 -20 -20 -20 -20
-19 -20 -20 -20 -20 -20 -20 -20 -20 -20 -20 -20 -20 -20 -20 -20 -20 -20 -20 -20 -20 -20 -20 -20 -20 -20 -20 -20 -20 -20 -20 -20 -20 -20 -20 -20 -20 -20 -20 -20 -20 -20 -20
7 -18 -7 -20 -20 -20 -20 -20 -20 -20 -20 -20 -20 -20 -20 -20 -20 -20 -20 -20 -20 -20 -20 -20 -20 -20 -20 -20 -20 -20 -20 -20 -20 -20 -20 -20 -20 -20 -20 -20 -20 -20 -20
1 0 19 -2 -15 -20 -20 -20 -20 -20 -20 -20 -20 -20 -20 -20 -20 -20 -20 -20 -20 -20 -20 -20 -20 -20 -20 -20 -20 -20 -20 -20 -20 -16 -20 -20 -20 -20 -20 -20 -20 -20 -20

GFSGL_prec_radar_102.txt.gz
Reflectivity
-19 -2 31 28 -5 -20 -0 -20 18 -20 12 24 -1 29 -20 -20 -20 -20 -8 -20 -20 -20 -20 -20 -20 -17 -20 -20 -20 -20 -18 -20 -16 -18 -18 -11 -19 -20 -20 -20 -20 -20 -20
4 -20 10 8 35 -1 -18 -20 -20 23 -8 -17 -17 7 -20 -20 -20 -20 -17 -20 -20 -13 -20 -12 -20 -20 -20 -20 -20 -20 -20 -20 -20 -20 -20 -20 -20 -20 -20 -20 -20 -20 -20
-20 -20 3 29 32 32 -20 -5 38 14 -20 -20 -20 -17 19 21 26 -20 -13 -19 8 -20 -15 -20 -20 -20 -20 -20 -20 -20 -20 -20 -20 -20 -20 -20 -20 -20 -20 -20 -20 16 -20
-20 -20 -3 -9 -1 7 -20 -20 -3 10 -20 17 26 -20 -14 -14 14 12 -17 11 -17 -3 2 -20 -20 -20 4 -20 -20 -3 1 -20 -20 -17 1 -5 -3 2 -20 -20 -18 -20 -20
-20 -6 -20 -20 -8 -20 -20 -16 20 31 27 10 21 23 23 21 -19 -7 -19 10 24 -8 -17 -20 -20 -1 -7 -10 -20 -20 -20 -20 -20 -20 -20 -20 -20 -20 -20 -20 -20 -20 -20
-20 -20 4 -14 -19 -20 -20 -20 -20 -7 -11 -19 9 2 10 31 31 29 -19 -20 30 -17 31 -19 -20 -11 -20 -20 -19 -20 -19 -20 -1 -20 -20 -20 -20 -20 -20 -20 -20 -20 -20
4 15 -5 21 16 1 -19 -20 1 -3 -10 29 31 19 17 10 -20 -20 -20 -20 -20 23 -5 -6 14 -7 -5 -20 -20 -15 -20 -20 -14 -20 -20 -18 -20 -20 -20 -20 -20 -20 -20
-20 -11 -12 8 -2 -10 -20 -20 -20 -4 22 28 17 19 11 -20 -20 -20 -20 -20 -20 16 -19 7 19 -14 26 -19 -20 -20 -20 -20 -20 -20 -20 -20 -18 -20 -20 -20 -20 -20 -20
2 -12 -18 -20 -20 -20 -9 -2 -20 -7 -20 -18 -20 -20 -20 -20 -20 -20 -20 -20 -18 -4 23 -20 -20 -14 -20 -20 -20 -20 -20 -20 24 13 -15 -17 -6 -20 -20 -20 -20 -20 -20
-0 -18 1 -5 -16 -11 -20 -12 -20 -20 8 -20 -20 -20 -20 -20 -20 -20 -20 -20 -20 -20 -20 -20 -20 -20 -20 -20 -20 -20 -20 -20 -20 -20 -20 -20 -20 -20 -20 -20 -19 11 -6
14 18 22 -13 -20 -14 7 -19 -20 -20 -14 -20 -20 -20 -20 -20 -20 -20 -20 -20 -20 -20 -20 -20 -20 -20 -20 -20 -20 -20 -20 -20 -20 -20 -20 -20 -20 -20 -17 -20 -20 -20 -20
-8 -11 14 -15 9 -3 -4 -20 -20 -20 -20 -20 -20 -20 -20 -20 -20 -20 -13 -20 -20 -20 -20 -20 -20 -20 -16 -5 -20 -20 -20 5 -13 -20 -20 -20 -20 -20 -20 -20 -20 -20 -20
-20 -20 -17 12 -20 -20 -20 -10 -1 -20 -20 -20 -20 -20 -20 -20 -12 5 1 -20 -20 -20 -20 -20 -20 -20 -20 -20 -20 -20 -20 -20 -20 -20 -20 -20 -20 -20 -20 -20 -20 -20 -20
-20 -20 -20 -20 -20 -18 -19 20 -11 12 -4 -5 -7 -20 -20 -20 -20 -20 -20 -19 -5 -20 -20 -20 -20 -20 -20 -20 -20 -20 -20 -20 -20 -20 -20 -20 -20 -20 -20 -20 -20 -20 -20
-20 -20 -20 -20 -20 -10 -6 5 3 -10 8 3 11 -19 -20 -20 -20 -20 -20 -20 -20 -20 -20 -20 -15 -7 -12 -19 -20 -20 -20 -20 -20 -20 -20 -20 -20 -20 -20 -20 -20 -20 -20
-20 -20 -20 -20 -20 -20 -20 -19 -17 22 -6 24 -16 -20 -20 -20 -20 -20 -20 -20 -20 -20 -20 -20 -20 -20 -20 -20 -20 -20 -20 -19 -13 -20 -17 -20 -20 -20 -20 -20 -20 -20 -20
-20 -20 -20 -20 -20 -20 -20 -20 -20 -20 -20 -20 -20 -20 -20 -20 -20 -20 -20 -20 -20 -20 -20 -20 -20 -20 -20 -20 -20 -20 -20 -20 -20 -20 -20 -20 -20 -20 -20 -20 -17 -20 -20
-20 -20 -20 -20 -20 -20 -20 -20 -20 -20 -20 -20 -20 -20 -20 -20 -20 -20 -20 -20 -20 -20 -20 -20 -20 -20 -20 -20 -20 -20 -20 -20 -20 -20 -20 -20 -20 -20 -20 -20 -20 -20 -20
-20 -20 -20 -20 -20 -20 -20 -20 -20 -20 -20 -20 -20 -20 -20 -20 -20 -20 -17 -17 -20 -20 -20 -20 -20 -20 -20 -20 -20 -20 -20 -20 -20 -20 -20 -20 -20 -20 -20 -20 -20 -20 -20
-20 -20 -20 -20 -20 -20 -20 -20 -20 -20 -20 -20 -20 -20 -20 -20 -20 -20 -20 -20 -20 -20 -20 -20 -20 -20 -20 -20 -20 -20 -20 -20 -20 -20 -20 -20 -20 -20 -20 -20 -20 -20 -20
-20 -20 -20 -20 -20 -20 -20 -20 -20 -20 -20 -20 -20 -20 -20 -20 -20 -20 -20 -20 -20 -20 -20 -20 -20 -20 -20 -20 -20 -20 -20 -20 -20 -20 -20 -20 -20 -20 -20 -20 -20 -20 -20
-20 -20 -20 -20 -20 -20 -20 -20 -20 -20 -20 -20 -20 -20 -20 -20 -20 -20 -20 -20 -20 -20 -20 -20 -20 -20 -20 -20 -20 -20 -20 -20 -20 -20 -20 -20 -20 -20 -20 -20 -20 -20 -20
-20 -20 -20 -20 -20 -20 -20 -20 -20 -20 -20 -20 -20 -20 -20 -20 -20 -20 -20 -20 -20 -20 -20 -20 -20 -20 -20 -20 -20 -20 -20 -20 -20 -20 -20 -20 -20 -20 -20 -20 -20 -20 -20
-20 -20 -18 -20 -20 -20 -20 -20 -20 -20 -20 -20 -20 -20 -20 -20 -20 -20 -20 -20 -20 -20 -20 -20 -20 -20 -20 -20 -20 -20 -20 -20 -20 -20 -20 -20 -20 -20 -20 -20 -20 -20 -20
-13 21 16 -12 -10 -20 -20 -20 -20 -20 -20 -20 -20 -20 -20 -20 -20 -20 -20 -20 -20 -20 -20 -20 -20 -20 -20 -20 -20 -20 -20 -20 -20 -20 -20 -20 -20 -20 -4 0 -20 -20 -20
-19 26 1 -14 -2 -13 8 -20 -20 -20 -20 -20 -20 -20 -20 -20 -20 -20 -20 -20 -20 -20 -20 -20 -20 -20 -20 -20 -20 -20 -20 -20 -20 -20 -19 -20 -20 -20 -12 -18 -20 -20 -20

GFSGL_prec_radar_105.txt.gz
Reflectivity
-20 -20 9 -20 -20 -20 -20 -20 -20 -20 -19 -20 -20 19 -20 -20 -20 -20 -20 -20 -20 -20 -20 -20 -20 -20 -20 -20 -20 -20 -20 -20 -20 -20 -20 -20 -20 -20 -20 -20 -20 -20 -0
-17 36 12 16 -7 29 -20 -20 -20 -20 -20 -20 -20 -20 -20 -20 -20 -20 -20 -11 -20 -20 -20 -20 -20 -20 -20 -20 -20 -20 -20 -20 -20 -20 -20 -20 -20 -20 -20 -20 -20 -20 -20
32 3 33 -9 -20 33 30 33 -20 -20 -17 -20 -20 -19 -20 0 -14 -20 -20 -20 -18 -19 21 -20 -20 -20 -20 -20 -20 -20 -20 -20 -20 -20 -20 -20 -20 -20 -20 -9 -20 -20 20
2 -12 -20 9 26 -20 -15 -13 -16 -9 -3 -20 -20 3 13 -20 -12 -5 6 16 35 -20 -12 -18 -20 -20 -20 -20 -20 -20 -20 -20 -20 -20 -20 -20 -20 -19 -20 -20 -20 -20 -20
-20 -20 -20 -20 -20 -20 -20 -14 -12 -20 -20 -13 18 -19 11 -18 39 30 29 -1 21 29 36 6 30 -1 21 -20 -20 -20 -20 -20 -20 -20 -20 -20 -20 -20 -20 -20 -20 -20 -20
-20 -20 -20 -20 -20 -20 -20 -20 -20 -20 -20 -20 -20 -20 -20 -19 -2 21 -19 -20 -20 17 17 36 10 -20 -19 -19 5 -20 -20 -20 -20 -20 -20 -20 -20 -20 -20 -20 -20 -20 -20
-20 -20 -20 -20 -14 -20 -20 -20 -17 -20 -20 -20 -19 -18 16 6 28 -6 14 -20 -20 -20 -20 -13 -20 -20 14 -10 23 -2 -20 -20 -20 -20 -20 -20 -20 -20 -20 -20 -20 -20 -20
-19 -7 2 -15 -20 -20 -20 -20 -18 -20 -20 -20 -7 5 15 -8 14 18 -17 -20 -20 -2 3 -20 -20 -20 -20 -20 -20 -20 -20 -5 -10 -20 -20 13 21 -18 -20 -20 -20 -20 -20
0 -8 -14 -20 -20 -20 -20 -20 -20 -20 -20 -20 -20 -20 -17 -20 -16 15 -17 -20 -20 -20 -20 -20 -20 -20 -20 -20 -20 -20 -20 -20 -20 -20 -20 -20 -20 -20 -20 -20 -20 -20 -10
-10 16 28 -20 -20 -20 -20 -20 -20 -20 -20 -20 -20 -20 -20 -20 -20 -20 -20 -20 -20 -20 -20 -20 -20 -20 -20 -20 -20 -20 -20 -20 -20 -20 -20 -20 -20 -20 -20 -20 -20 -20 -20
6 17 9 -20 -20 -20 -20 -20 -20 -20 -20 -20 -20 -20 -20 -20 -20 -20 -20 -20 -20 -20 -20 -20 -20 -20 -20 -20 -20 -20 -20 -20 -20 -20 -20 -20 -20 -20 -20 -20 -20 -20 -20
-20 7 4 17 3 -3 -20 -20 -20 -20 -20 -20 -8 -20 -20 -20 -20 -20 -20 -20 -20 -20 -20 -20 -20 -20 -20 -20 -20 -20 -20 -20 -20 -20 -20 -20 -20 -20 -20 -20 -20 -20 -20
-16 -13 -3 -17 -18 -20 -20 -20 -20 10 -11 -20 -20 -20 -20 -20 -20 -20 -20 -20 -19 -20 -20 -20 -20 -20 -20 -20 -20 -20 -20 -20 -20 -20 -20 -20 -20 -20 -20 -20 -20 -20 -20
-20 -20 -20 -20 -20 -20 -20 -20 -20 -20 -20 -20 -20 -20 -20 -20 -20 -20 -20 -20 -20 -20 -20 -20 -20 -20 -20 -20 -20 -20 -20 -20 -20 -20 -20 -20 -20 -20 -20 -20 -20 -20 -20
-20 -20 -20 -20 -20 -20 -20 -20 -20 -6 -18 -20 3 -4 -20 -20 -20 -20 -20 -17 3 6 -7 -20 -20 -20 -20 -20 -20 -20 -20 -20 -20 -20 -20 -20 -20 -20 -20 -20 -20 -20 -20
-20 -20 -20 -20 -20 -20 -20 -20 -20 -20 -20 -20 -20 -20 -19 7 -20 -20 -20 -20 -20 -20 -20 -20 -20 -20 -20 -20 -20 -20 -20 -20 -20 -20 -20 -20 -20 -20 -20 -20 -20 -20 -19
-20 -20 -20 -20 -20 -20 -20 -20 -20 -20 -20 -20 -20 -20 -20 -20 -20 -20 -20 -20 -20 -20 -20 -20 -20 -20 -20 -20 -20 -20 -20 -20 -20 -20 -20 -20 -20 -20 -20 -20 -20 -20 -20
-20 -20 -20 -20 -20 -20 -20 -20 -20 -20 -20 -20 -20 -20 -20 -20 -20 -20 -20 -20 -20 -20 -20 -20 -20 -20 -20 -20 -20 -20 -20 -20 -20 -20 -20 -20 -20 -20 -20 -20 -20 -20 -20
-20 -20 -20 -20 -20 -20 -20 -20 -20 -20 -20 -20 -20 -20 -20 -20 -20 -20 -20 -20 -20 -20 -20 -20 -20 -20 -20 -20 -20 -20 -20 -20 -20 -20 -20 -20 -20 -20 -20 -20 -20 -20 -20
-20 -20 -20 -20 -20 -20 -20 -20 -20 -20 -20 -20 -20 -20 -20 -20 -20 -20 -20 -20 -20 -20 -20 -20 -20 -20 -20 -20 -20 -20 -20 -20 -20 -20 -20 -20 -20 -20 -20 -20 -20 -20 -20
-20 -20 -20 -20 -20 -20 -20 -20 -20 -20 -20 -20 -20 -20 -20 -20 -20 -20 -20 -20 -20 -20 -20 -20 -20 -20 -20 -20 -20 -20 -20 -20 -20 -20 -20 -20 -20 -20 -20 -20 -20 -20 -20
18 -20 -20 -17 -20 -20 -20 -20 -20 -20 -20 -20 -20 -20 -20 -20 -20 -20 -20 -20 -20 -20 -20 -20 -20 -20 -20 -20 -20 -20 -20 -20 -20 -20 -20 -20 -20 -20 -20 -20 -20 -20 -20
-3 -4 30 13 -17 -17 -20 -20 -20 -20 -20 -20 -20 -20 -20 -20 -20 -20 -20 -20 -20 -20 -20 -20 -20 -20 -20 -20 -20 -20 -20 -20 -20 -20 -20 -20 -20 -20 -20 -20 -20 -20 -20
16 -20 -1 -11 -2 4 -7 -20 -20 -20 -20 -20 -20 -20 -20 -20 -20 -20 -20 -20 -20 -20 -20 -20 -20 -20 -20 -20 -20 -20 -20 -20 -20 -20 -20 -20 -20 -20 -20 -20 -20 -20 -20
22 25 28 25 -19 -8 -20 -20 -20 -20 -20 -20 -20 -20 -20 -20 -20 -20 -20 -20 -20 -20 -20 -20 -20 -20 -20 -20 -20 -20 -20 -20 -20 -20 -20 -20 -20 -20 -20 -20 -20 -20 -20
-20 24 25 26 25 -19 14 2 -20 -20 -20 -20 -20 -20 -20 -20 -20 -20 -20 -20 -20 -20 -20 -20 -20 -20 -20 -20 -20 -20 -20 -20 -20 -20 -20 -20 -20 -20 -20 -20 -20 -20 -20

GFSGL_prec_radar_108.txt.gz
Reflectivity
-20 -20 -20 -20 -20 -20 -20 -20 -20 -20 -20 -20 -20 -18 -20 -20 -20 -20 -20 -20 -20 -20 -20 -20 -20 -20 -20 -20 -20 -17 -20 -20 -20 -20 -20 -20 -20 -20 -20 -20 -20 -20 -20
29 -3 32 35 -20 -14 -20 -20 -20 -20 -20 -20 -20 -20 -20 -20 -20 -20 -20 -20 -20 -20 -20 -20 -20 -20 -20 -20 -20 -20 -20 -20 -20 -20 -20 -20 -20 -20 -20 -20 -20 -20 -20
32 31 41 30 5 -8 -15 -20 -20 -20 -20 -20 -20 -20 -20 -19 -20 -20 -20 -19 -15 -20 -20 -20 -20 -20 -20 -20 -20 -20 -20 -20 -20 -20 -20 -20 -20 -20 -20 -15 -14 -20 -20
30 30 34 31 13 -11 -20 -20 13 -10 6 4 25 -20 -20 -20 -20 -20 0 -17 -2 -3 6 -15 -9 -20 -20 -20 -20 -20 -20 -20 -20 -20 -20 -20 -20 -20 -20 -20 -20 -20 -20
-3 34 1 -17 21 -20 30 -12 18 10 -19 -8 -20 -20 -20 -20 -20 -20 -20 -20 -20 22 28 17 31 12 23 14 27 -20 -20 31 -7 -20 -20 -20 -20 -20 -20 -20 -20 -20 -20
4 34 14 -9 -20 -20 -20 -20 22 19 11 -20 22 22 25 -20 -12 -9 -20 11 2 -18 33 28 13 24 32 21 -20 -20 -20 -20 -20 -20 -20 -20 -20 25 -20 -20 -20 -20 -20
25 18 -4 19 -16 -20 -20 -20 -20 -20 -20 -16 -20 -20 -20 -20 -20 -20 -6 3 29 17 -17 -13 -20 -20 -7 -20 -20 -20 -5 21 -7 -13 -20 -20 -20 -20 -20 -20 -20 -20 -20
22 8 3 5 -12 -20 -20 -20 -20 -20 -20 -20 -20 -20 -20 -19 -20 -3 6 -13 -13 20 -1 -20 -20 -20 -20 -20 -20 -20 -20 14 -5 -20 -20 -20 -20 -20 -20 -20 -20 -20 -20
4 7 -13 -1 -20 -20 -20 -20 -20 -20 -20 -20 -20 -20 -20 -20 -17 -20 -20 -20 28 -8 -20 -20 -20 -20 -20 -20 -20 -20 -20 -20 -20 -20 -20 -20 -20 -20 -20 -20 -20 -20 -20
-20 -10 -9 -9 -19 -17 -4 16 -20 -20 -20 -20 -20 -20 -20 -20 -20 -20 -20 -20 -19 -20 -20 -20 -20 -20 -20 -20 -20 -20 -20 -20 -20 -20 -20 -20 -20 -20 -20 -20 -20 -20 -20
22 16 10 23 6 13 -8 -20 -20 -20 -20 -20 -20 -20 -20 -20 -20 -20 -20 -20 -20 -20 -20 -20 -20 -20 -20 -20 -20 -20 -20 -20 -20 -20 -20 -20 -20 -20 -20 -20 -20 -20 -20
9 24 25 12 13 -6 -8 -20 -20 -20 -20 -20 -20 -20 -20 -20 -20 -20 -20 -20 -20 -20 -20 -20 -20 -20 -20 -20 -20 -20 -20 -20 -20 -20 -20 -20 -20 -20 -20 -20 -20 -20 -20
-12 -20 -2 17 13 9 -18 -8 -20 -20 -20 -20 -19 -20 -20 -20 -20 -19 -20 -20 -20 -20 -20 -11 -20 -20 -20 -20 -20 -20 -20 -20 -20 -20 -20 -20 -20 -20 -20 -20 -20 -20 -20
-20 -20 -20 -20 -20 -20 -20 -20 -20 -20 -20 -20 -20 -20 -20 -20 -20 -20 -20 -20 -20 -20 -20 -20 -20 -20 -20 -20 -20 -20 -20 -20 -20 -20 -20 -20 -20 -20 -20 -20 -20 -20 -20
-20 -20 -20 -20 -20 -20 -20 -20 -20 -20 -20 -20 -20 -20 -20 -20 -20 -17 -20 -20 -20 -20 -20 -20 -20 -20 -20 -20 -20 -20 -20 -20 -20 -20 -20 -20 -20 -20 -20 -20 -20 -20 -20
-20 -20 -20 -20 -20 -20 -20 -20 -20 -20 -20 -20 -20 -20 -20 -20 -20 -20 -18 -15 -20 -20 -20 -20 -20 -20 -20 -20 -20 -20 -20 -20 -20 -20 -20 -20 -20 -20 -20 -20 -20 -20 -20
-20 -20 -20 -20 -20 -20 -20 -20 -20 -20 -20 -20 -20 -20 -20 -20 -20 -20 -20 -20 -20 -20 -20 -20 -20 -20 -20 -20 -20 -20 -20 -20 -20 -20 -20 -20 -20 -20 -20 -20 -20 -20 -20
-20 -20 -20 -20 -20 -20 -20 -20 -20 -20 -20 -20 -20 -20 -20 -20 -20 -20 -20 -20 -20 -20 -20 -20 -18 -10 -20 -20 -20 -20 -20 -20 -20 -20 -20 -20 -20 -20 -20 -20 -20 -20 -20
-20 -20 -20 -20 -20 -20 -20 -20 -20 -20 -20 -20 -20 -20 -20 -20 -20 -20 -20 -20 -20 -20 -20 -20 -20 -20 -20 -20 -20 -20 -20 -20 -20 -20 -20 -20 -20 -20 -20 -20 -20 -20 -20
-20 -20 -20 -20 -20 -20 -20 -20 -20 -20 -20 -20 -20 -20 -20 -20 -20 -20 -20 -20 -20 -20 -20 -20 -20 -20 -20 -20 -20 -20 -20 -20 -20 -20 -20 -20 -20 -20 -20 -20 -20 -20 -20
-16 -20 -20 -20 -20 -20 -20 -20 -20 -20 -20 -20 -20 -20 -20 -20 -20 -20 -20 -20 -20 -20 -20 -20 -20 -20 -20 -20 -20 -20 -20 -20 -20 -20 -20 -20 -20 -20 -20 -20 -20 -20 -20
-20 -20 12 -20 9 -20 -20 -20 -20 -20 -20 -20 -20 -20 -20 -20 -20 -20 -20 -20 -20 -20 -20 -20 -20 -20 -20 -20 -20 -20 -20 -20 -20 -20 -20 -20 -20 -20 -20 -20 -20 -20 -20
-20 -20 -20 -20 -17 -5 -13 -18 -20 -20 -20 -20 -20 -20 -20 -20 -20 -20 -20 -20 -20 -20 -20 -20 -20 -20 -20 -20 -20 -20 -20 -20 -20 -20 -20 -20 -20 -20 -20 -20 -20 -20 -20
-20 -10 -4 -20 -20 -20 -20 -19 -12 -11 -20 -20 -20 -20 -20 -20 -20 -20 -20 -20 -20 -20 -20 -20 -20 -20 -20 -20 -20 -20 -20 -20 -20 -20 -20 -20 -20 -20 -20 -20 -20 -20 -20
-20 -20 -20 -20 12 21 -20 -2 -20 -20 -20 -20 -20 -20 -20 -20 -20 -20 -20 -20 -20 -20 -20 -20 -20 -20 -20 -20 -20 -20 -20 -20 -20 -20 -20 -20 -20 -20 -20 -20 -20 -20 -20
-20 -20 -20 -20 -20 -15 13 22 -20 -20 -20 -20 -20 -20 -20 -20 -20 -20 -20 -20 -20 -20 -20 -20 -20 -20 -20 -20 -20 -20 -20 -20 -20 -20 -20 -20 -20 -20 -20 -20 -20 -20 -20

GFSGL_prec_radar_114.txt.gz
Reflectivity
-20 -20 -20 -20 -20 -20 -20 -20 -7 -20 -20 -20 -20 -20 -20 -20 -20 -20 -20 -20 -20 -20 -20 -20 -20 -20 -20 -20 -20 -20 -20 -20 -20 -20 -20 -20 -20 -20 -20 -20 -20 -20 -20
-20 -20 -20 -20 -20 -20 -20 -20 -20 -20 -20 -20 -20 -20 -20 28 -20 -20 -20 -20 -20 -20 -20 -20 -20 -20 -20 -20 -20 -20 -20 -20 -20 -20 -20 -20 -20 -20 -20 -20 -20 -20 -20
-20 -20 -20 -20 -20 -20 -20 -20 -20 -20 -20 -20 -20 -20 -20 -20 -20 -20 -19 20 -13 -20 -20 -20 -20 -20 -20 -17 -20 -20 -20 -20 -20 -20 -20 -20 -20 -20 -20 -20 -20 -20 -20
-20 -20 -20 -15 -20 -20 -20 -4 -20 -20 -20 -20 -20 -20 -20 -20 -20 -20 30 -20 -10 -20 -20 -20 -20 -20 -20 -19 -18 -19 -20 -20 -6 -13 -20 -20 -20 -20 -20 -20 -20 -20 -20
30 16 5 30 -20 -15 15 22 26 -20 -20 9 15 11 -12 31 -20 -20 -20 -20 -20 -20 -20 -20 20 32 -1 -20 -20 -20 -20 -20 -20 4 -20 -20 -20 -20 -20 -20 -20 -20 -20
10 27 28 16 22 3 8 34 24 31 16 24 15 13 21 -20 -20 -20 -12 -20 -20 -20 -20 -11 29 21 25 -20 -20 -20 -20 -20 -20 -20 -20 -20 -20 -20 -20 -20 -20 -20 -20
20 21 21 10 20 20 33 31 21 28 30 14 24 34 24 21 -11 -14 -20 -20 -18 -20 -7 -17 20 24 21 -19 10 16 -14 -13 -14 -20 -20 -20 -20 -20 -20 -20 -20 -20 -20
19 23 24 18 22 31 29 18 16 15 8 18 11 9 14 -5 -8 -19 -20 -13 5 -20 -12 17 29 23 28 26 13 -2 5 -16 -20 -20 -20 -20 -20 -20 -20 -20 -20 -20 -6
33 25 26 28 25 31 29 26 27 10 -7 -11 -11 -9 -14 -20 -20 -20 -19 3 25 21 25 -14 -20 -15 24 26 14 20 9 -10 -20 -20 -20 -20 -20 -20 -20 -20 -20 -20 -20
16 10 27 32 27 28 31 31 33 16 1 9 6 -20 -4 -8 -20 -20 -20 -20 -20 -20 -20 -20 -20 5 11 -20 -20 -20 -20 -20 -20 -20 -20 -20 -20 -20 -20 -20 -20 -20 -20
29 32 26 34 25 28 34 35 34 27 -18 -20 -20 -13 -20 -20 -20 -20 -20 -20 -20 -20 -20 -20 -20 -20 -20 -20 -20 -20 -20 -20 -20 -20 -20 -20 -20 -20 -20 -20 -20 -20 -20
24 25 39 30 46 39 34 23 20 35 26 17 14 -2 -20 -20 -20 -20 -20 -20 -20 -20 -20 -20 -20 -20 -20 -20 -20 -20 -20 -20 -20 -20 -20 -20 -20 -20 -20 -20 -20 -20 -20
-6 22 33 40 41 35 28 23 13 -1 0 -18 -5 -6 -19 -20 -20 -20 -20 -20 -20 -20 -20 -20 -20 -20 -20 -20 -20 -20 -6 2 -15 -20 -20 -20 -20 -20 -20 -20 -20 -20 -20
12 23 20 32 29 21 19 3 22 16 15 -5 10 19 3 -10 -18 -20 -20 -20 -20 -20 -20 -20 -20 -20 -20 -20 -20 -20 -14 -18 -20 -20 -20 -20 -20 -20 -20 -20 -20 -20 -20
-20 -20 8 15 3 9 3 17 -2 -6 -20 -15 1 -20 3 -13 -20 -20 -20 -20 -20 -20 -20 -8 -3 -20 -20 -19 -20 -20 -20 -20 -20 -20 -20 -20 -20 -20 -20 -20 -20 -20 -20
-20 -20 -20 -20 -14 -18 -16 -17 -20 -20 -16 5 -11 -20 -20 -20 -20 -18 -1 9 -9 -9 -20 -20 -20 -20 -18 -20 -20 -20 -20 -20 -20 -15 -20 -20 -20 -20 -20 -20 -20 -20 -20
-20 -20 -20 -20 -20 -20 -20 -20 -20 -20 -20 -20 -20 -20 -20 -20 -20 -20 -20 -20 -20 -20 -20 -20 -20 -20 -20 -20 -20 -20 -20 -20 -20 5 6 -20 -20 -20 -20 -20 -20 -20 -20
-20 -20 -20 -20 -20 -20 -20 -20 -20 -20 -20 -20 -20 -20 -20 -20 -20 -20 -20 -20 -20 -20 -20 -20 -20 -20 -20 -20 -20 -20 -20 -20 -20 -20 -20 -20 -20 -20 -20 -20 -20 -20 -20
-20 -20 -20 -20 -20 -20 -20 -20 -20 -20 -20 -20 -20 -20 -20 -20 -20 -20 -20 -20 -20 -20 -20 -20 -20 -20 -20 -20 -20 -20 -20 -20 -20 -20 -20 -20 -20 -20 -20 -20 -20 -20 -20
-20 -20 -20 -20 -20 -20 -20 -20 -20 -20 -20 -20 -20 -20 -20 -20 -20 -20 -20 -20 -20 -20 -20 -20 -20 -20 -20 -20 -20 -20 -20 -20 -20 -20 -20 -20 -20 -20 -20 -20 -20 -20 -20
-20 -20 -20 -20 -20 -20 -20 -20 -20 -20 -20 -20 -20 -20 -20 -20 -20 -20 -20 -20 -20 -20 -20 -20 -20 -20 -20 -20 -20 -20 -20 -20 -20 -20 -20 -20 -20 -20 -20 -20 -20 -20 -20
-20 -20 -20 -20 -20 -20 -20 -20 -20 -20 -20 -20 -20 -20 -20 -20 -20 -20 -20 -20 -20 -20 -20 -20 -20 -20 -20 -20 -20 -20 -20 -20 -20 -20 -20 -20 -20 -20 -20 -20 -20 -20 -20
-20 -20 -20 -20 -20 -20 -20 -20 -20 -20 -20 -20 -20 -20 -20 -20 -20 -20 -20 -20 -20 -20 -20 -20 -20 -20 -20 -20 -20 -20 -20 -20 -20 -20 -20 -20 -20 -20 -20 -20 -20 -20 -20
-20 -20 -20 -20 -20 -20 -20 -20 -20 -20 -20 -20 -20 -20 -19 -20 -20 -2 -20 -20 -20 -20 -20 -20 -20 -20 -20 -20 -20 -20 -20 -20 -20 -20 -20 -20 -20 -20 -20 -20 -20 -20 -20
-20 -20 -20 -20 -20 -20 -20 -20 -20 -20 -20 -20 -20 -20 -20 19 -20 10 -5 -18 -20 -19 -20 -20 -20 -20 -20 -20 -20 -20 -20 -20 -20 -20 -20 -20 -20 -20 -20 -20 -20 -20 -20
-20 -20 -20 -20 -20 -20 -20 -20 -20 -20 -20 -20 -20 -20 -3 15 6 -19 -10 -2 -3 -20 -20 -20 -20 -20 -20 -20 -20 -20 -20 -20 -20 -20 -20 -20 -20 -20 -20 -20 -20 -20 -20

GFSGL_prec_radar_117.txt.gz
Reflectivity
-20 -20 -20 -20 -20 -20 -20 -20 -20 -20 -20 -20 -20 -20 -20 -20 -20 -20 2 25 -14 12 -20 -20 -20 -20 -20 -20 -20 -20 -20 -20 -20 -20 -20 -20 -20 -20 -20 -20 -20 -20 -20
-20 -20 -20 -20 -20 -20 -20 -20 -20 -20 -20 -20 -20 -20 -20 -20 -20 -20 -20 -20 -20 -20 -20 19 -20 -20 -20 -20 -20 -20 -20 7 -20 -20 -20 -20 -20 -20 -20 -20 -20 -20 -20
-20 -20 -20 -20 -20 -20 -20 -20 -20 -20 -20 -20 -20 -20 -20 -20 -20 -20 -17 -20 -20 -17 -10 17 16 -20 -20 -17 -0 19 -20 -20 5 -14 -20 -20 -20 -20 -20 -20 -20 -20 -20
-20 -20 -20 -20 -20 -20 -3 -20 -20 -20 -20 -20 -20 -20 -20 -20 -20 -20 33 32 22 -20 28 -20 19 -2 29 21 19 7 -18 11 5 3 3 -20 -20 -20 -20 -20 -20 -20 -20
-20 -20 -20 29 18 2 -20 -20 -20 -20 -20 -20 -20 -20 -20 -20 -19 -20 -20 -20 -20 -20 -20 32 -6 16 26 1 -12 -8 29 24 9 -20 19 -20 20 -20 24 -20 -20 -20 -20
-19 -20 29 -10 -20 -16 -1 9 -6 -20 -20 -20 -20 -20 -20 10 -20 29 -20 -20 -20 -20 30 -18 -20 25 -20 -20 -20 -20 -4 -4 -19 29 -14 27 21 -15 -20 -20 -20 -20 -19
-5 23 -16 22 26 -7 -2 13 11 1 14 17 -20 -12 19 17 14 13 -19 -20 -20 -20 -15 3 -20 -20 -16 -20 15 -9 -17 -13 -20 -20 -20 -20 -20 -20 -20 -20 -20 -16 -20
23 39 34 23 26 36 18 28 -13 -5 24 20 16 2 24 31 30 16 -10 -20 -20 -20 -20 -4 -6 -20 12 11 -16 -0 1 -3 -20 -20 -20 -20 -20 -20 -20 -20 -20 -20 -20
7 7 11 33 12 20 24 28 21 13 23 15 21 19 24 22 28 -1 3 -20 -20 -20 12 7 6 -4 -3 -18 -20 -3 -5 -20 -17 -20 -20 -20 -20 -20 -20 -20 -20 -20 -5
4 24 27 42 33 22 3 19 20 32 28 25 33 31 15 8 1 -6 8 -1 -20 -20 -20 -20 -20 -20 -20 -20 -20 -20 -20 -20 -20 -20 -20 -20 -20 -20 -20 -20 -20 -20 -20
17 22 25 27 35 22 28 33 31 32 39 34 35 32 27 19 10 0 7 2 -11 -20 -20 -20 -20 -20 -20 -20 -20 -20 -20 -20 -20 -20 -20 -20 -20 -20 -20 -20 -20 -20 -20
24 32 41 28 35 29 29 33 38 34 41 35 32 21 -19 -20 -14 5 -20 -20 -20 -20 -20 -20 -20 -20 -20 -20 -20 -20 -20 -20 -20 -20 -20 -20 -20 -20 -20 -20 -20 -20 -20
26 23 23 21 7 27 34 35 38 38 35 33 22 13 -3 -20 -11 6 -17 -20 -20 -20 -20 -20 -20 -20 -20 -20 -20 -20 -20 -20 -20 -20 -20 -20 -20 -20 -20 -20 -20 -20 -20
16 5 -20 -15 6 24 30 31 30 29 31 18 16 11 10 3 -11 -19 -20 -20 -20 -20 -20 -20 -20 -20 -20 -20 -20 -20 -20 -20 -20 -20 -20 -20 -20 -20 -20 -20 -20 -20 -20
-12 -7 -11 -7 2 22 23 28 22 25 20 28 13 3 -5 4 6 9 3 -20 -20 3 9 -20 -20 -20 -20 -20 4 21 -13 -19 -17 -20 -20 -20 -20 -20 -20 -20 -20 -20 -20
-7 -20 -20 -15 -20 -20 -12 -16 7 10 15 -1 -2 -1 5 10 -5 -8 -11 -20 -20 -20 -20 -20 -20 -20 -20 -20 -20 -17 -20 -12 -19 -20 -20 -20 -20 -20 -20 -6 -20 -20 -20
-20 -6 -7 -20 -20 -20 -20 -20 -20 -20 -20 -20 -20 -20 -20 -20 -20 -20 -20 -20 -20 -20 -20 -20 -20 -20 -20 -20 -20 -20 -20 -20 -20 -20 -19 -14 -20 -20 -20 -20 -20 -20 -20
-20 -20 -20 -20 -20 -20 -20 -20 -20 -20 -20 -20 -20 -20 -20 -20 -20 -20 -20 -20 -20 -20 -20 -20 -20 -20 -20 -20 -20 -20 -20 -20 -20 -20 -20 -20 -20 -20 -20 -20 -20 -20 -20
-20 -20 -20 -20 -20 -20 -20 -20 -20 -20 -20 -20 -20 -20 -20 -20 -20 -20 -20 -20 -20 -20 -20 -20 -20 -20 -20 -20 -20 -20 -20 -20 -20 -20 -20 -20 -20 -20 -20 -20 -20 -20 -20
-20 -20 -20 -20 -20 -20 -20 -20 -20 -20 -20 -20 -20 -20 -20 -20 -20 -20 -20 -20 -20 -20 -20 -20 -20 -20 -20 -20 -20 -20 -20 -20 -20 -20 -20 -20 -20 -20 -20 -20 -20 -20 -20
-20 -20 -20 -20 -20 -20 -20 -20 -20 -20 -20 -20 -20 -20 -20 -20 -20 -20 -20 -20 -20 -20 -20 -20 -20 -20 -20 -20 -20 -20 -20 -20 -20 -20 -20 -20 -20 -20 -20 -20 -20 -20 -20
-20 -20 -20 -20 -20 -20 -20 -20 -20 -20 -20 -20 -20 -20 -20 -20 -20 -20 -20 -20 -20 -20 -20 -20 -20 -20 -20 -20 -20 -20 -20 -20 -20 -20 -20 -20 -20 -20 -20 -20 -20 -20 -20
-20 -20 -20 -20 -20 -20 -20 -20 -20 -20 -20 -20 -20 -20 -20 -20 -20 -20 -20 -20 -20 -20 -20 -20 -20 -20 -20 -20 -20 -20 -20 -20 -20 -20 -20 -20 -20 -20 -20 -20 -20 -20 -20
-20 -20 -20 -20 -20 -20 -20 -20 -20 -20 -20 -20 -20 -20 -20 -20 -20 -20 -20 -20 -20 -20 -20 -20 -20 -20 -20 -20 -20 -20 -20 -20 -20 -20 -20 -20 -20 -20 -20 -20 -20 -20 -20
-20 -20 -20 -20 -20 -20 -20 -20 -20 -20 -20 -20 -20 -20 -20 -20 -20 -20 -19 14 21 -16 -20 -20 -20 -20 -20 -20 -20 -20 -20 -20 -20 -20 -20 -20 -20 -20 -20 -20 -20 -20 -20
-20 -20 -20 -20 -20 -20 -20 -20 -20 -20 -20 -20 -20 -20 -20 -20 -20 -20 -7 -18 -20 -9 -0 31 27 -10 -20 -20 -20 -20 -20 -20 -20 -20 -20 -20 -20 -20 -20 -20 -20 -20 -20

GFSGL_prec_radar_120.txt.gz
Reflectivity
-20 -20 -20 -20 -20 -20 -20 14 -20 -20 -20 -20 -20 -20 -20 -20 4 15 -18 -20 -2 -20 -20 -20 -20 -20 -20 -20 -20 -20 -20 -20 -20 -20 -20 -20 -20 -20 -20 -20 -20 -20 -9
-20 -20 -20 -20 -20 -20 -20 -20 -20 -20 32 -20 -20 -20 -20 -20 1 4 -14 -20 -20 0 -20 -20 -20 -20 -20 -20 -20 -20 -20 -20 -20 -20 -20 -20 -20 -20 -20 -20 -20 -20 -20
-20 -20 -20 -20 -20 -20 -20 -20 -20 -20 -20 -17 -20 -20 -20 -20 -20 -20 33 -20 27 -20 -20 -20 -20 -20 -20 2 -2 -20 -20 7 -6 16 -19 16 -17 -20 -20 -20 -20 -20 -20
-20 -20 -20 -20 -20 -20 -14 5 -20 -20 -20 -20 1 9 -7 -20 -18 6 -7 -19 -20 -20 4 -15 3 13 1 4 -9 -17 4 25 6 2 29 -5 -12 -20 -20 -20 -20 -3 -20
-20 -20 -20 -20 -20 4 23 21 17 -20 -20 -20 -20 -20 -0 12 7 -13 5 7 3 25 3 -2 -19 8 33 -8 11 22 29 4 -20 -20 -9 -20 3 -20 -8 -20 -20 -20 16
-20 -20 -16 26 24 -1 -20 3 22 -20 -20 -20 21 -19 -20 -20 -20 -20 -20 -20 -20 -20 -12 21 -18 -7 -20 -19 25 -20 -6 24 24 20 -20 -20 23 26 25 -20 -20 -19 23
-20 -19 11 29 -20 6 4 28 2 25 23 -2 21 4 -20 -20 -20 -20 -19 -16 -20 -20 -16 -4 3 -20 13 -20 -20 -20 4 -8 -20 -20 13 21 8 -6 -14 -20 22 19 19
-19 2 31 16 12 28 -20 -5 -3 18 20 7 -2 -5 -8 18 -20 -20 -13 -5 -17 -9 -20 3 27 -20 -20 -5 -10 -14 -3 -20 4 -13 -20 -7 -20 -20 -20 -20 -12 -9 -20
1 24 13 -16 -3 23 17 21 27 35 28 19 16 19 -2 18 5 4 23 10 12 14 -15 -20 -20 1 18 -2 -17 -20 -20 -20 -17 -17 -20 -20 -20 -20 -20 -20 -20 -20 20
29 34 26 23 1 28 32 44 27 39 26 25 21 18 18 27 23 19 23 26 28 25 -1 -19 -20 -19 -6 -20 -20 -20 -20 -20 -20 -20 -20 -20 -20 -20 -20 -20 -20 -20 -20
31 32 27 14 21 30 31 19 32 28 31 21 26 23 27 27 29 23 15 3 -3 -2 -3 -20 -14 -20 -20 -20 -20 -20 -20 -20 -20 -20 -20 -20 -20 -20 -20 -20 -20 -20 -20
16 24 20 32 21 16 28 29 34 33 33 41 32 32 34 34 27 20 8 -4 12 16 11 15 11 8 -13 -20 -20 -20 -20 -20 -20 -20 -20 -20 -20 -20 -20 -20 -20 -20 -20
3 -13 30 25 16 6 9 27 33 30 32 28 32 32 33 28 25 23 5 6 -1 -20 -15 -14 -18 -20 -19 -20 -20 -20 -20 -20 -20 -20 -20 -20 -20 -20 -20 -20 -20 -20 -20
-7 -16 0 19 -16 -20 -12 -2 12 31 34 35 33 32 33 28 14 8 5 -16 -20 -19 -20 -20 -20 -20 -20 -20 -20 -20 -20 -20 7 -20 -20 -20 -20 -20 -20 -20 -20 -20 -20
-17 -12 -17 -18 -11 -20 -20 -16 0 17 23 28 36 26 27 12 6 4 8 16 -6 -4 -2 -20 -20 -20 -20 -20 -20 -20 -20 -20 -20 -14 24 7 -19 -20 -20 -20 -20 -20 -20
-10 -9 -20 -19 -20 -20 -17 8 15 18 23 20 19 21 14 9 -0 -3 10 -8 -4 8 4 -2 -8 -20 -20 -20 -20 -20 -20 -20 -20 -20 -20 -20 -20 -20 -20 -20 -8 -20 -20
-20 -20 -20 -20 -20 -20 -20 -20 -20 -20 -20 -20 -20 -20 -17 -13 -0 -7 3 3 2 3 -10 -13 -3 -3 -9 -20 -20 -20 -20 -20 -20 -20 -20 -20 -20 -20 -20 -20 -20 -20 -20
-20 -20 -20 -15 -20 -9 -14 -6 -4 -19 -20 -20 -20 -20 -20 -20 -20 -20 -20 -20 -20 -9 -20 -20 -20 -20 -20 -20 -13 -20 -20 -20 -20 -20 -20 -20 -20 -20 -20 -20 -20 -20 -20
-20 -20 -20 -19 -20 -20 -18 -11 -11 -1 -9 -7 -3 -7 -17 -20 -20 -20 -20 -20 -20 -20 -20 -20 -20 -20 -20 -20 -20 -20 -20 -20 -20 -20 -20 -20 -20 -20 -20 -20 -20 -20 -20
-20 -20 -20 -20 -20 -20 -20 -20 -20 -20 -20 -19 -20 -18 -7 -11 -20 -20 -20 -20 -20 -20 -20 -20 -20 -20 -20 -20 -20 -20 -20 -20 -20 -20 -20 -20 -20 -20 -20 -20 -20 -20 -20
-20 -20 -20 -20 -20 -20 -20 -20 -20 -20 -20 -20 -20 -20 -20 -20 -20 -20 -20 -20 -20 -20 -20 -20 -20 -20 -20 -20 -20 -20 -20 -20 -20 -20 -20 -20 -20 -20 -20 -20 -20 -20 -20
-20 -20 -20 -20 -20 -20 -20 -20 -20 -20 -20 -20 -20 -20 -20 -20 -20 -20 -20 -20 -20 -20 -20 -20 -20 -20 -20 -20 -20 -20 -20 -20 -20 -20 -20 -20 -20 -20 -20 -20 -20 -20 -20
-20 -20 -20 -20 -20 -20 -20 -20 -20 -20 -20 -20 -20 -20 -20 -20 -20 -20 -20 -20 -20 -20 -20 -20 -20 -20 -20 -20 -20 -20 -20 -20 -20 -20 -20 -20 -20 -20 -20 -20 -20 -20 -20
-20 -20 -20 -20 -20 -20 -20 -20 -20 -20 -20 -20 -20 -20 -20 -20 -20 -20 -20 -20 -20 -20 -20 -14 -20 -20 -20 -20 -20 -20 -20 -20 -20 -20 -20 -20 -20 -16 -20 -20 -20 -20 -20
-20 -20 -20 -20 -20 -20 -20 -20 -20 -20 -20 -20 -20 -20 -20 -20 -20 -20 -5 -18 -20 -20 -20 -20 -20 15 24 -15 -1 -20 -20 -20 -20 -20 -20 -20 -20 -20 -20 -20 -20 -20 -20
-20 -20 -20 -20 -20 -20 -20 -20 -20 -20 -20 -20 -20 -20 -20 -20 -20 -20 -20 -20 -20 -20 -20 -8 -20 -13 23 3 4 3 -12 -18 -20 -20 -20 -20 -20 -20 -20 -20 -20 -20 -20

GFSGL_prec_radar_123.txt.gz
Reflectivity
-20 -20 -20 -20 -20 -20 -20 -20 -20 1 -20 -20 -6 -2 -2 -20 -20 -20 -20 -4 -2 13 -20 -20 -20 -20 -20 -20 -20 -20 -20 -20 -20 2 -19 -19 -20 -20 -20 -20 -20 -2 12
-20 -20 -20 -20 -20 -20 -20 -20 -20 12 15 -20 -1 1 5 -5 -16 -1 -8 -20 27 -20 -20 -20 -20 -20 -18 -20 -20 -20 -20 -20 -20 -20 -20 -20 -20 15 -20 -20 -20 -15 16
-20 -20 -20 -20 -20 -20 -20 -20 -12 30 -2 -20 34 -9 13 -6 -20 -11 8 5 -20 -20 -20 -20 -20 -17 -10 -20 -2 -20 -20 -13 -17 26 5 -20 3 40 20 -19 -20 -19 -6
-20 -20 -20 -20 -20 -20 -20 -20 -20 -20 -20 -20 -20 -5 -18 -20 -20 -20 23 17 0 21 2 -17 -20 8 29 29 2 27 27 25 -1 26 -10 -20 -14 24 38 30 6 37 25
-20 -20 -20 -20 -20 -20 -20 8 -15 8 -20 -20 -20 -20 13 -20 -20 4 -18 -16 15 -14 -20 -13 -20 -15 -17 -20 -2 26 28 -19 -16 17 24 24 -20 -20 14 -8 -10 -11 13
27 -20 23 -13 20 20 -20 -17 -20 25 22 21 17 -6 20 -16 -20 -20 -20 -20 -2 7 23 -15 19 -20 -20 -20 -20 -20 -20 26 22 23 23 22 25 25 17 -13 -10 22 24
22 -0 -20 10 25 -9 -20 23 -13 3 14 21 25 -8 23 25 18 6 -20 -20 -2 -20 20 22 8 24 16 -15 -8 -20 -20 -20 -20 -20 18 -10 -20 15 14 6 13 25 19
17 28 23 15 16 -20 -6 10 25 26 26 27 -20 -6 3 22 21 13 7 -20 -20 -2 30 -2 3 15 7 16 -19 -20 -20 -20 -20 -20 -20 12 -16 -20 -20 -20 -16 25 -20
31 12 11 -20 -20 -20 -0 -6 27 25 6 -16 -20 3 18 -2 12 3 -6 -6 -1 -13 -20 -8 5 -12 0 -18 -16 14 -18 20 18 -18 -20 -20 -20 -20 -20 -20 -20 25 21
32 38 30 -10 19 8 21 23 24 20 22 -6 14 31 23 21 22 21 9 10 24 15 19 9 16 19 17 21 14 10 -1 -20 -20 -20 -20 -20 -20 -20 -20 -20 -20 -20 -20
30 37 35 27 21 10 18 29 27 25 28 27 38 38 29 28 22 16 7 13 25 30 30 21 23 26 15 9 7 -8 -20 -20 -20 -20 -20 -20 -20 -20 -20 -20 -20 -20 -20
36 32 31 34 27 28 23 23 20 25 29 29 29 36 38 36 30 28 28 23 21 12 12 15 12 6 -2 -8 -15 -20 -12 4 -3 -17 -20 -20 -20 -20 -20 -20 -20 -20 -20
30 29 28 37 35 23 25 5 21 34 30 24 27 30 28 34 32 35 32 34 24 18 14 15 15 13 9 9 10 7 14 17 9 1 -16 -15 -19 -20 -20 -20 -20 -20 -4
22 29 29 23 23 13 13 2 -2 -2 -2 -2 14 29 25 31 34 34 28 27 16 2 3 -12 -7 1 -1 -10 -4 -14 -20 -19 -20 -20 -20 -20 -20 -20 -20 -18 -20 -20 -20
11 7 3 7 6 11 -10 -12 -16 -20 -9 8 3 15 23 25 24 20 13 13 4 5 2 -14 -18 -16 -9 -3 -1 -1 -3 -2 -14 -20 -20 -20 -20 -20 -20 -20 12 -13 -20
-0 0 -1 -19 -20 -18 -2 -6 12 -7 16 -9 11 2 12 14 11 9 12 13 7 6 3 4 -3 -5 -13 -20 -17 -20 -20 -20 -18 -20 -20 -20 -20 -20 -20 -20 -20 -20 -20
-15 -13 -19 -20 -20 -20 -20 -20 -20 -5 1 -1 -11 -20 -19 -20 -5 4 -4 2 5 2 -5 1 3 2 4 -3 -0 1 -7 -17 -4 -1 -2 -20 -20 -20 -20 -20 -20 -16 -6
-20 -20 -20 -5 -1 -4 -7 -12 -20 -20 -20 -20 -11 1 -1 -4 -13 -20 -20 -20 -20 -20 -20 -20 -20 -20 -20 -20 -19 -16 -10 -6 -1 -6 -6 0 -4 -18 -20 -20 -20 -20 -20
-20 -20 -20 -20 -20 -19 -20 -6 -9 -3 -3 -14 -20 -20 -17 -20 -14 -12 -20 -20 -20 -20 -20 -20 -20 -20 -20 -20 -20 -20 -20 -20 -20 -20 -20 -20 -20 -20 -20 -20 -20 -20 -20
-20 -20 -20 -20 -20 -20 -20 -20 -20 -19 -17 -4 -4 -13 -20 -20 -20 -20 -20 -20 -20 -20 -20 -20 -20 -20 -20 -20 -20 -20 -20 -20 -20 -20 -20 -20 -20 -20 -20 -20 -20 -20 -20
-20 -20 -20 -20 -20 -20 -20 -20 -20 -20 -20 -20 -20 -20 -20 -20 -20 -20 -20 -20 -20 -20 -20 -20 -20 -20 -20 -20 -20 -20 -20 -20 -20 -20 -20 -20 -20 -20 -20 -20 -20 -20 -20
-20 -20 -20 -20 -20 -20 -20 -20 -20 -20 -20 -20 -20 -20 -20 -20 -20 -20 -20 -20 -20 -20 -20 -20 -20 -20 -20 -20 -20 -20 -14 -20 -20 -20 -20 -20 -20 -20 -20 -20 -20 -20 -20
-20 -20 -20 -20 -20 -20 -20 -20 -20 -20 -20 -20 -20 -20 -20 -20 -20 -20 -20 -20 -20 -20 -20 -20 -20 -20 -20 25 0 -20 -20 -20 -20 -20 -20 -20 -20 -20 -20 -20 -20 -20 -20
-20 -20 -20 -20 -20 -20 -20 -20 -20 -20 -20 -20 -20 -20 -20 -20 -20 -20 -20 -20 -20 -20 -20 -20 -20 -20 -20 28 29 -12 -20 -20 -19 -20 -11 -20 -20 -20 -20 -20 -20 -20 -20
-20 -20 -20 -20 -20 -20 -20 -20 -20 -20 -20 -20 -20 -20 -20 -20 -20 -20 -20 -20 -20 -20 -20 -20 -19 -20 35 32 -15 -20 -20 -20 -4 20 -19 -20 -20 -20 -20 -19 -20 -20 -20
-20 -20 -20 -20 -20 -20 -20 -20 -20 -20 -20 -20 -20 -20 -20 -20 -20 -20 -20 -20 -20 -20 -20 -20 -20 -20 12 11 9 -4 -1 0 -1 7 -2 -18 -20 -20 -20 -20 -20 -18 -20